Time,TemperatureF,DewpointF,PressureIn,WindDirection,WindDirectionDegrees,WindSpeedMPH,WindSpeedGustMPH,Humidity,HourlyPrecipIn,Conditions,Clouds,dailyrainin,SoftwareType,DateUTC
2013-10-10 00:00:00,46.4,0.0,30.35,NW,307,0.0,5.5,0,0.00,,---,0.00,VWS V14.00,2013-10-10 04:00:00,
2013-10-10 00:01:00,46.4,0.0,30.35,NW,307,0.0,5.5,0,0.00,,---,0.00,VWS V14.00,2013-10-10 04:01:00,
2013-10-10 00:02:00,45.4,0.0,30.34,NW,315,2.9,7.9,0,0.00,,---,0.00,VWS V14.00,2013-10-10 04:02:00,
2013-10-10 00:03:00,45.5,0.0,30.34,WNW,288,7.0,7.9,0,0.00,,---,0.00,VWS V14.00,2013-10-10 04:03:00,
2013-10-10 00:04:00,45.4,0.0,30.34,NW,311,5.8,7.9,0,0.00,,---,0.00,VWS V14.00,2013-10-10 04:04:00,
2013-10-10 00:05:00,45.5,0.0,30.34,NW,304,4.3,8.1,0,0.00,,---,0.00,VWS V14.00,2013-10-10 04:05:00,
2013-10-10 00:06:00,46.2,0.0,30.35,NNW,339,0.0,4.2,0,0.00,,---,0.00,VWS V14.00,2013-10-10 04:06:00,
2013-10-10 00:07:00,45.6,0.0,30.34,WNW,287,0.0,8.1,0,0.00,,---,0.00,VWS V14.00,2013-10-10 04:07:00,
2013-10-10 00:08:00,45.6,0.0,30.34,NW,307,6.6,8.1,0,0.00,,---,0.00,VWS V14.00,2013-10-10 04:08:00,
2013-10-10 00:09:00,45.6,0.0,30.34,WNW,292,0.0,8.1,0,0.00,,---,0.00,VWS V14.00,2013-10-10 04:09:00,
2013-10-10 00:10:00,45.6,0.0,30.34,WNW,292,0.0,6.6,0,0.00,,---,0.00,VWS V14.00,2013-10-10 04:10:00,
2013-10-10 00:11:00,46.2,0.0,30.35,WNW,300,5.6,5.6,0,0.00,,---,0.00,VWS V14.00,2013-10-10 04:11:00,
2013-10-10 00:12:00,45.7,0.0,30.34,WNW,300,3.5,6.6,0,0.00,,---,0.00,VWS V14.00,2013-10-10 04:12:00,
2013-10-10 00:13:00,45.6,0.0,30.34,NW,304,0.0,6.6,0,0.00,,---,0.00,VWS V14.00,2013-10-10 04:13:00,
2013-10-10 00:14:00,45.6,0.0,30.34,NNW,335,0.0,6.6,0,0.00,,---,0.00,VWS V14.00,2013-10-10 04:14:00,
2013-10-10 00:15:00,45.6,0.0,30.34,NNW,335,0.0,7.5,0,0.00,,---,0.00,VWS V14.00,2013-10-10 04:15:00,
2013-10-10 00:16:00,46.1,0.0,30.34,NW,308,3.4,6.6,0,0.00,,---,0.00,VWS V14.00,2013-10-10 04:16:00,
2013-10-10 00:17:00,45.6,0.0,30.34,WNW,292,0.0,7.5,0,0.00,,---,0.00,VWS V14.00,2013-10-10 04:17:00,
2013-10-10 00:18:00,45.5,0.0,30.34,WNW,292,0.0,7.5,0,0.00,,---,0.00,VWS V14.00,2013-10-10 04:18:00,
2013-10-10 00:19:00,45.5,0.0,30.34,WNW,297,7.8,7.8,0,0.00,,---,0.00,VWS V14.00,2013-10-10 04:19:00,
2013-10-10 00:20:00,45.5,0.0,30.34,WNW,300,4.3,8.2,0,0.00,,---,0.00,VWS V14.00,2013-10-10 04:20:00,
2013-10-10 00:21:00,46.1,0.0,30.34,WNW,288,0.0,5.1,0,0.00,,---,0.00,VWS V14.00,2013-10-10 04:21:00,
2013-10-10 00:22:00,45.4,0.0,30.34,WNW,291,7.4,8.2,0,0.00,,---,0.00,VWS V14.00,2013-10-10 04:22:00,
2013-10-10 00:23:00,45.4,0.0,30.34,WNW,300,0.0,8.2,0,0.00,,---,0.00,VWS V14.00,2013-10-10 04:23:00,
2013-10-10 00:24:00,45.3,0.0,30.34,NW,305,7.8,8.2,0,0.00,,---,0.00,VWS V14.00,2013-10-10 04:24:00,
2013-10-10 00:25:00,45.2,0.0,30.34,West,271,0.0,8.3,0,0.00,,---,0.00,VWS V14.00,2013-10-10 04:25:00,
2013-10-10 00:26:00,45.8,0.0,30.34,NNW,340,0.0,0.0,0,0.00,,---,0.00,VWS V14.00,2013-10-10 04:26:00,
2013-10-10 00:27:00,45.1,0.0,30.34,WNW,290,0.0,8.3,0,0.00,,---,0.00,VWS V14.00,2013-10-10 04:27:00,
2013-10-10 00:28:00,45.1,0.0,30.34,WNW,290,0.0,8.3,0,0.00,,---,0.00,VWS V14.00,2013-10-10 04:28:00,
2013-10-10 00:29:00,45.1,0.0,30.34,WNW,298,4.4,8.3,0,0.00,,---,0.00,VWS V14.00,2013-10-10 04:29:00,
2013-10-10 00:30:00,45.1,0.0,30.34,WNW,288,0.0,5.8,0,0.00,,---,0.00,VWS V14.00,2013-10-10 04:30:00,
2013-10-10 00:31:00,45.7,0.0,30.34,NW,322,0.0,8.2,0,0.00,,---,0.00,VWS V14.00,2013-10-10 04:31:00,
2013-10-10 00:32:00,44.9,0.0,30.34,WNW,285,3.2,5.8,0,0.00,,---,0.00,VWS V14.00,2013-10-10 04:32:00,
2013-10-10 00:33:00,44.8,0.0,30.34,WNW,297,5.0,5.8,0,0.00,,---,0.00,VWS V14.00,2013-10-10 04:33:00,
2013-10-10 00:34:00,44.8,0.0,30.34,NW,312,6.7,6.7,0,0.00,,---,0.00,VWS V14.00,2013-10-10 04:34:00,
2013-10-10 00:35:00,44.8,0.0,30.34,NW,304,7.0,7.5,0,0.00,,---,0.00,VWS V14.00,2013-10-10 04:35:00,
2013-10-10 00:36:00,45.5,0.0,30.34,WNW,291,2.9,6.5,0,0.00,,---,0.00,VWS V14.00,2013-10-10 04:36:00,
2013-10-10 00:37:00,44.7,0.0,30.34,WNW,294,3.4,7.5,0,0.00,,---,0.00,VWS V14.00,2013-10-10 04:37:00,
2013-10-10 00:38:00,44.7,0.0,30.34,WNW,291,4.2,7.5,0,0.00,,---,0.00,VWS V14.00,2013-10-10 04:38:00,
2013-10-10 00:39:00,44.7,0.0,30.34,WSW,253,3.3,7.5,0,0.00,,---,0.00,VWS V14.00,2013-10-10 04:39:00,
2013-10-10 00:40:00,44.7,0.0,30.34,WNW,290,4.9,8.0,0,0.00,,---,0.00,VWS V14.00,2013-10-10 04:40:00,
2013-10-10 00:41:00,45.5,0.0,30.34,NW,326,6.0,8.6,0,0.00,,---,0.00,VWS V14.00,2013-10-10 04:41:00,
2013-10-10 00:42:00,44.7,0.0,30.34,NW,318,0.0,8.0,0,0.00,,---,0.00,VWS V14.00,2013-10-10 04:42:00,
2013-10-10 00:43:00,44.6,0.0,30.34,WNW,287,6.3,8.0,0,0.00,,---,0.00,VWS V14.00,2013-10-10 04:43:00,
2013-10-10 00:44:00,44.6,0.0,30.34,WNW,301,4.4,8.0,0,0.00,,---,0.00,VWS V14.00,2013-10-10 04:44:00,
2013-10-10 00:45:00,44.6,0.0,30.34,WNW,288,5.3,8.0,0,0.00,,---,0.00,VWS V14.00,2013-10-10 04:45:00,
2013-10-10 00:46:00,45.5,0.0,30.34,NW,315,4.5,8.1,0,0.00,,---,0.00,VWS V14.00,2013-10-10 04:46:00,
2013-10-10 00:47:00,44.6,0.0,30.34,West,278,6.6,8.0,0,0.00,,---,0.00,VWS V14.00,2013-10-10 04:47:00,
2013-10-10 00:48:00,44.6,0.0,30.34,WNW,300,6.3,8.0,0,0.00,,---,0.00,VWS V14.00,2013-10-10 04:48:00,
2013-10-10 00:49:00,44.6,0.0,30.34,WNW,298,6.5,8.0,0,0.00,,---,0.00,VWS V14.00,2013-10-10 04:49:00,
2013-10-10 00:50:00,44.6,0.0,30.34,WNW,294,0.0,8.0,0,0.00,,---,0.00,VWS V14.00,2013-10-10 04:50:00,
2013-10-10 00:51:00,44.6,0.0,30.34,NW,315,5.7,8.0,0,0.00,,---,0.00,VWS V14.00,2013-10-10 04:51:00,
2013-10-10 00:52:00,44.7,0.0,30.34,WNW,285,6.8,8.0,0,0.00,,---,0.00,VWS V14.00,2013-10-10 04:52:00,
2013-10-10 00:53:00,44.7,0.0,30.34,WNW,283,0.0,8.0,0,0.00,,---,0.00,VWS V14.00,2013-10-10 04:53:00,
2013-10-10 00:54:00,44.7,0.0,30.34,WNW,283,0.0,8.0,0,0.00,,---,0.00,VWS V14.00,2013-10-10 04:54:00,
2013-10-10 00:55:00,44.8,0.0,30.34,WNW,283,0.0,8.6,0,0.00,,---,0.00,VWS V14.00,2013-10-10 04:55:00,
2013-10-10 00:56:00,44.7,0.0,30.34,WNW,283,0.0,8.6,0,0.00,,---,0.00,VWS V14.00,2013-10-10 04:56:00,
2013-10-10 00:57:00,44.8,0.0,30.34,WNW,283,0.0,8.6,0,0.00,,---,0.00,VWS V14.00,2013-10-10 04:57:00,
2013-10-10 00:58:00,44.7,0.0,30.34,WNW,283,0.0,8.6,0,0.00,,---,0.00,VWS V14.00,2013-10-10 04:58:00,
2013-10-10 00:59:00,44.8,0.0,30.34,WNW,283,0.0,8.6,0,0.00,,---,0.00,VWS V14.00,2013-10-10 04:59:00,
2013-10-10 01:00:00,44.7,0.0,30.34,WNW,283,0.0,8.6,0,0.00,,---,0.00,VWS V14.00,2013-10-10 05:00:00,
2013-10-10 01:01:00,44.7,0.0,30.34,WNW,295,0.0,0.0,0,0.00,,---,0.00,VWS V14.00,2013-10-10 05:01:00,
2013-10-10 01:02:00,44.7,0.0,30.34,WNW,301,1.2,0.0,0,0.00,,---,0.00,VWS V14.00,2013-10-10 05:02:00,
2013-10-10 01:03:00,44.7,0.0,30.34,WNW,301,0.0,0.0,0,0.00,,---,0.00,VWS V14.00,2013-10-10 05:03:00,
2013-10-10 01:04:00,44.8,0.0,30.34,WNW,301,0.0,0.0,0,0.00,,---,0.00,VWS V14.00,2013-10-10 05:04:00,
2013-10-10 01:05:00,44.7,0.0,30.34,WNW,301,0.0,5.8,0,0.00,,---,0.00,VWS V14.00,2013-10-10 05:05:00,
2013-10-10 01:06:00,44.8,0.0,30.34,WNW,301,0.0,5.8,0,0.00,,---,0.00,VWS V14.00,2013-10-10 05:06:00,
2013-10-10 01:07:00,44.8,0.0,30.34,WNW,301,0.0,5.8,0,0.00,,---,0.00,VWS V14.00,2013-10-10 05:07:00,
2013-10-10 01:08:00,44.7,0.0,30.34,WNW,301,0.0,5.8,0,0.00,,---,0.00,VWS V14.00,2013-10-10 05:08:00,
2013-10-10 01:09:00,44.7,0.0,30.33,WNW,301,0.0,5.8,0,0.00,,---,0.00,VWS V14.00,2013-10-10 05:09:00,
2013-10-10 01:10:00,44.7,0.0,30.33,WNW,301,0.0,0.0,0,0.00,,---,0.00,VWS V14.00,2013-10-10 05:10:00,
2013-10-10 01:11:00,44.6,0.0,30.33,NW,304,0.0,0.0,0,0.00,,---,0.00,VWS V14.00,2013-10-10 05:11:00,
2013-10-10 01:12:00,44.6,0.0,30.33,WNW,294,3.2,0.0,0,0.00,,---,0.00,VWS V14.00,2013-10-10 05:12:00,
2013-10-10 01:13:00,44.6,0.0,30.33,WNW,288,4.3,0.0,0,0.00,,---,0.00,VWS V14.00,2013-10-10 05:13:00,
2013-10-10 01:14:00,44.7,0.0,30.33,WNW,290,0.0,0.0,0,0.00,,---,0.00,VWS V14.00,2013-10-10 05:14:00,
2013-10-10 01:15:00,44.6,0.0,30.33,WNW,290,0.0,6.2,0,0.00,,---,0.00,VWS V14.00,2013-10-10 05:15:00,
2013-10-10 01:16:00,44.7,0.0,30.33,WNW,297,4.3,6.2,0,0.00,,---,0.00,VWS V14.00,2013-10-10 05:16:00,
2013-10-10 01:17:00,44.7,0.0,30.33,WNW,297,0.0,6.2,0,0.00,,---,0.00,VWS V14.00,2013-10-10 05:17:00,
2013-10-10 01:18:00,44.7,0.0,30.33,WNW,297,0.0,6.2,0,0.00,,---,0.00,VWS V14.00,2013-10-10 05:18:00,
2013-10-10 01:19:00,44.8,0.0,30.33,NW,307,4.3,6.2,0,0.00,,---,0.00,VWS V14.00,2013-10-10 05:19:00,
2013-10-10 01:20:00,44.8,0.0,30.33,WNW,294,5.0,6.6,0,0.00,,---,0.00,VWS V14.00,2013-10-10 05:20:00,
2013-10-10 01:21:00,44.8,0.0,30.33,WNW,294,0.0,6.6,0,0.00,,---,0.00,VWS V14.00,2013-10-10 05:21:00,
2013-10-10 01:22:00,44.9,0.0,30.33,WNW,291,0.0,6.6,0,0.00,,---,0.00,VWS V14.00,2013-10-10 05:22:00,
2013-10-10 01:23:00,44.9,0.0,30.33,WNW,291,0.0,6.6,0,0.00,,---,0.00,VWS V14.00,2013-10-10 05:23:00,
2013-10-10 01:24:00,44.9,0.0,30.33,WNW,291,0.0,6.6,0,0.00,,---,0.00,VWS V14.00,2013-10-10 05:24:00,
2013-10-10 01:25:00,45.0,0.0,30.33,WNW,291,0.0,5.0,0,0.00,,---,0.00,VWS V14.00,2013-10-10 05:25:00,
2013-10-10 01:26:00,45.0,0.0,30.33,WNW,288,4.7,5.0,0,0.00,,---,0.00,VWS V14.00,2013-10-10 05:26:00,
2013-10-10 01:27:00,45.0,0.0,30.33,WNW,294,4.3,5.0,0,0.00,,---,0.00,VWS V14.00,2013-10-10 05:27:00,
2013-10-10 01:28:00,45.0,0.0,30.33,NW,312,0.0,5.0,0,0.00,,---,0.00,VWS V14.00,2013-10-10 05:28:00,
2013-10-10 01:29:00,45.0,0.0,30.33,WNW,295,3.5,5.0,0,0.00,,---,0.00,VWS V14.00,2013-10-10 05:29:00,
2013-10-10 01:30:00,45.0,0.0,30.33,WNW,295,0.0,6.7,0,0.00,,---,0.00,VWS V14.00,2013-10-10 05:30:00,
2013-10-10 01:31:00,45.1,0.0,30.33,West,280,0.0,6.7,0,0.00,,---,0.00,VWS V14.00,2013-10-10 05:31:00,
2013-10-10 01:32:00,45.1,0.0,30.33,West,280,0.0,6.7,0,0.00,,---,0.00,VWS V14.00,2013-10-10 05:32:00,
2013-10-10 01:33:00,45.1,0.0,30.33,West,280,0.0,6.7,0,0.00,,---,0.00,VWS V14.00,2013-10-10 05:33:00,
2013-10-10 01:34:00,45.1,0.0,30.33,West,280,0.0,6.7,0,0.00,,---,0.00,VWS V14.00,2013-10-10 05:34:00,
2013-10-10 01:35:00,45.1,0.0,30.33,West,280,0.0,3.4,0,0.00,,---,0.00,VWS V14.00,2013-10-10 05:35:00,
2013-10-10 01:36:00,45.1,0.0,30.33,WNW,301,1.8,3.4,0,0.00,,---,0.00,VWS V14.00,2013-10-10 05:36:00,
2013-10-10 01:37:00,45.2,0.0,30.33,NW,307,0.0,3.4,0,0.00,,---,0.00,VWS V14.00,2013-10-10 05:37:00,
2013-10-10 01:38:00,45.2,0.0,30.33,NW,315,0.0,3.4,0,0.00,,---,0.00,VWS V14.00,2013-10-10 05:38:00,
2013-10-10 01:39:00,45.2,0.0,30.33,NW,304,3.3,3.4,0,0.00,,---,0.00,VWS V14.00,2013-10-10 05:39:00,
2013-10-10 01:40:00,45.2,0.0,30.33,NW,307,0.0,7.1,0,0.00,,---,0.00,VWS V14.00,2013-10-10 05:40:00,
2013-10-10 01:41:00,45.1,0.0,30.33,NW,307,0.0,7.1,0,0.00,,---,0.00,VWS V14.00,2013-10-10 05:41:00,
2013-10-10 01:42:00,45.2,0.0,30.33,NW,304,4.2,7.1,0,0.00,,---,0.00,VWS V14.00,2013-10-10 05:42:00,
2013-10-10 01:43:00,45.1,0.0,30.33,WNW,301,6.2,7.1,0,0.00,,---,0.00,VWS V14.00,2013-10-10 05:43:00,
2013-10-10 01:44:00,45.1,0.0,30.33,West,264,4.1,7.1,0,0.00,,---,0.00,VWS V14.00,2013-10-10 05:44:00,
2013-10-10 01:45:00,45.1,0.0,30.33,WNW,285,0.0,8.1,0,0.00,,---,0.00,VWS V14.00,2013-10-10 05:45:00,
2013-10-10 01:46:00,45.1,0.0,30.33,WNW,285,0.0,8.1,0,0.00,,---,0.00,VWS V14.00,2013-10-10 05:46:00,
2013-10-10 01:47:00,45.1,0.0,30.33,WNW,285,0.0,8.1,0,0.00,,---,0.00,VWS V14.00,2013-10-10 05:47:00,
2013-10-10 01:48:00,45.0,0.0,30.33,WNW,285,0.0,8.1,0,0.00,,---,0.00,VWS V14.00,2013-10-10 05:48:00,
2013-10-10 01:49:00,44.9,0.0,30.33,WNW,285,0.0,8.1,0,0.00,,---,0.00,VWS V14.00,2013-10-10 05:49:00,
2013-10-10 01:50:00,44.8,0.0,30.33,WNW,285,0.0,0.0,0,0.00,,---,0.00,VWS V14.00,2013-10-10 05:50:00,
2013-10-10 01:51:00,44.7,0.0,30.33,WNW,285,0.0,0.0,0,0.00,,---,0.00,VWS V14.00,2013-10-10 05:51:00,
2013-10-10 01:52:00,44.6,0.0,30.33,West,281,4.5,0.0,0,0.00,,---,0.00,VWS V14.00,2013-10-10 05:52:00,
2013-10-10 01:53:00,44.5,0.0,30.33,West,260,0.0,0.0,0,0.00,,---,0.00,VWS V14.00,2013-10-10 05:53:00,
2013-10-10 01:54:00,44.4,0.0,30.33,WSW,252,2.1,0.0,0,0.00,,---,0.00,VWS V14.00,2013-10-10 05:54:00,
2013-10-10 01:55:00,44.4,0.0,30.33,West,269,0.0,5.9,0,0.00,,---,0.00,VWS V14.00,2013-10-10 05:55:00,
2013-10-10 01:56:00,44.4,0.0,30.33,NW,326,0.0,5.9,0,0.00,,---,0.00,VWS V14.00,2013-10-10 05:56:00,
2013-10-10 01:57:00,44.4,0.0,30.33,NW,326,0.0,5.9,0,0.00,,---,0.00,VWS V14.00,2013-10-10 05:57:00,
2013-10-10 01:58:00,44.5,0.0,30.33,WNW,300,0.0,5.9,0,0.00,,---,0.00,VWS V14.00,2013-10-10 05:58:00,
2013-10-10 01:59:00,44.4,0.0,30.33,WNW,300,0.0,5.9,0,0.00,,---,0.00,VWS V14.00,2013-10-10 05:59:00,
2013-10-10 02:00:00,44.4,0.0,30.33,WNW,300,0.0,3.2,0,0.00,,---,0.00,VWS V14.00,2013-10-10 06:00:00,
2013-10-10 02:01:00,44.5,0.0,30.33,WNW,300,0.0,3.2,0,0.00,,---,0.00,VWS V14.00,2013-10-10 06:01:00,
2013-10-10 02:02:00,44.5,0.0,30.33,WNW,300,0.0,3.2,0,0.00,,---,0.00,VWS V14.00,2013-10-10 06:02:00,
2013-10-10 02:03:00,44.6,0.0,30.33,WNW,300,0.0,3.2,0,0.00,,---,0.00,VWS V14.00,2013-10-10 06:03:00,
2013-10-10 02:04:00,44.6,0.0,30.33,WNW,300,0.0,3.2,0,0.00,,---,0.00,VWS V14.00,2013-10-10 06:04:00,
2013-10-10 02:05:00,44.6,0.0,30.33,WNW,300,0.0,3.2,0,0.00,,---,0.00,VWS V14.00,2013-10-10 06:05:00,
2013-10-10 02:06:00,44.6,0.0,30.33,WNW,300,0.0,0.0,0,0.00,,---,0.00,VWS V14.00,2013-10-10 06:06:00,
2013-10-10 02:07:00,44.6,0.0,30.33,WNW,300,0.0,0.0,0,0.00,,---,0.00,VWS V14.00,2013-10-10 06:07:00,
2013-10-10 02:08:00,44.6,0.0,30.33,WNW,300,0.0,0.0,0,0.00,,---,0.00,VWS V14.00,2013-10-10 06:08:00,
2013-10-10 02:09:00,44.7,0.0,30.33,NW,311,5.4,0.0,0,0.00,,---,0.00,VWS V14.00,2013-10-10 06:09:00,
2013-10-10 02:10:00,44.7,0.0,30.33,WNW,301,7.3,7.3,0,0.00,,---,0.00,VWS V14.00,2013-10-10 06:10:00,
2013-10-10 02:11:00,44.8,0.0,30.33,WNW,295,0.0,7.3,0,0.00,,---,0.00,VWS V14.00,2013-10-10 06:11:00,
2013-10-10 02:12:00,44.8,0.0,30.33,WNW,295,0.0,7.3,0,0.00,,---,0.00,VWS V14.00,2013-10-10 06:12:00,
2013-10-10 02:13:00,44.8,0.0,30.33,WNW,295,0.0,7.3,0,0.00,,---,0.00,VWS V14.00,2013-10-10 06:13:00,
2013-10-10 02:14:00,44.8,0.0,30.33,NW,307,0.0,7.3,0,0.00,,---,0.00,VWS V14.00,2013-10-10 06:14:00,
2013-10-10 02:15:00,44.8,0.0,30.33,NW,319,0.0,7.3,0,0.00,,---,0.00,VWS V14.00,2013-10-10 06:15:00,
2013-10-10 02:16:00,44.8,0.0,30.33,NW,319,0.0,7.3,0,0.00,,---,0.00,VWS V14.00,2013-10-10 06:16:00,
2013-10-10 02:17:00,44.8,0.0,30.33,NW,319,0.0,7.3,0,0.00,,---,0.00,VWS V14.00,2013-10-10 06:17:00,
2013-10-10 02:18:00,44.8,0.0,30.33,NW,319,0.0,7.3,0,0.00,,---,0.00,VWS V14.00,2013-10-10 06:18:00,
2013-10-10 02:19:00,44.8,0.0,30.33,NW,319,0.0,7.3,0,0.00,,---,0.00,VWS V14.00,2013-10-10 06:19:00,
2013-10-10 02:20:00,44.8,0.0,30.33,NW,319,0.0,0.0,0,0.00,,---,0.00,VWS V14.00,2013-10-10 06:20:00,
2013-10-10 02:21:00,44.8,0.0,30.33,NW,319,0.0,0.0,0,0.00,,---,0.00,VWS V14.00,2013-10-10 06:21:00,
2013-10-10 02:22:00,44.8,0.0,30.33,NW,319,0.0,0.0,0,0.00,,---,0.00,VWS V14.00,2013-10-10 06:22:00,
2013-10-10 02:23:00,44.8,0.0,30.33,WNW,292,0.0,0.0,0,0.00,,---,0.00,VWS V14.00,2013-10-10 06:23:00,
2013-10-10 02:24:00,44.8,0.0,30.33,WNW,292,0.0,0.0,0,0.00,,---,0.00,VWS V14.00,2013-10-10 06:24:00,
2013-10-10 02:25:00,44.8,0.0,30.33,WNW,295,4.7,7.6,0,0.00,,---,0.00,VWS V14.00,2013-10-10 06:25:00,
2013-10-10 02:26:00,44.8,0.0,30.33,WNW,302,0.0,7.6,0,0.00,,---,0.00,VWS V14.00,2013-10-10 06:26:00,
2013-10-10 02:27:00,44.9,0.0,30.33,NW,308,0.0,7.6,0,0.00,,---,0.00,VWS V14.00,2013-10-10 06:27:00,
2013-10-10 02:28:00,44.9,0.0,30.33,NW,308,0.0,7.6,0,0.00,,---,0.00,VWS V14.00,2013-10-10 06:28:00,
2013-10-10 02:29:00,44.9,0.0,30.33,WNW,294,4.8,7.6,0,0.00,,---,0.00,VWS V14.00,2013-10-10 06:29:00,
2013-10-10 02:30:00,44.9,0.0,30.33,WNW,294,0.0,6.4,0,0.00,,---,0.00,VWS V14.00,2013-10-10 06:30:00,
2013-10-10 02:31:00,44.9,0.0,30.32,WNW,294,0.0,6.4,0,0.00,,---,0.00,VWS V14.00,2013-10-10 06:31:00,
2013-10-10 02:32:00,44.9,0.0,30.32,WNW,294,0.0,6.4,0,0.00,,---,0.00,VWS V14.00,2013-10-10 06:32:00,
2013-10-10 02:33:00,44.9,0.0,30.32,WNW,294,0.0,6.4,0,0.00,,---,0.00,VWS V14.00,2013-10-10 06:33:00,
2013-10-10 02:34:00,44.9,0.0,30.32,WNW,290,0.0,6.4,0,0.00,,---,0.00,VWS V14.00,2013-10-10 06:34:00,
2013-10-10 02:35:00,44.8,0.0,30.32,NNW,333,0.0,5.5,0,0.00,,---,0.00,VWS V14.00,2013-10-10 06:35:00,
2013-10-10 02:36:00,44.7,0.0,30.32,NW,318,0.0,5.5,0,0.00,,---,0.00,VWS V14.00,2013-10-10 06:36:00,
2013-10-10 02:37:00,44.6,0.0,30.32,NW,308,0.0,5.5,0,0.00,,---,0.00,VWS V14.00,2013-10-10 06:37:00,
2013-10-10 02:38:00,44.5,0.0,30.32,NW,308,0.0,5.5,0,0.00,,---,0.00,VWS V14.00,2013-10-10 06:38:00,
2013-10-10 02:39:00,44.4,0.0,30.32,NW,308,0.0,5.5,0,0.00,,---,0.00,VWS V14.00,2013-10-10 06:39:00,
2013-10-10 02:40:00,44.3,0.0,30.32,NW,319,0.0,6.2,0,0.00,,---,0.00,VWS V14.00,2013-10-10 06:40:00,
2013-10-10 02:41:00,44.2,0.0,30.32,NW,319,0.0,6.2,0,0.00,,---,0.00,VWS V14.00,2013-10-10 06:41:00,
2013-10-10 02:42:00,44.2,0.0,30.32,NW,319,0.0,6.2,0,0.00,,---,0.00,VWS V14.00,2013-10-10 06:42:00,
2013-10-10 02:43:00,44.1,0.0,30.32,NW,311,4.3,6.2,0,0.00,,---,0.00,VWS V14.00,2013-10-10 06:43:00,
2013-10-10 02:44:00,44.1,0.0,30.32,NW,314,5.8,6.2,0,0.00,,---,0.00,VWS V14.00,2013-10-10 06:44:00,
2013-10-10 02:45:00,44.0,0.0,30.32,NW,316,7.2,8.5,0,0.00,,---,0.00,VWS V14.00,2013-10-10 06:45:00,
2013-10-10 02:46:00,43.9,0.0,30.32,NW,304,6.1,8.5,0,0.00,,---,0.00,VWS V14.00,2013-10-10 06:46:00,
2013-10-10 02:47:00,43.9,0.0,30.32,NW,304,5.8,8.5,0,0.00,,---,0.00,VWS V14.00,2013-10-10 06:47:00,
2013-10-10 02:48:00,43.9,0.0,30.32,NW,307,6.8,8.5,0,0.00,,---,0.00,VWS V14.00,2013-10-10 06:48:00,
2013-10-10 02:49:00,43.8,0.0,30.32,NNW,339,5.4,8.5,0,0.00,,---,0.00,VWS V14.00,2013-10-10 06:49:00,
2013-10-10 02:50:00,43.8,0.0,30.32,WNW,288,7.9,8.9,0,0.00,,---,0.00,VWS V14.00,2013-10-10 06:50:00,
2013-10-10 02:51:00,43.7,0.0,30.32,NW,308,8.5,8.9,0,0.00,,---,0.00,VWS V14.00,2013-10-10 06:51:00,
2013-10-10 02:52:00,43.7,0.0,30.32,NW,312,6.5,8.9,0,0.00,,---,0.00,VWS V14.00,2013-10-10 06:52:00,
2013-10-10 02:53:00,43.7,0.0,30.32,West,278,4.7,8.9,0,0.00,,---,0.00,VWS V14.00,2013-10-10 06:53:00,
2013-10-10 02:54:00,43.7,0.0,30.32,WNW,287,2.6,8.9,0,0.00,,---,0.00,VWS V14.00,2013-10-10 06:54:00,
2013-10-10 02:55:00,43.7,0.0,30.32,West,270,6.6,8.7,0,0.00,,---,0.00,VWS V14.00,2013-10-10 06:55:00,
2013-10-10 02:56:00,43.7,0.0,30.32,NW,309,8.1,8.7,0,0.00,,---,0.00,VWS V14.00,2013-10-10 06:56:00,
2013-10-10 02:57:00,43.7,0.0,30.32,WNW,302,4.3,8.7,0,0.00,,---,0.00,VWS V14.00,2013-10-10 06:57:00,
2013-10-10 02:58:00,43.7,0.0,30.32,WNW,300,6.9,8.7,0,0.00,,---,0.00,VWS V14.00,2013-10-10 06:58:00,
2013-10-10 02:59:00,43.7,0.0,30.32,NW,318,2.9,8.7,0,0.00,,---,0.00,VWS V14.00,2013-10-10 06:59:00,
2013-10-10 03:00:00,43.8,0.0,30.33,NW,318,0.0,8.5,0,0.00,,---,0.00,VWS V14.00,2013-10-10 07:00:00,
2013-10-10 03:01:00,43.8,0.0,30.32,NW,315,0.0,8.5,0,0.00,,---,0.00,VWS V14.00,2013-10-10 07:01:00,
2013-10-10 03:02:00,43.9,0.0,30.32,NW,315,0.0,8.5,0,0.00,,---,0.00,VWS V14.00,2013-10-10 07:02:00,
2013-10-10 03:03:00,43.9,0.0,30.32,WNW,284,7.0,8.5,0,0.00,,---,0.00,VWS V14.00,2013-10-10 07:03:00,
2013-10-10 03:04:00,43.9,0.0,30.32,WNW,300,4.7,8.5,0,0.00,,---,0.00,VWS V14.00,2013-10-10 07:04:00,
2013-10-10 03:05:00,43.8,0.0,30.32,NW,309,8.3,8.5,0,0.00,,---,0.00,VWS V14.00,2013-10-10 07:05:00,
2013-10-10 03:06:00,43.8,0.0,30.32,NW,308,8.1,9.6,0,0.00,,---,0.00,VWS V14.00,2013-10-10 07:06:00,
2013-10-10 03:07:00,43.8,0.0,30.32,NW,307,5.8,9.6,0,0.00,,---,0.00,VWS V14.00,2013-10-10 07:07:00,
2013-10-10 03:08:00,43.7,0.0,30.32,WNW,284,8.1,9.6,0,0.00,,---,0.00,VWS V14.00,2013-10-10 07:08:00,
2013-10-10 03:09:00,43.7,0.0,30.32,NNW,333,4.2,9.6,0,0.00,,---,0.00,VWS V14.00,2013-10-10 07:09:00,
2013-10-10 03:10:00,43.7,0.0,30.32,WNW,302,7.7,9.6,0,0.00,,---,0.00,VWS V14.00,2013-10-10 07:10:00,
2013-10-10 03:11:00,43.7,0.0,30.33,SW,236,0.0,9.9,0,0.00,,---,0.00,VWS V14.00,2013-10-10 07:11:00,
2013-10-10 03:12:00,43.7,0.0,30.32,NNW,328,0.0,9.9,0,0.00,,---,0.00,VWS V14.00,2013-10-10 07:12:00,
2013-10-10 03:13:00,43.6,0.0,30.32,West,267,2.9,9.9,0,0.00,,---,0.00,VWS V14.00,2013-10-10 07:13:00,
2013-10-10 03:14:00,43.7,0.0,30.32,West,267,0.0,9.9,0,0.00,,---,0.00,VWS V14.00,2013-10-10 07:14:00,
2013-10-10 03:15:00,43.6,0.0,30.32,West,267,0.0,8.6,0,0.00,,---,0.00,VWS V14.00,2013-10-10 07:15:00,
2013-10-10 03:16:00,43.5,0.0,30.32,WNW,283,7.8,8.6,0,0.00,,---,0.00,VWS V14.00,2013-10-10 07:16:00,
2013-10-10 03:17:00,43.5,0.0,30.32,West,260,3.4,8.6,0,0.00,,---,0.00,VWS V14.00,2013-10-10 07:17:00,
2013-10-10 03:18:00,43.4,0.0,30.32,WNW,290,7.6,8.6,0,0.00,,---,0.00,VWS V14.00,2013-10-10 07:18:00,
2013-10-10 03:19:00,43.4,0.0,30.32,WNW,301,5.5,8.6,0,0.00,,---,0.00,VWS V14.00,2013-10-10 07:19:00,
2013-10-10 03:20:00,43.3,0.0,30.32,WNW,292,4.7,9.5,0,0.00,,---,0.00,VWS V14.00,2013-10-10 07:20:00,
2013-10-10 03:21:00,43.3,0.0,30.32,NW,307,5.0,9.5,0,0.00,,---,0.00,VWS V14.00,2013-10-10 07:21:00,
2013-10-10 03:22:00,43.3,0.0,30.32,West,274,0.0,9.5,0,0.00,,---,0.00,VWS V14.00,2013-10-10 07:22:00,
2013-10-10 03:23:00,43.3,0.0,30.32,West,274,0.0,9.5,0,0.00,,---,0.00,VWS V14.00,2013-10-10 07:23:00,
2013-10-10 03:24:00,43.3,0.0,30.32,West,274,0.0,9.5,0,0.00,,---,0.00,VWS V14.00,2013-10-10 07:24:00,
2013-10-10 03:25:00,43.4,0.0,30.32,West,274,0.0,7.0,0,0.00,,---,0.00,VWS V14.00,2013-10-10 07:25:00,
2013-10-10 03:26:00,43.4,0.0,30.32,West,274,0.0,7.0,0,0.00,,---,0.00,VWS V14.00,2013-10-10 07:26:00,
2013-10-10 03:27:00,43.4,0.0,30.32,West,274,0.0,7.0,0,0.00,,---,0.00,VWS V14.00,2013-10-10 07:27:00,
2013-10-10 03:28:00,43.4,0.0,30.32,West,263,0.0,7.0,0,0.00,,---,0.00,VWS V14.00,2013-10-10 07:28:00,
2013-10-10 03:29:00,43.4,0.0,30.32,NW,325,3.4,7.0,0,0.00,,---,0.00,VWS V14.00,2013-10-10 07:29:00,
2013-10-10 03:30:00,43.4,0.0,30.32,WNW,294,0.0,6.8,0,0.00,,---,0.00,VWS V14.00,2013-10-10 07:30:00,
2013-10-10 03:31:00,43.4,0.0,30.32,NW,309,0.0,6.8,0,0.00,,---,0.00,VWS V14.00,2013-10-10 07:31:00,
2013-10-10 03:32:00,43.5,0.0,30.32,NW,309,0.0,6.8,0,0.00,,---,0.00,VWS V14.00,2013-10-10 07:32:00,
2013-10-10 03:33:00,43.5,0.0,30.32,NW,321,5.8,6.8,0,0.00,,---,0.00,VWS V14.00,2013-10-10 07:33:00,
2013-10-10 03:34:00,43.5,0.0,30.32,WNW,300,0.0,6.8,0,0.00,,---,0.00,VWS V14.00,2013-10-10 07:34:00,
2013-10-10 03:35:00,43.5,0.0,30.31,WNW,297,4.5,7.8,0,0.00,,---,0.00,VWS V14.00,2013-10-10 07:35:00,
2013-10-10 03:36:00,43.6,0.0,30.32,NW,315,2.8,7.8,0,0.00,,---,0.00,VWS V14.00,2013-10-10 07:36:00,
2013-10-10 03:37:00,43.6,0.0,30.32,NW,315,0.0,7.8,0,0.00,,---,0.00,VWS V14.00,2013-10-10 07:37:00,
2013-10-10 03:38:00,43.6,0.0,30.31,NW,315,0.0,7.8,0,0.00,,---,0.00,VWS V14.00,2013-10-10 07:38:00,
2013-10-10 03:39:00,43.6,0.0,30.31,NW,315,0.0,7.8,0,0.00,,---,0.00,VWS V14.00,2013-10-10 07:39:00,
2013-10-10 03:40:00,43.6,0.0,30.32,NW,315,0.0,5.5,0,0.00,,---,0.00,VWS V14.00,2013-10-10 07:40:00,
2013-10-10 03:41:00,43.7,0.0,30.31,NW,315,0.0,5.5,0,0.00,,---,0.00,VWS V14.00,2013-10-10 07:41:00,
2013-10-10 03:42:00,43.7,0.0,30.31,NW,309,6.1,6.1,0,0.00,,---,0.00,VWS V14.00,2013-10-10 07:42:00,
2013-10-10 03:43:00,43.7,0.0,30.31,NW,315,0.0,5.5,0,0.00,,---,0.00,VWS V14.00,2013-10-10 07:43:00,
2013-10-10 03:44:00,43.7,0.0,30.31,WNW,301,6.2,6.2,0,0.00,,---,0.00,VWS V14.00,2013-10-10 07:44:00,
2013-10-10 03:45:00,43.7,0.0,30.31,WNW,292,0.0,6.6,0,0.00,,---,0.00,VWS V14.00,2013-10-10 07:45:00,
2013-10-10 03:46:00,43.7,0.0,30.31,NW,305,0.0,6.6,0,0.00,,---,0.00,VWS V14.00,2013-10-10 07:46:00,
2013-10-10 03:47:00,43.7,0.0,30.31,WNW,297,4.4,6.6,0,0.00,,---,0.00,VWS V14.00,2013-10-10 07:47:00,
2013-10-10 03:48:00,43.8,0.0,30.31,WNW,297,0.0,6.6,0,0.00,,---,0.00,VWS V14.00,2013-10-10 07:48:00,
2013-10-10 03:49:00,43.8,0.0,30.32,WNW,297,0.0,6.6,0,0.00,,---,0.00,VWS V14.00,2013-10-10 07:49:00,
2013-10-10 03:50:00,43.8,0.0,30.31,NW,308,0.0,6.7,0,0.00,,---,0.00,VWS V14.00,2013-10-10 07:50:00,
2013-10-10 03:51:00,43.8,0.0,30.32,NW,308,0.0,6.7,0,0.00,,---,0.00,VWS V14.00,2013-10-10 07:51:00,
2013-10-10 03:52:00,43.8,0.0,30.32,NW,308,0.0,6.7,0,0.00,,---,0.00,VWS V14.00,2013-10-10 07:52:00,
2013-10-10 03:53:00,43.8,0.0,30.32,NW,308,0.0,6.7,0,0.00,,---,0.00,VWS V14.00,2013-10-10 07:53:00,
2013-10-10 03:54:00,43.7,0.0,30.31,NW,308,0.0,6.7,0,0.00,,---,0.00,VWS V14.00,2013-10-10 07:54:00,
2013-10-10 03:55:00,43.7,0.0,30.31,NW,308,0.0,0.0,0,0.00,,---,0.00,VWS V14.00,2013-10-10 07:55:00,
2013-10-10 03:56:00,43.7,0.0,30.31,NW,308,0.0,0.0,0,0.00,,---,0.00,VWS V14.00,2013-10-10 07:56:00,
2013-10-10 03:57:00,43.7,0.0,30.31,NW,308,0.0,0.0,0,0.00,,---,0.00,VWS V14.00,2013-10-10 07:57:00,
2013-10-10 03:58:00,43.7,0.0,30.31,WNW,290,3.3,0.0,0,0.00,,---,0.00,VWS V14.00,2013-10-10 07:58:00,
2013-10-10 03:59:00,43.8,0.0,30.31,WNW,290,0.0,0.0,0,0.00,,---,0.00,VWS V14.00,2013-10-10 07:59:00,
2013-10-10 04:00:00,43.8,0.0,30.31,WNW,290,0.0,4.5,0,0.00,,---,0.00,VWS V14.00,2013-10-10 08:00:00,
2013-10-10 04:01:00,43.7,0.0,30.31,WNW,291,0.0,4.5,0,0.00,,---,0.00,VWS V14.00,2013-10-10 08:01:00,
2013-10-10 04:02:00,43.7,0.0,30.31,WNW,291,0.0,4.5,0,0.00,,---,0.00,VWS V14.00,2013-10-10 08:02:00,
2013-10-10 04:03:00,43.8,0.0,30.31,WNW,291,0.0,4.5,0,0.00,,---,0.00,VWS V14.00,2013-10-10 08:03:00,
2013-10-10 04:04:00,43.7,0.0,30.31,WNW,288,0.0,4.5,0,0.00,,---,0.00,VWS V14.00,2013-10-10 08:04:00,
2013-10-10 04:05:00,43.8,0.0,30.31,NW,308,6.0,6.0,0,0.00,,---,0.00,VWS V14.00,2013-10-10 08:05:00,
2013-10-10 04:06:00,43.8,0.0,30.31,WNW,295,3.2,5.9,0,0.00,,---,0.00,VWS V14.00,2013-10-10 08:06:00,
2013-10-10 04:07:00,43.8,0.0,30.31,WNW,287,0.0,5.9,0,0.00,,---,0.00,VWS V14.00,2013-10-10 08:07:00,
2013-10-10 04:08:00,43.9,0.0,30.31,WNW,284,3.4,5.9,0,0.00,,---,0.00,VWS V14.00,2013-10-10 08:08:00,
2013-10-10 04:09:00,43.9,0.0,30.31,WNW,301,0.0,5.9,0,0.00,,---,0.00,VWS V14.00,2013-10-10 08:09:00,
2013-10-10 04:10:00,44.0,0.0,30.31,WNW,301,0.0,5.9,0,0.00,,---,0.00,VWS V14.00,2013-10-10 08:10:00,
2013-10-10 04:11:00,44.0,0.0,30.31,WNW,301,0.0,7.9,0,0.00,,---,0.00,VWS V14.00,2013-10-10 08:11:00,
2013-10-10 04:12:00,44.0,0.0,30.31,WNW,301,0.0,7.9,0,0.00,,---,0.00,VWS V14.00,2013-10-10 08:12:00,
2013-10-10 04:13:00,43.9,0.0,30.31,WNW,301,0.0,7.9,0,0.00,,---,0.00,VWS V14.00,2013-10-10 08:13:00,
2013-10-10 04:14:00,43.9,0.0,30.31,WNW,301,0.0,7.9,0,0.00,,---,0.00,VWS V14.00,2013-10-10 08:14:00,
2013-10-10 04:15:00,43.8,0.0,30.31,NW,315,0.0,7.9,0,0.00,,---,0.00,VWS V14.00,2013-10-10 08:15:00,
2013-10-10 04:16:00,43.8,0.0,30.31,NW,315,0.0,5.5,0,0.00,,---,0.00,VWS V14.00,2013-10-10 08:16:00,
2013-10-10 04:17:00,43.7,0.0,30.31,NW,315,0.0,5.5,0,0.00,,---,0.00,VWS V14.00,2013-10-10 08:17:00,
2013-10-10 04:18:00,43.7,0.0,30.31,NW,316,0.0,5.5,0,0.00,,---,0.00,VWS V14.00,2013-10-10 08:18:00,
2013-10-10 04:19:00,43.7,0.0,30.31,NW,307,0.0,5.5,0,0.00,,---,0.00,VWS V14.00,2013-10-10 08:19:00,
2013-10-10 04:20:00,43.7,0.0,30.31,NW,307,0.0,7.9,0,0.00,,---,0.00,VWS V14.00,2013-10-10 08:20:00,
2013-10-10 04:21:00,43.6,0.0,30.31,NW,307,0.0,7.9,0,0.00,,---,0.00,VWS V14.00,2013-10-10 08:21:00,
2013-10-10 04:22:00,43.5,0.0,30.31,NW,307,0.0,7.9,0,0.00,,---,0.00,VWS V14.00,2013-10-10 08:22:00,
2013-10-10 04:23:00,43.5,0.0,30.31,NW,316,0.0,7.9,0,0.00,,---,0.00,VWS V14.00,2013-10-10 08:23:00,
2013-10-10 04:24:00,43.4,0.0,30.31,NW,316,0.0,7.9,0,0.00,,---,0.00,VWS V14.00,2013-10-10 08:24:00,
2013-10-10 04:25:00,43.4,0.0,30.31,NW,316,0.0,4.7,0,0.00,,---,0.00,VWS V14.00,2013-10-10 08:25:00,
2013-10-10 04:26:00,43.4,0.0,30.31,NW,316,0.0,4.7,0,0.00,,---,0.00,VWS V14.00,2013-10-10 08:26:00,
2013-10-10 04:27:00,43.3,0.0,30.31,WNW,283,0.0,4.7,0,0.00,,---,0.00,VWS V14.00,2013-10-10 08:27:00,
2013-10-10 04:28:00,43.3,0.0,30.31,West,274,0.0,4.7,0,0.00,,---,0.00,VWS V14.00,2013-10-10 08:28:00,
2013-10-10 04:29:00,43.3,0.0,30.31,NNW,330,4.8,4.8,0,0.00,,---,0.00,VWS V14.00,2013-10-10 08:29:00,
2013-10-10 04:30:00,43.3,0.0,30.31,NNW,330,0.0,5.4,0,0.00,,---,0.00,VWS V14.00,2013-10-10 08:30:00,
2013-10-10 04:31:00,43.4,0.0,30.31,NNW,330,0.0,5.4,0,0.00,,---,0.00,VWS V14.00,2013-10-10 08:31:00,
2013-10-10 04:32:00,43.3,0.0,30.30,NNW,330,0.0,5.4,0,0.00,,---,0.00,VWS V14.00,2013-10-10 08:32:00,
2013-10-10 04:33:00,43.3,0.0,30.30,NW,326,0.0,5.4,0,0.00,,---,0.00,VWS V14.00,2013-10-10 08:33:00,
2013-10-10 04:34:00,43.3,0.0,30.30,NW,314,0.0,5.4,0,0.00,,---,0.00,VWS V14.00,2013-10-10 08:34:00,
2013-10-10 04:35:00,43.3,0.0,30.30,West,278,0.0,7.8,0,0.00,,---,0.00,VWS V14.00,2013-10-10 08:35:00,
2013-10-10 04:36:00,43.3,0.0,30.30,NW,305,5.7,7.8,0,0.00,,---,0.00,VWS V14.00,2013-10-10 08:36:00,
2013-10-10 04:37:00,43.3,0.0,30.30,WNW,297,0.0,7.8,0,0.00,,---,0.00,VWS V14.00,2013-10-10 08:37:00,
2013-10-10 04:38:00,43.3,0.0,30.30,WNW,297,0.0,7.8,0,0.00,,---,0.00,VWS V14.00,2013-10-10 08:38:00,
2013-10-10 04:39:00,43.3,0.0,30.30,NW,315,0.0,7.8,0,0.00,,---,0.00,VWS V14.00,2013-10-10 08:39:00,
2013-10-10 04:40:00,43.3,0.0,30.30,NW,312,4.3,7.0,0,0.00,,---,0.00,VWS V14.00,2013-10-10 08:40:00,
2013-10-10 04:41:00,43.2,0.0,30.30,WNW,295,5.0,7.0,0,0.00,,---,0.00,VWS V14.00,2013-10-10 08:41:00,
2013-10-10 04:42:00,43.3,0.0,30.30,WNW,298,7.5,7.5,0,0.00,,---,0.00,VWS V14.00,2013-10-10 08:42:00,
2013-10-10 04:43:00,43.3,0.0,30.30,WNW,294,3.3,7.0,0,0.00,,---,0.00,VWS V14.00,2013-10-10 08:43:00,
2013-10-10 04:44:00,43.2,0.0,30.30,NNW,330,4.1,7.0,0,0.00,,---,0.00,VWS V14.00,2013-10-10 08:44:00,
2013-10-10 04:45:00,43.1,0.0,30.30,NW,321,5.3,8.6,0,0.00,,---,0.00,VWS V14.00,2013-10-10 08:45:00,
2013-10-10 04:46:00,43.1,0.0,30.30,NW,314,6.3,8.6,0,0.00,,---,0.00,VWS V14.00,2013-10-10 08:46:00,
2013-10-10 04:47:00,43.1,0.0,30.30,WNW,285,5.0,8.6,0,0.00,,---,0.00,VWS V14.00,2013-10-10 08:47:00,
2013-10-10 04:48:00,43.1,0.0,30.30,WNW,297,0.0,8.6,0,0.00,,---,0.00,VWS V14.00,2013-10-10 08:48:00,
2013-10-10 04:49:00,43.1,0.0,30.30,WNW,297,0.0,8.6,0,0.00,,---,0.00,VWS V14.00,2013-10-10 08:49:00,
2013-10-10 04:50:00,43.2,0.0,30.30,NW,318,4.3,7.6,0,0.00,,---,0.00,VWS V14.00,2013-10-10 08:50:00,
2013-10-10 04:51:00,43.2,0.0,30.30,NW,316,0.0,7.6,0,0.00,,---,0.00,VWS V14.00,2013-10-10 08:51:00,
2013-10-10 04:52:00,43.2,0.0,30.30,West,281,0.0,7.6,0,0.00,,---,0.00,VWS V14.00,2013-10-10 08:52:00,
2013-10-10 04:53:00,43.2,0.0,30.30,NW,307,4.3,7.6,0,0.00,,---,0.00,VWS V14.00,2013-10-10 08:53:00,
2013-10-10 04:54:00,43.2,0.0,30.30,NW,305,0.0,7.6,0,0.00,,---,0.00,VWS V14.00,2013-10-10 08:54:00,
2013-10-10 04:55:00,43.3,0.0,30.30,WNW,295,0.0,6.3,0,0.00,,---,0.00,VWS V14.00,2013-10-10 08:55:00,
2013-10-10 04:56:00,43.3,0.0,30.29,NW,309,4.9,6.3,0,0.00,,---,0.00,VWS V14.00,2013-10-10 08:56:00,
2013-10-10 04:57:00,43.3,0.0,30.29,WNW,283,0.0,6.3,0,0.00,,---,0.00,VWS V14.00,2013-10-10 08:57:00,
2013-10-10 04:58:00,43.3,0.0,30.29,WNW,302,6.9,6.9,0,0.00,,---,0.00,VWS V14.00,2013-10-10 08:58:00,
2013-10-10 04:59:00,43.3,0.0,30.29,WNW,295,3.4,6.3,0,0.00,,---,0.00,VWS V14.00,2013-10-10 08:59:00,
2013-10-10 05:00:00,43.3,0.0,30.29,WNW,301,1.2,8.0,0,0.00,,---,0.00,VWS V14.00,2013-10-10 09:00:00,
2013-10-10 05:01:00,43.3,0.0,30.29,WNW,301,0.0,8.0,0,0.00,,---,0.00,VWS V14.00,2013-10-10 09:01:00,
2013-10-10 05:02:00,43.3,0.0,30.29,WNW,301,0.0,8.0,0,0.00,,---,0.00,VWS V14.00,2013-10-10 09:02:00,
2013-10-10 05:03:00,43.2,0.0,30.29,WNW,301,0.0,8.0,0,0.00,,---,0.00,VWS V14.00,2013-10-10 09:03:00,
2013-10-10 05:04:00,43.2,0.0,30.29,WNW,301,0.0,8.0,0,0.00,,---,0.00,VWS V14.00,2013-10-10 09:04:00,
2013-10-10 05:05:00,43.2,0.0,30.29,WNW,301,0.0,3.4,0,0.00,,---,0.00,VWS V14.00,2013-10-10 09:05:00,
2013-10-10 05:06:00,43.2,0.0,30.29,WNW,301,0.0,3.4,0,0.00,,---,0.00,VWS V14.00,2013-10-10 09:06:00,
2013-10-10 05:07:00,43.1,0.0,30.30,WNW,301,0.0,3.4,0,0.00,,---,0.00,VWS V14.00,2013-10-10 09:07:00,
2013-10-10 05:08:00,43.2,0.0,30.30,NW,322,0.0,3.4,0,0.00,,---,0.00,VWS V14.00,2013-10-10 09:08:00,
2013-10-10 05:09:00,43.1,0.0,30.30,West,259,0.0,3.4,0,0.00,,---,0.00,VWS V14.00,2013-10-10 09:09:00,
2013-10-10 05:10:00,43.1,0.0,30.30,West,259,0.0,5.3,0,0.00,,---,0.00,VWS V14.00,2013-10-10 09:10:00,
2013-10-10 05:11:00,43.0,0.0,30.30,WNW,291,3.4,5.3,0,0.00,,---,0.00,VWS V14.00,2013-10-10 09:11:00,
2013-10-10 05:12:00,43.0,0.0,30.30,WNW,291,0.0,5.3,0,0.00,,---,0.00,VWS V14.00,2013-10-10 09:12:00,
2013-10-10 05:13:00,43.0,0.0,30.30,NW,307,4.9,5.3,0,0.00,,---,0.00,VWS V14.00,2013-10-10 09:13:00,
2013-10-10 05:14:00,43.0,0.0,30.30,NW,314,5.2,5.3,0,0.00,,---,0.00,VWS V14.00,2013-10-10 09:14:00,
2013-10-10 05:15:00,43.0,0.0,30.30,WNW,302,0.0,5.3,0,0.00,,---,0.00,VWS V14.00,2013-10-10 09:15:00,
2013-10-10 05:16:00,43.1,0.0,30.30,WNW,302,0.0,6.2,0,0.00,,---,0.00,VWS V14.00,2013-10-10 09:16:00,
2013-10-10 05:17:00,43.1,0.0,30.30,WNW,302,0.0,6.2,0,0.00,,---,0.00,VWS V14.00,2013-10-10 09:17:00,
2013-10-10 05:18:00,43.2,0.0,30.30,WNW,302,0.0,6.2,0,0.00,,---,0.00,VWS V14.00,2013-10-10 09:18:00,
2013-10-10 05:19:00,43.2,0.0,30.30,WNW,302,0.0,6.2,0,0.00,,---,0.00,VWS V14.00,2013-10-10 09:19:00,
2013-10-10 05:20:00,43.2,0.0,30.30,WNW,302,0.0,0.0,0,0.00,,---,0.00,VWS V14.00,2013-10-10 09:20:00,
2013-10-10 05:21:00,43.3,0.0,30.30,NW,309,6.1,0.0,0,0.00,,---,0.00,VWS V14.00,2013-10-10 09:21:00,
2013-10-10 05:22:00,43.4,0.0,30.30,NW,307,0.0,0.0,0,0.00,,---,0.00,VWS V14.00,2013-10-10 09:22:00,
2013-10-10 05:23:00,43.4,0.0,30.30,NW,307,0.0,0.0,0,0.00,,---,0.00,VWS V14.00,2013-10-10 09:23:00,
2013-10-10 05:24:00,43.4,0.0,30.30,NW,307,0.0,0.0,0,0.00,,---,0.00,VWS V14.00,2013-10-10 09:24:00,
2013-10-10 05:25:00,43.4,0.0,30.30,NW,307,0.0,8.3,0,0.00,,---,0.00,VWS V14.00,2013-10-10 09:25:00,
2013-10-10 05:26:00,43.3,0.0,30.30,NW,307,0.0,8.3,0,0.00,,---,0.00,VWS V14.00,2013-10-10 09:26:00,
2013-10-10 05:27:00,43.3,0.0,30.30,NW,307,0.0,8.3,0,0.00,,---,0.00,VWS V14.00,2013-10-10 09:27:00,
2013-10-10 05:28:00,43.3,0.0,30.30,NW,307,0.0,8.3,0,0.00,,---,0.00,VWS V14.00,2013-10-10 09:28:00,
2013-10-10 05:29:00,43.3,0.0,30.30,NW,307,0.0,8.3,0,0.00,,---,0.00,VWS V14.00,2013-10-10 09:29:00,
2013-10-10 05:30:00,43.2,0.0,30.30,WNW,287,4.3,4.3,0,0.00,,---,0.00,VWS V14.00,2013-10-10 09:30:00,
2013-10-10 05:31:00,43.1,0.0,30.30,WNW,287,0.0,4.3,0,0.00,,---,0.00,VWS V14.00,2013-10-10 09:31:00,
2013-10-10 05:32:00,43.1,0.0,30.30,WNW,287,0.0,4.3,0,0.00,,---,0.00,VWS V14.00,2013-10-10 09:32:00,
2013-10-10 05:33:00,43.2,0.0,30.30,WNW,295,0.0,4.3,0,0.00,,---,0.00,VWS V14.00,2013-10-10 09:33:00,
2013-10-10 05:34:00,43.3,0.0,30.30,WNW,302,3.2,4.3,0,0.00,,---,0.00,VWS V14.00,2013-10-10 09:34:00,
2013-10-10 05:35:00,43.3,0.0,30.30,WNW,285,0.0,5.2,0,0.00,,---,0.00,VWS V14.00,2013-10-10 09:35:00,
2013-10-10 05:36:00,43.3,0.0,30.30,WNW,285,0.0,5.2,0,0.00,,---,0.00,VWS V14.00,2013-10-10 09:36:00,
2013-10-10 05:37:00,43.4,0.0,30.30,WNW,285,0.0,5.2,0,0.00,,---,0.00,VWS V14.00,2013-10-10 09:37:00,
2013-10-10 05:38:00,43.4,0.0,30.30,West,270,0.0,5.2,0,0.00,,---,0.00,VWS V14.00,2013-10-10 09:38:00,
2013-10-10 05:39:00,43.4,0.0,30.30,West,270,0.0,5.2,0,0.00,,---,0.00,VWS V14.00,2013-10-10 09:39:00,
2013-10-10 05:40:00,43.4,0.0,30.30,West,270,0.0,2.4,0,0.00,,---,0.00,VWS V14.00,2013-10-10 09:40:00,
2013-10-10 05:41:00,43.4,0.0,30.30,West,270,0.0,2.4,0,0.00,,---,0.00,VWS V14.00,2013-10-10 09:41:00,
2013-10-10 05:42:00,43.4,0.0,30.30,West,270,0.0,2.4,0,0.00,,---,0.00,VWS V14.00,2013-10-10 09:42:00,
2013-10-10 05:43:00,43.5,0.0,30.30,West,270,0.0,2.4,0,0.00,,---,0.00,VWS V14.00,2013-10-10 09:43:00,
2013-10-10 05:44:00,43.6,0.0,30.30,West,270,0.0,2.4,0,0.00,,---,0.00,VWS V14.00,2013-10-10 09:44:00,
2013-10-10 05:45:00,43.6,0.0,30.30,WNW,297,0.0,3.2,0,0.00,,---,0.00,VWS V14.00,2013-10-10 09:45:00,
2013-10-10 05:46:00,43.6,0.0,30.30,NW,305,3.4,3.4,0,0.00,,---,0.00,VWS V14.00,2013-10-10 09:46:00,
2013-10-10 05:47:00,43.6,0.0,30.30,West,280,3.2,3.2,0,0.00,,---,0.00,VWS V14.00,2013-10-10 09:47:00,
2013-10-10 05:48:00,43.5,0.0,30.30,WNW,298,0.0,3.2,0,0.00,,---,0.00,VWS V14.00,2013-10-10 09:48:00,
2013-10-10 05:49:00,43.5,0.0,30.30,WNW,292,3.5,3.5,0,0.00,,---,0.00,VWS V14.00,2013-10-10 09:49:00,
2013-10-10 05:50:00,43.5,0.0,30.30,WNW,292,0.0,5.8,0,0.00,,---,0.00,VWS V14.00,2013-10-10 09:50:00,
2013-10-10 05:51:00,43.4,0.0,30.30,WNW,283,0.0,5.8,0,0.00,,---,0.00,VWS V14.00,2013-10-10 09:51:00,
2013-10-10 05:52:00,43.3,0.0,30.30,WNW,283,0.0,5.8,0,0.00,,---,0.00,VWS V14.00,2013-10-10 09:52:00,
2013-10-10 05:53:00,43.3,0.0,30.30,WNW,283,0.0,5.8,0,0.00,,---,0.00,VWS V14.00,2013-10-10 09:53:00,
2013-10-10 05:54:00,43.3,0.0,30.30,NW,325,4.2,5.8,0,0.00,,---,0.00,VWS V14.00,2013-10-10 09:54:00,
2013-10-10 05:55:00,43.3,0.0,30.30,WNW,294,3.5,6.6,0,0.00,,---,0.00,VWS V14.00,2013-10-10 09:55:00,
2013-10-10 05:56:00,43.2,0.0,30.30,NW,321,0.0,6.6,0,0.00,,---,0.00,VWS V14.00,2013-10-10 09:56:00,
2013-10-10 05:57:00,43.1,0.0,30.30,NNW,335,5.7,6.6,0,0.00,,---,0.00,VWS V14.00,2013-10-10 09:57:00,
2013-10-10 05:58:00,43.1,0.0,30.30,NW,304,6.0,6.6,0,0.00,,---,0.00,VWS V14.00,2013-10-10 09:58:00,
2013-10-10 05:59:00,43.1,0.0,30.31,NW,307,5.9,6.6,0,0.00,,---,0.00,VWS V14.00,2013-10-10 09:59:00,
2013-10-10 06:00:00,43.1,0.0,30.30,NW,305,0.0,8.1,0,0.00,,---,0.00,VWS V14.00,2013-10-10 10:00:00,
2013-10-10 06:01:00,43.1,0.0,30.31,NW,305,0.0,8.1,0,0.00,,---,0.00,VWS V14.00,2013-10-10 10:01:00,
2013-10-10 06:02:00,43.1,0.0,30.31,NW,322,0.0,8.1,0,0.00,,---,0.00,VWS V14.00,2013-10-10 10:02:00,
2013-10-10 06:03:00,43.0,0.0,30.31,NW,304,5.6,8.1,0,0.00,,---,0.00,VWS V14.00,2013-10-10 10:03:00,
2013-10-10 06:04:00,43.0,0.0,30.31,NW,305,4.6,8.1,0,0.00,,---,0.00,VWS V14.00,2013-10-10 10:04:00,
2013-10-10 06:05:00,43.0,0.0,30.31,WSW,250,0.0,8.0,0,0.00,,---,0.00,VWS V14.00,2013-10-10 10:05:00,
2013-10-10 06:06:00,43.0,0.0,30.30,WNW,287,0.0,8.0,0,0.00,,---,0.00,VWS V14.00,2013-10-10 10:06:00,
2013-10-10 06:07:00,43.0,0.0,30.30,WNW,287,0.0,8.0,0,0.00,,---,0.00,VWS V14.00,2013-10-10 10:07:00,
2013-10-10 06:08:00,42.9,0.0,30.30,NW,312,2.6,8.0,0,0.00,,---,0.00,VWS V14.00,2013-10-10 10:08:00,
2013-10-10 06:09:00,43.0,0.0,30.30,NW,321,0.0,8.0,0,0.00,,---,0.00,VWS V14.00,2013-10-10 10:09:00,
2013-10-10 06:10:00,43.0,0.0,30.30,NW,305,0.0,6.8,0,0.00,,---,0.00,VWS V14.00,2013-10-10 10:10:00,
2013-10-10 06:11:00,43.0,0.0,30.30,NW,305,0.0,6.8,0,0.00,,---,0.00,VWS V14.00,2013-10-10 10:11:00,
2013-10-10 06:12:00,42.9,0.0,30.30,NW,305,0.0,6.8,0,0.00,,---,0.00,VWS V14.00,2013-10-10 10:12:00,
2013-10-10 06:13:00,42.9,0.0,30.30,NW,305,0.0,6.8,0,0.00,,---,0.00,VWS V14.00,2013-10-10 10:13:00,
2013-10-10 06:14:00,42.9,0.0,30.30,NW,308,3.2,6.8,0,0.00,,---,0.00,VWS V14.00,2013-10-10 10:14:00,
2013-10-10 06:15:00,42.8,0.0,30.30,WNW,297,3.4,6.8,0,0.00,,---,0.00,VWS V14.00,2013-10-10 10:15:00,
2013-10-10 06:16:00,42.8,0.0,30.30,NW,308,0.0,4.6,0,0.00,,---,0.00,VWS V14.00,2013-10-10 10:16:00,
2013-10-10 06:17:00,42.8,0.0,30.30,NW,308,0.0,4.6,0,0.00,,---,0.00,VWS V14.00,2013-10-10 10:17:00,
2013-10-10 06:18:00,42.7,0.0,30.30,NW,308,0.0,4.6,0,0.00,,---,0.00,VWS V14.00,2013-10-10 10:18:00,
2013-10-10 06:19:00,42.7,0.0,30.30,NW,308,0.0,4.6,0,0.00,,---,0.00,VWS V14.00,2013-10-10 10:19:00,
2013-10-10 06:20:00,42.6,0.0,30.30,NW,318,4.2,4.6,0,0.00,,---,0.00,VWS V14.00,2013-10-10 10:20:00,
2013-10-10 06:21:00,42.6,0.0,30.30,WSW,245,0.0,7.0,0,0.00,,---,0.00,VWS V14.00,2013-10-10 10:21:00,
2013-10-10 06:22:00,42.6,0.0,30.30,WSW,245,0.0,7.0,0,0.00,,---,0.00,VWS V14.00,2013-10-10 10:22:00,
2013-10-10 06:23:00,42.6,0.0,30.30,WSW,245,0.0,7.0,0,0.00,,---,0.00,VWS V14.00,2013-10-10 10:23:00,
2013-10-10 06:24:00,42.6,0.0,30.30,WSW,245,0.0,7.0,0,0.00,,---,0.00,VWS V14.00,2013-10-10 10:24:00,
2013-10-10 06:25:00,42.5,0.0,30.30,WSW,245,0.0,4.4,0,0.00,,---,0.00,VWS V14.00,2013-10-10 10:25:00,
2013-10-10 06:26:00,42.5,0.0,30.30,WNW,292,0.0,4.4,0,0.00,,---,0.00,VWS V14.00,2013-10-10 10:26:00,
2013-10-10 06:27:00,42.5,0.0,30.31,WNW,295,4.9,4.9,0,0.00,,---,0.00,VWS V14.00,2013-10-10 10:27:00,
2013-10-10 06:28:00,42.6,0.0,30.30,WNW,297,4.8,4.8,0,0.00,,---,0.00,VWS V14.00,2013-10-10 10:28:00,
2013-10-10 06:29:00,42.5,0.0,30.31,NW,315,3.2,4.4,0,0.00,,---,0.00,VWS V14.00,2013-10-10 10:29:00,
2013-10-10 06:30:00,42.6,0.0,30.31,NW,304,6.6,8.0,0,0.00,,---,0.00,VWS V14.00,2013-10-10 10:30:00,
2013-10-10 06:31:00,42.5,0.0,30.31,NW,304,0.0,8.0,0,0.00,,---,0.00,VWS V14.00,2013-10-10 10:31:00,
2013-10-10 06:32:00,42.6,0.0,30.30,NW,314,0.0,8.0,0,0.00,,---,0.00,VWS V14.00,2013-10-10 10:32:00,
2013-10-10 06:33:00,42.7,0.0,30.31,NW,314,0.0,8.0,0,0.00,,---,0.00,VWS V14.00,2013-10-10 10:33:00,
2013-10-10 06:34:00,42.7,0.0,30.31,NW,314,0.0,8.0,0,0.00,,---,0.00,VWS V14.00,2013-10-10 10:34:00,
2013-10-10 06:35:00,42.7,0.0,30.30,NW,314,0.0,7.0,0,0.00,,---,0.00,VWS V14.00,2013-10-10 10:35:00,
2013-10-10 06:36:00,42.7,0.0,30.31,NW,325,1.9,7.0,0,0.00,,---,0.00,VWS V14.00,2013-10-10 10:36:00,
2013-10-10 06:37:00,42.7,0.0,30.31,WNW,301,7.1,7.1,0,0.00,,---,0.00,VWS V14.00,2013-10-10 10:37:00,
2013-10-10 06:38:00,42.7,0.0,30.31,NW,312,5.2,7.0,0,0.00,,---,0.00,VWS V14.00,2013-10-10 10:38:00,
2013-10-10 06:39:00,42.7,0.0,30.31,WNW,295,5.6,7.0,0,0.00,,---,0.00,VWS V14.00,2013-10-10 10:39:00,
2013-10-10 06:40:00,42.7,0.0,30.31,WNW,298,5.2,8.4,0,0.00,,---,0.00,VWS V14.00,2013-10-10 10:40:00,
2013-10-10 06:41:00,42.7,0.0,30.31,NW,309,5.2,8.4,0,0.00,,---,0.00,VWS V14.00,2013-10-10 10:41:00,
2013-10-10 06:42:00,42.7,0.0,30.31,WNW,302,6.3,8.4,0,0.00,,---,0.00,VWS V14.00,2013-10-10 10:42:00,
2013-10-10 06:43:00,42.9,0.0,30.31,NW,309,6.8,8.4,0,0.00,,---,0.00,VWS V14.00,2013-10-10 10:43:00,
2013-10-10 06:44:00,42.9,0.0,30.31,NW,307,7.3,8.4,0,0.00,,---,0.00,VWS V14.00,2013-10-10 10:44:00,
2013-10-10 06:45:00,43.1,0.0,30.31,WNW,297,0.0,8.7,0,0.00,,---,0.00,VWS V14.00,2013-10-10 10:45:00,
2013-10-10 06:46:00,43.2,0.0,30.31,NW,314,6.3,8.7,0,0.00,,---,0.00,VWS V14.00,2013-10-10 10:46:00,
2013-10-10 06:47:00,43.3,0.0,30.31,NW,318,7.5,8.7,0,0.00,,---,0.00,VWS V14.00,2013-10-10 10:47:00,
2013-10-10 06:48:00,43.3,0.0,30.31,WNW,302,5.8,8.7,0,0.00,,---,0.00,VWS V14.00,2013-10-10 10:48:00,
2013-10-10 06:49:00,43.4,0.0,30.31,WNW,302,6.3,8.7,0,0.00,,---,0.00,VWS V14.00,2013-10-10 10:49:00,
2013-10-10 06:50:00,43.5,0.0,30.31,NW,315,5.2,8.7,0,0.00,,---,0.00,VWS V14.00,2013-10-10 10:50:00,
2013-10-10 06:51:00,43.5,0.0,30.31,WNW,290,7.2,8.7,0,0.00,,---,0.00,VWS V14.00,2013-10-10 10:51:00,
2013-10-10 06:52:00,43.5,0.0,30.31,NW,304,5.7,8.7,0,0.00,,---,0.00,VWS V14.00,2013-10-10 10:52:00,
2013-10-10 06:53:00,43.6,0.0,30.31,NW,318,6.0,8.7,0,0.00,,---,0.00,VWS V14.00,2013-10-10 10:53:00,
2013-10-10 06:54:00,43.7,0.0,30.31,NW,322,6.2,8.7,0,0.00,,---,0.00,VWS V14.00,2013-10-10 10:54:00,
2013-10-10 06:55:00,43.8,0.0,30.31,NW,316,4.5,8.6,0,0.00,,---,0.00,VWS V14.00,2013-10-10 10:55:00,
2013-10-10 06:56:00,43.9,0.0,30.31,WNW,301,6.1,8.6,0,0.00,,---,0.00,VWS V14.00,2013-10-10 10:56:00,
2013-10-10 06:57:00,43.9,0.0,30.31,NW,305,8.7,8.7,0,0.00,,---,0.00,VWS V14.00,2013-10-10 10:57:00,
2013-10-10 06:58:00,43.9,0.0,30.31,WNW,283,4.6,8.6,0,0.00,,---,0.00,VWS V14.00,2013-10-10 10:58:00,
2013-10-10 06:59:00,44.0,0.0,30.31,WNW,300,4.4,8.6,0,0.00,,---,0.00,VWS V14.00,2013-10-10 10:59:00,
2013-10-10 07:00:00,44.1,0.0,30.31,WNW,301,3.4,9.1,0,0.00,,---,0.00,VWS V14.00,2013-10-10 11:00:00,
2013-10-10 07:01:00,44.1,0.0,30.31,NW,307,3.5,9.1,0,0.00,,---,0.00,VWS V14.00,2013-10-10 11:01:00,
2013-10-10 07:02:00,44.1,0.0,30.31,WNW,288,6.5,9.1,0,0.00,,---,0.00,VWS V14.00,2013-10-10 11:02:00,
2013-10-10 07:03:00,44.1,0.0,30.31,NW,304,6.1,9.1,0,0.00,,---,0.00,VWS V14.00,2013-10-10 11:03:00,
2013-10-10 07:04:00,44.0,0.0,30.31,NW,325,4.3,9.1,0,0.00,,---,0.00,VWS V14.00,2013-10-10 11:04:00,
2013-10-10 07:05:00,43.8,0.0,30.31,NNW,328,4.3,9.7,0,0.00,,---,0.00,VWS V14.00,2013-10-10 11:05:00,
2013-10-10 07:06:00,43.8,0.0,30.31,WNW,292,4.1,9.7,0,0.00,,---,0.00,VWS V14.00,2013-10-10 11:06:00,
2013-10-10 07:07:00,43.7,0.0,30.31,North,6,4.3,9.7,0,0.00,,---,0.00,VWS V14.00,2013-10-10 11:07:00,
2013-10-10 07:08:00,43.6,0.0,30.31,NW,307,4.4,9.7,0,0.00,,---,0.00,VWS V14.00,2013-10-10 11:08:00,
2013-10-10 07:09:00,43.6,0.0,30.31,WNW,285,6.1,9.7,0,0.00,,---,0.00,VWS V14.00,2013-10-10 11:09:00,
2013-10-10 07:10:00,43.6,0.0,30.31,WNW,298,4.3,8.3,0,0.00,,---,0.00,VWS V14.00,2013-10-10 11:10:00,
2013-10-10 07:11:00,43.6,0.0,30.31,West,273,4.9,8.3,0,0.00,,---,0.00,VWS V14.00,2013-10-10 11:11:00,
2013-10-10 07:12:00,43.7,0.0,30.31,NW,323,4.7,8.3,0,0.00,,---,0.00,VWS V14.00,2013-10-10 11:12:00,
2013-10-10 07:13:00,43.7,0.0,30.31,WNW,295,5.2,8.3,0,0.00,,---,0.00,VWS V14.00,2013-10-10 11:13:00,
2013-10-10 07:14:00,43.8,0.0,30.31,NW,307,6.1,8.3,0,0.00,,---,0.00,VWS V14.00,2013-10-10 11:14:00,
2013-10-10 07:15:00,43.9,0.0,30.31,WNW,295,5.9,9.3,0,0.00,,---,0.00,VWS V14.00,2013-10-10 11:15:00,
2013-10-10 07:16:00,43.9,0.0,30.31,NW,314,6.8,9.3,0,0.00,,---,0.00,VWS V14.00,2013-10-10 11:16:00,
2013-10-10 07:17:00,43.9,0.0,30.31,NW,312,4.8,9.3,0,0.00,,---,0.00,VWS V14.00,2013-10-10 11:17:00,
2013-10-10 07:18:00,43.9,0.0,30.31,NW,311,8.2,9.3,0,0.00,,---,0.00,VWS V14.00,2013-10-10 11:18:00,
2013-10-10 07:19:00,43.9,0.0,30.31,NW,323,6.8,9.3,0,0.00,,---,0.00,VWS V14.00,2013-10-10 11:19:00,
2013-10-10 07:20:00,44.2,0.0,30.31,NW,316,6.1,9.3,0,0.00,,---,0.00,VWS V14.00,2013-10-10 11:20:00,
2013-10-10 07:21:00,44.4,0.0,30.31,WNW,291,6.3,8.9,0,0.00,,---,0.00,VWS V14.00,2013-10-10 11:21:00,
2013-10-10 07:22:00,44.6,0.0,30.31,NW,304,9.2,9.2,0,0.00,,---,0.00,VWS V14.00,2013-10-10 11:22:00,
2013-10-10 07:23:00,44.6,0.0,30.31,WNW,302,7.3,8.9,0,0.00,,---,0.00,VWS V14.00,2013-10-10 11:23:00,
2013-10-10 07:24:00,44.7,0.0,30.31,NW,309,7.5,8.9,0,0.00,,---,0.00,VWS V14.00,2013-10-10 11:24:00,
2013-10-10 07:25:00,44.6,0.0,30.31,NW,305,3.5,8.9,0,0.00,,---,0.00,VWS V14.00,2013-10-10 11:25:00,
2013-10-10 07:26:00,44.8,0.0,30.31,NW,316,5.7,9.3,0,0.00,,---,0.00,VWS V14.00,2013-10-10 11:26:00,
2013-10-10 07:27:00,44.8,0.0,30.31,WNW,295,5.0,9.3,0,0.00,,---,0.00,VWS V14.00,2013-10-10 11:27:00,
2013-10-10 07:28:00,44.9,0.0,30.31,NW,305,7.9,9.3,0,0.00,,---,0.00,VWS V14.00,2013-10-10 11:28:00,
2013-10-10 07:29:00,45.0,0.0,30.31,NW,321,7.3,9.3,0,0.00,,---,0.00,VWS V14.00,2013-10-10 11:29:00,
2013-10-10 07:30:00,45.0,0.0,30.31,NW,314,8.5,9.5,0,0.00,,---,0.00,VWS V14.00,2013-10-10 11:30:00,
2013-10-10 07:31:00,45.0,0.0,30.31,WNW,295,6.2,9.5,0,0.00,,---,0.00,VWS V14.00,2013-10-10 11:31:00,
2013-10-10 07:32:00,45.0,0.0,30.31,NW,307,8.2,9.5,0,0.00,,---,0.00,VWS V14.00,2013-10-10 11:32:00,
2013-10-10 07:33:00,45.1,0.0,30.31,NNW,339,6.5,9.5,0,0.00,,---,0.00,VWS V14.00,2013-10-10 11:33:00,
2013-10-10 07:34:00,45.2,0.0,30.31,NW,311,3.4,9.5,0,0.00,,---,0.00,VWS V14.00,2013-10-10 11:34:00,
2013-10-10 07:35:00,45.2,0.0,30.31,NW,323,7.1,9.7,0,0.00,,---,0.00,VWS V14.00,2013-10-10 11:35:00,
2013-10-10 07:36:00,45.0,0.0,30.31,NW,316,7.2,9.7,0,0.00,,---,0.00,VWS V14.00,2013-10-10 11:36:00,
2013-10-10 07:37:00,44.9,0.0,30.31,NW,308,6.4,9.7,0,0.00,,---,0.00,VWS V14.00,2013-10-10 11:37:00,
2013-10-10 07:38:00,44.9,0.0,30.31,WNW,298,6.7,9.7,0,0.00,,---,0.00,VWS V14.00,2013-10-10 11:38:00,
2013-10-10 07:39:00,44.9,0.0,30.31,WNW,301,8.1,9.7,0,0.00,,---,0.00,VWS V14.00,2013-10-10 11:39:00,
2013-10-10 07:40:00,45.0,0.0,30.32,NW,311,6.1,8.3,0,0.00,,---,0.00,VWS V14.00,2013-10-10 11:40:00,
2013-10-10 07:41:00,45.1,0.0,30.32,West,266,5.9,8.3,0,0.00,,---,0.00,VWS V14.00,2013-10-10 11:41:00,
2013-10-10 07:42:00,45.1,0.0,30.32,NW,308,7.6,8.3,0,0.00,,---,0.00,VWS V14.00,2013-10-10 11:42:00,
2013-10-10 07:43:00,45.1,0.0,30.32,WNW,300,6.0,8.3,0,0.00,,---,0.00,VWS V14.00,2013-10-10 11:43:00,
2013-10-10 07:44:00,45.2,0.0,30.32,WNW,295,6.6,8.3,0,0.00,,---,0.00,VWS V14.00,2013-10-10 11:44:00,
2013-10-10 07:45:00,45.3,0.0,30.31,NNW,333,2.2,8.9,0,0.00,,---,0.00,VWS V14.00,2013-10-10 11:45:00,
2013-10-10 07:46:00,45.4,0.0,30.32,NW,325,5.5,8.9,0,0.00,,---,0.00,VWS V14.00,2013-10-10 11:46:00,
2013-10-10 07:47:00,45.4,0.0,30.32,WNW,284,5.6,8.9,0,0.00,,---,0.00,VWS V14.00,2013-10-10 11:47:00,
2013-10-10 07:48:00,45.5,0.0,30.32,WNW,297,0.0,8.9,0,0.00,,---,0.00,VWS V14.00,2013-10-10 11:48:00,
2013-10-10 07:49:00,45.5,0.0,30.32,NW,314,7.5,8.9,0,0.00,,---,0.00,VWS V14.00,2013-10-10 11:49:00,
2013-10-10 07:50:00,45.5,0.0,30.32,WNW,288,7.3,9.0,0,0.00,,---,0.00,VWS V14.00,2013-10-10 11:50:00,
2013-10-10 07:51:00,45.5,0.0,30.32,NW,312,6.0,9.0,0,0.00,,---,0.00,VWS V14.00,2013-10-10 11:51:00,
2013-10-10 07:52:00,45.7,0.0,30.32,NW,316,6.0,9.0,0,0.00,,---,0.00,VWS V14.00,2013-10-10 11:52:00,
2013-10-10 07:53:00,45.7,0.0,30.32,NW,308,5.0,9.0,0,0.00,,---,0.00,VWS V14.00,2013-10-10 11:53:00,
2013-10-10 07:54:00,45.6,0.0,30.32,NW,326,5.7,9.0,0,0.00,,---,0.00,VWS V14.00,2013-10-10 11:54:00,
2013-10-10 07:55:00,45.6,0.0,30.32,NW,315,9.4,9.4,0,0.00,,---,0.00,VWS V14.00,2013-10-10 11:55:00,
2013-10-10 07:56:00,45.6,0.0,30.32,WNW,292,6.0,9.3,0,0.00,,---,0.00,VWS V14.00,2013-10-10 11:56:00,
2013-10-10 07:57:00,45.7,0.0,30.32,NW,311,7.0,9.3,0,0.00,,---,0.00,VWS V14.00,2013-10-10 11:57:00,
2013-10-10 07:58:00,45.7,0.0,30.32,WNW,301,6.5,9.3,0,0.00,,---,0.00,VWS V14.00,2013-10-10 11:58:00,
2013-10-10 07:59:00,45.7,0.0,30.32,NW,323,6.3,9.3,0,0.00,,---,0.00,VWS V14.00,2013-10-10 11:59:00,
2013-10-10 08:00:00,45.7,0.0,30.32,NW,309,8.5,10.1,0,0.00,,---,0.00,VWS V14.00,2013-10-10 12:00:00,
2013-10-10 08:01:00,45.8,0.0,30.32,WNW,295,5.5,10.1,0,0.00,,---,0.00,VWS V14.00,2013-10-10 12:01:00,
2013-10-10 08:02:00,45.8,0.0,30.32,NW,315,5.5,10.1,0,0.00,,---,0.00,VWS V14.00,2013-10-10 12:02:00,
2013-10-10 08:03:00,45.8,0.0,30.32,WNW,301,7.3,10.1,0,0.00,,---,0.00,VWS V14.00,2013-10-10 12:03:00,
2013-10-10 08:04:00,45.9,0.0,30.32,NW,323,5.9,10.1,0,0.00,,---,0.00,VWS V14.00,2013-10-10 12:04:00,
2013-10-10 08:05:00,46.2,0.0,30.32,NW,315,6.0,9.3,0,0.00,,---,0.00,VWS V14.00,2013-10-10 12:05:00,
2013-10-10 08:06:00,46.4,0.0,30.32,NNW,332,4.3,9.3,0,0.00,,---,0.00,VWS V14.00,2013-10-10 12:06:00,
2013-10-10 08:07:00,46.5,0.0,30.32,NW,314,4.2,9.3,0,0.00,,---,0.00,VWS V14.00,2013-10-10 12:07:00,
2013-10-10 08:08:00,46.6,0.0,30.32,NW,312,6.2,9.3,0,0.00,,---,0.00,VWS V14.00,2013-10-10 12:08:00,
2013-10-10 08:09:00,46.7,0.0,30.32,WNW,294,7.2,9.3,0,0.00,,---,0.00,VWS V14.00,2013-10-10 12:09:00,
2013-10-10 08:10:00,46.8,0.0,30.32,WNW,302,6.6,8.8,0,0.00,,---,0.00,VWS V14.00,2013-10-10 12:10:00,
2013-10-10 08:11:00,47.1,0.0,30.32,WNW,300,5.3,8.8,0,0.00,,---,0.00,VWS V14.00,2013-10-10 12:11:00,
2013-10-10 08:12:00,47.4,0.0,30.32,WNW,295,5.3,8.8,0,0.00,,---,0.00,VWS V14.00,2013-10-10 12:12:00,
2013-10-10 08:13:00,47.9,0.0,30.32,WNW,301,4.7,8.8,0,0.00,,---,0.00,VWS V14.00,2013-10-10 12:13:00,
2013-10-10 08:14:00,48.2,0.0,30.31,NW,312,0.0,8.8,0,0.00,,---,0.00,VWS V14.00,2013-10-10 12:14:00,
2013-10-10 08:15:00,48.4,0.0,30.32,NW,321,5.7,8.2,0,0.00,,---,0.00,VWS V14.00,2013-10-10 12:15:00,
2013-10-10 08:16:00,48.4,0.0,30.31,NW,312,4.4,8.2,0,0.00,,---,0.00,VWS V14.00,2013-10-10 12:16:00,
2013-10-10 08:17:00,48.5,0.0,30.31,NW,321,0.0,8.2,0,0.00,,---,0.00,VWS V14.00,2013-10-10 12:17:00,
2013-10-10 08:18:00,48.7,0.0,30.31,NW,304,5.9,8.2,0,0.00,,---,0.00,VWS V14.00,2013-10-10 12:18:00,
2013-10-10 08:19:00,48.9,0.0,30.31,NW,308,4.8,8.2,0,0.00,,---,0.00,VWS V14.00,2013-10-10 12:19:00,
2013-10-10 08:20:00,48.8,0.0,30.31,NW,318,4.5,7.2,0,0.00,,---,0.00,VWS V14.00,2013-10-10 12:20:00,
2013-10-10 08:21:00,48.9,0.0,30.31,NNW,342,3.0,7.2,0,0.00,,---,0.00,VWS V14.00,2013-10-10 12:21:00,
2013-10-10 08:22:00,48.9,0.0,30.31,NW,308,6.8,7.2,0,0.00,,---,0.00,VWS V14.00,2013-10-10 12:22:00,
2013-10-10 08:23:00,48.9,0.0,30.31,NW,312,6.8,7.2,0,0.00,,---,0.00,VWS V14.00,2013-10-10 12:23:00,
2013-10-10 08:24:00,48.8,0.0,30.31,NW,323,4.8,7.2,0,0.00,,---,0.00,VWS V14.00,2013-10-10 12:24:00,
2013-10-10 08:25:00,48.7,0.0,30.31,WNW,301,5.7,7.2,0,0.00,,---,0.00,VWS V14.00,2013-10-10 12:25:00,
2013-10-10 08:26:00,48.8,0.0,30.31,NW,319,3.2,7.6,0,0.00,,---,0.00,VWS V14.00,2013-10-10 12:26:00,
2013-10-10 08:27:00,48.9,0.0,30.31,WNW,283,4.5,7.6,0,0.00,,---,0.00,VWS V14.00,2013-10-10 12:27:00,
2013-10-10 08:28:00,49.0,0.0,30.31,WNW,302,4.2,7.6,0,0.00,,---,0.00,VWS V14.00,2013-10-10 12:28:00,
2013-10-10 08:29:00,49.2,0.0,30.31,WNW,291,4.8,7.6,0,0.00,,---,0.00,VWS V14.00,2013-10-10 12:29:00,
2013-10-10 08:30:00,49.2,0.0,30.31,NW,307,5.1,6.8,0,0.00,,---,0.00,VWS V14.00,2013-10-10 12:30:00,
2013-10-10 08:31:00,49.3,0.0,30.31,West,276,0.0,6.8,0,0.00,,---,0.00,VWS V14.00,2013-10-10 12:31:00,
2013-10-10 08:32:00,49.3,0.0,30.31,NW,308,5.3,6.8,0,0.00,,---,0.00,VWS V14.00,2013-10-10 12:32:00,
2013-10-10 08:33:00,49.3,0.0,30.31,NW,319,4.9,6.8,0,0.00,,---,0.00,VWS V14.00,2013-10-10 12:33:00,
2013-10-10 08:34:00,49.4,0.0,30.31,NNW,330,3.0,6.8,0,0.00,,---,0.00,VWS V14.00,2013-10-10 12:34:00,
2013-10-10 08:35:00,49.5,0.0,30.31,NW,321,0.0,8.1,0,0.00,,---,0.00,VWS V14.00,2013-10-10 12:35:00,
2013-10-10 08:36:00,49.6,0.0,30.31,NNW,329,5.1,8.1,0,0.00,,---,0.00,VWS V14.00,2013-10-10 12:36:00,
2013-10-10 08:37:00,49.7,0.0,30.31,NNW,332,5.0,8.1,0,0.00,,---,0.00,VWS V14.00,2013-10-10 12:37:00,
2013-10-10 08:38:00,49.8,0.0,30.31,NW,314,5.3,8.1,0,0.00,,---,0.00,VWS V14.00,2013-10-10 12:38:00,
2013-10-10 08:39:00,49.8,0.0,30.31,NW,304,5.7,8.1,0,0.00,,---,0.00,VWS V14.00,2013-10-10 12:39:00,
2013-10-10 08:40:00,49.9,0.0,30.31,WNW,302,6.2,7.3,0,0.00,,---,0.00,VWS V14.00,2013-10-10 12:40:00,
2013-10-10 08:41:00,50.0,0.0,30.31,WNW,298,6.2,7.3,0,0.00,,---,0.00,VWS V14.00,2013-10-10 12:41:00,
2013-10-10 08:42:00,50.1,0.0,30.31,WNW,297,7.0,7.3,0,0.00,,---,0.00,VWS V14.00,2013-10-10 12:42:00,
2013-10-10 08:43:00,50.1,0.0,30.31,NW,304,5.3,7.3,0,0.00,,---,0.00,VWS V14.00,2013-10-10 12:43:00,
2013-10-10 08:44:00,49.9,0.0,30.31,WNW,297,4.6,7.3,0,0.00,,---,0.00,VWS V14.00,2013-10-10 12:44:00,
2013-10-10 08:45:00,49.9,0.0,30.31,NW,321,6.2,8.3,0,0.00,,---,0.00,VWS V14.00,2013-10-10 12:45:00,
2013-10-10 08:46:00,49.8,0.0,30.31,West,277,5.6,8.3,0,0.00,,---,0.00,VWS V14.00,2013-10-10 12:46:00,
2013-10-10 08:47:00,49.8,0.0,30.31,West,262,0.0,8.3,0,0.00,,---,0.00,VWS V14.00,2013-10-10 12:47:00,
2013-10-10 08:48:00,49.9,0.0,30.31,West,262,0.0,8.3,0,0.00,,---,0.00,VWS V14.00,2013-10-10 12:48:00,
2013-10-10 08:49:00,50.0,0.0,30.31,WNW,284,6.2,8.3,0,0.00,,---,0.00,VWS V14.00,2013-10-10 12:49:00,
2013-10-10 08:50:00,50.1,0.0,30.31,WNW,300,6.0,9.1,0,0.00,,---,0.00,VWS V14.00,2013-10-10 12:50:00,
2013-10-10 08:51:00,50.1,0.0,30.31,WNW,298,7.1,9.1,0,0.00,,---,0.00,VWS V14.00,2013-10-10 12:51:00,
2013-10-10 08:52:00,50.2,0.0,30.31,NW,314,5.7,9.1,0,0.00,,---,0.00,VWS V14.00,2013-10-10 12:52:00,
2013-10-10 08:53:00,50.2,0.0,30.31,NNW,329,3.4,9.1,0,0.00,,---,0.00,VWS V14.00,2013-10-10 12:53:00,
2013-10-10 08:54:00,50.2,0.0,30.31,NW,311,5.4,9.1,0,0.00,,---,0.00,VWS V14.00,2013-10-10 12:54:00,
2013-10-10 08:55:00,50.2,0.0,30.31,WNW,297,6.5,8.1,0,0.00,,---,0.00,VWS V14.00,2013-10-10 12:55:00,
2013-10-10 08:56:00,50.3,0.0,30.31,NW,314,5.2,8.1,0,0.00,,---,0.00,VWS V14.00,2013-10-10 12:56:00,
2013-10-10 08:57:00,50.3,0.0,30.31,NW,312,4.8,8.1,0,0.00,,---,0.00,VWS V14.00,2013-10-10 12:57:00,
2013-10-10 08:58:00,50.2,0.0,30.31,NW,321,0.0,8.1,0,0.00,,---,0.00,VWS V14.00,2013-10-10 12:58:00,
2013-10-10 08:59:00,50.2,0.0,30.31,NW,321,0.0,8.1,0,0.00,,---,0.00,VWS V14.00,2013-10-10 12:59:00,
2013-10-10 09:00:00,50.2,0.0,30.31,NW,308,5.7,7.1,0,0.00,,---,0.00,VWS V14.00,2013-10-10 13:00:00,
2013-10-10 09:01:00,50.2,0.0,30.31,NW,314,4.7,7.1,0,0.00,,---,0.00,VWS V14.00,2013-10-10 13:01:00,
2013-10-10 09:02:00,50.3,0.0,30.31,NW,309,6.5,7.1,0,0.00,,---,0.00,VWS V14.00,2013-10-10 13:02:00,
2013-10-10 09:03:00,50.6,0.0,30.31,NW,305,4.9,7.1,0,0.00,,---,0.00,VWS V14.00,2013-10-10 13:03:00,
2013-10-10 09:04:00,50.6,0.0,30.31,SW,236,0.0,7.1,0,0.00,,---,0.00,VWS V14.00,2013-10-10 13:04:00,
2013-10-10 09:05:00,50.7,0.0,30.31,SW,236,0.0,7.5,0,0.00,,---,0.00,VWS V14.00,2013-10-10 13:05:00,
2013-10-10 09:06:00,50.8,0.0,30.31,WNW,287,4.4,7.5,0,0.00,,---,0.00,VWS V14.00,2013-10-10 13:06:00,
2013-10-10 09:07:00,50.8,0.0,30.31,WNW,290,5.7,7.5,0,0.00,,---,0.00,VWS V14.00,2013-10-10 13:07:00,
2013-10-10 09:08:00,50.7,0.0,30.31,NW,312,2.7,7.5,0,0.00,,---,0.00,VWS V14.00,2013-10-10 13:08:00,
2013-10-10 09:09:00,50.8,0.0,30.31,NW,312,7.2,7.5,0,0.00,,---,0.00,VWS V14.00,2013-10-10 13:09:00,
2013-10-10 09:10:00,50.9,0.0,30.31,NW,309,4.7,8.0,0,0.00,,---,0.00,VWS V14.00,2013-10-10 13:10:00,
2013-10-10 09:11:00,51.0,0.0,30.31,WNW,302,3.4,8.0,0,0.00,,---,0.00,VWS V14.00,2013-10-10 13:11:00,
2013-10-10 09:12:00,51.0,0.0,30.31,WNW,295,3.3,8.0,0,0.00,,---,0.00,VWS V14.00,2013-10-10 13:12:00,
2013-10-10 09:13:00,51.2,0.0,30.31,WNW,297,0.0,8.0,0,0.00,,---,0.00,VWS V14.00,2013-10-10 13:13:00,
2013-10-10 09:14:00,51.3,0.0,30.31,NW,308,0.0,8.0,0,0.00,,---,0.00,VWS V14.00,2013-10-10 13:14:00,
2013-10-10 09:15:00,51.4,0.0,30.31,WNW,300,0.0,6.1,0,0.00,,---,0.00,VWS V14.00,2013-10-10 13:15:00,
2013-10-10 09:16:00,51.5,0.0,30.31,WNW,300,0.0,6.1,0,0.00,,---,0.00,VWS V14.00,2013-10-10 13:16:00,
2013-10-10 09:17:00,51.4,0.0,30.31,NW,307,6.3,6.3,0,0.00,,---,0.00,VWS V14.00,2013-10-10 13:17:00,
2013-10-10 09:18:00,51.5,0.0,30.31,West,280,5.3,6.1,0,0.00,,---,0.00,VWS V14.00,2013-10-10 13:18:00,
2013-10-10 09:19:00,51.6,0.0,30.31,WNW,302,0.0,6.1,0,0.00,,---,0.00,VWS V14.00,2013-10-10 13:19:00,
2013-10-10 09:20:00,51.8,0.0,30.31,WNW,302,0.0,7.5,0,0.00,,---,0.00,VWS V14.00,2013-10-10 13:20:00,
2013-10-10 09:21:00,51.9,0.0,30.31,NW,318,6.9,7.5,0,0.00,,---,0.00,VWS V14.00,2013-10-10 13:21:00,
2013-10-10 09:22:00,51.9,0.0,30.31,NW,321,5.2,7.5,0,0.00,,---,0.00,VWS V14.00,2013-10-10 13:22:00,
2013-10-10 09:23:00,52.0,0.0,30.31,WNW,300,5.3,7.5,0,0.00,,---,0.00,VWS V14.00,2013-10-10 13:23:00,
2013-10-10 09:24:00,52.1,0.0,30.31,WNW,297,4.5,7.5,0,0.00,,---,0.00,VWS V14.00,2013-10-10 13:24:00,
2013-10-10 09:25:00,52.0,0.0,30.31,NW,323,0.0,8.0,0,0.00,,---,0.00,VWS V14.00,2013-10-10 13:25:00,
2013-10-10 09:26:00,52.1,0.0,30.31,WSW,239,2.9,8.0,0,0.00,,---,0.00,VWS V14.00,2013-10-10 13:26:00,
2013-10-10 09:27:00,52.4,0.0,30.31,NW,312,3.5,8.0,0,0.00,,---,0.00,VWS V14.00,2013-10-10 13:27:00,
2013-10-10 09:28:00,52.6,0.0,30.31,West,259,0.0,8.0,0,0.00,,---,0.00,VWS V14.00,2013-10-10 13:28:00,
2013-10-10 09:29:00,52.7,0.0,30.31,WNW,297,0.0,8.0,0,0.00,,---,0.00,VWS V14.00,2013-10-10 13:29:00,
2013-10-10 09:30:00,52.8,0.0,30.31,WNW,292,4.2,8.0,0,0.00,,---,0.00,VWS V14.00,2013-10-10 13:30:00,
2013-10-10 09:31:00,52.7,0.0,30.31,WNW,292,0.0,5.8,0,0.00,,---,0.00,VWS V14.00,2013-10-10 13:31:00,
2013-10-10 09:32:00,52.8,0.0,30.31,WNW,292,0.0,5.8,0,0.00,,---,0.00,VWS V14.00,2013-10-10 13:32:00,
2013-10-10 09:33:00,53.0,0.0,30.31,WNW,284,4.5,5.8,0,0.00,,---,0.00,VWS V14.00,2013-10-10 13:33:00,
2013-10-10 09:34:00,53.0,0.0,30.31,WNW,302,0.0,5.8,0,0.00,,---,0.00,VWS V14.00,2013-10-10 13:34:00,
2013-10-10 09:35:00,53.3,0.0,30.31,NW,308,0.0,4.8,0,0.00,,---,0.00,VWS V14.00,2013-10-10 13:35:00,
2013-10-10 09:36:00,53.5,0.0,30.31,NW,314,3.5,4.8,0,0.00,,---,0.00,VWS V14.00,2013-10-10 13:36:00,
2013-10-10 09:37:00,53.5,0.0,30.31,WNW,294,3.5,4.8,0,0.00,,---,0.00,VWS V14.00,2013-10-10 13:37:00,
2013-10-10 09:38:00,53.7,0.0,30.31,WNW,297,0.0,4.8,0,0.00,,---,0.00,VWS V14.00,2013-10-10 13:38:00,
2013-10-10 09:39:00,54.1,0.0,30.31,NW,308,4.3,4.8,0,0.00,,---,0.00,VWS V14.00,2013-10-10 13:39:00,
2013-10-10 09:40:00,54.0,0.0,30.31,WNW,290,3.4,7.1,0,0.00,,---,0.00,VWS V14.00,2013-10-10 13:40:00,
2013-10-10 09:41:00,54.0,0.0,30.31,WNW,301,0.0,7.1,0,0.00,,---,0.00,VWS V14.00,2013-10-10 13:41:00,
2013-10-10 09:42:00,54.2,0.0,30.31,West,260,3.0,7.1,0,0.00,,---,0.00,VWS V14.00,2013-10-10 13:42:00,
2013-10-10 09:43:00,54.3,0.0,30.31,West,271,0.0,7.1,0,0.00,,---,0.00,VWS V14.00,2013-10-10 13:43:00,
2013-10-10 09:44:00,54.7,0.0,30.31,West,271,0.0,7.1,0,0.00,,---,0.00,VWS V14.00,2013-10-10 13:44:00,
2013-10-10 09:45:00,54.9,0.0,30.31,WSW,239,0.0,4.8,0,0.00,,---,0.00,VWS V14.00,2013-10-10 13:45:00,
2013-10-10 09:46:00,55.1,0.0,30.31,WSW,239,0.0,4.8,0,0.00,,---,0.00,VWS V14.00,2013-10-10 13:46:00,
2013-10-10 09:47:00,55.5,0.0,30.31,WSW,239,0.0,4.8,0,0.00,,---,0.00,VWS V14.00,2013-10-10 13:47:00,
2013-10-10 09:48:00,55.9,0.0,30.31,West,260,0.0,4.8,0,0.00,,---,0.00,VWS V14.00,2013-10-10 13:48:00,
2013-10-10 09:49:00,56.2,0.0,30.31,West,260,3.2,4.8,0,0.00,,---,0.00,VWS V14.00,2013-10-10 13:49:00,
2013-10-10 09:50:00,56.6,0.0,30.31,West,260,0.0,5.2,0,0.00,,---,0.00,VWS V14.00,2013-10-10 13:50:00,
2013-10-10 09:51:00,56.9,0.0,30.31,West,260,0.0,5.2,0,0.00,,---,0.00,VWS V14.00,2013-10-10 13:51:00,
2013-10-10 09:52:00,56.9,0.0,30.31,West,260,0.0,5.2,0,0.00,,---,0.00,VWS V14.00,2013-10-10 13:52:00,
2013-10-10 09:53:00,56.9,0.0,30.31,WNW,300,3.2,5.2,0,0.00,,---,0.00,VWS V14.00,2013-10-10 13:53:00,
2013-10-10 09:54:00,56.9,0.0,30.31,WNW,297,0.0,5.2,0,0.00,,---,0.00,VWS V14.00,2013-10-10 13:54:00,
2013-10-10 09:55:00,57.0,0.0,30.31,WNW,297,0.0,4.6,0,0.00,,---,0.00,VWS V14.00,2013-10-10 13:55:00,
2013-10-10 09:56:00,57.1,0.0,30.31,WNW,297,0.0,4.6,0,0.00,,---,0.00,VWS V14.00,2013-10-10 13:56:00,
2013-10-10 09:57:00,57.2,0.0,30.31,WNW,297,0.0,4.6,0,0.00,,---,0.00,VWS V14.00,2013-10-10 13:57:00,
2013-10-10 09:58:00,57.4,0.0,30.31,WNW,297,0.0,4.6,0,0.00,,---,0.00,VWS V14.00,2013-10-10 13:58:00,
2013-10-10 09:59:00,57.4,0.0,30.31,WNW,297,0.0,4.6,0,0.00,,---,0.00,VWS V14.00,2013-10-10 13:59:00,
2013-10-10 10:00:00,57.9,0.0,30.31,WNW,297,0.0,1.7,0,0.00,,---,0.00,VWS V14.00,2013-10-10 14:00:00,
2013-10-10 10:01:00,58.5,0.0,30.30,WNW,297,0.0,1.7,0,0.00,,---,0.00,VWS V14.00,2013-10-10 14:01:00,
2013-10-10 10:02:00,59.1,0.0,30.30,NW,311,0.0,1.7,0,0.00,,---,0.00,VWS V14.00,2013-10-10 14:02:00,
2013-10-10 10:03:00,59.1,0.0,30.30,NW,311,0.0,1.7,0,0.00,,---,0.00,VWS V14.00,2013-10-10 14:03:00,
2013-10-10 10:04:00,59.5,0.0,30.30,NW,311,0.0,1.7,0,0.00,,---,0.00,VWS V14.00,2013-10-10 14:04:00,
2013-10-10 10:05:00,59.5,0.0,30.30,NW,311,0.0,3.5,0,0.00,,---,0.00,VWS V14.00,2013-10-10 14:05:00,
2013-10-10 10:06:00,60.4,0.0,30.31,NW,311,0.0,3.5,0,0.00,,---,0.00,VWS V14.00,2013-10-10 14:06:00,
2013-10-10 10:07:00,61.5,0.0,30.30,NW,311,0.0,3.5,0,0.00,,---,0.00,VWS V14.00,2013-10-10 14:07:00,
2013-10-10 10:08:00,61.4,0.0,30.30,NW,311,0.0,3.5,0,0.00,,---,0.00,VWS V14.00,2013-10-10 14:08:00,
2013-10-10 10:09:00,61.0,0.0,30.31,NW,311,0.0,3.5,0,0.00,,---,0.00,VWS V14.00,2013-10-10 14:09:00,
2013-10-10 10:10:00,61.0,0.0,30.30,NW,311,0.0,0.0,0,0.00,,---,0.00,VWS V14.00,2013-10-10 14:10:00,
2013-10-10 10:11:00,60.8,0.0,30.30,NW,311,0.0,0.0,0,0.00,,---,0.00,VWS V14.00,2013-10-10 14:11:00,
2013-10-10 10:12:00,61.6,0.0,30.30,NW,311,0.0,0.0,0,0.00,,---,0.00,VWS V14.00,2013-10-10 14:12:00,
2013-10-10 10:13:00,62.1,0.0,30.30,NW,311,0.0,0.0,0,0.00,,---,0.00,VWS V14.00,2013-10-10 14:13:00,
2013-10-10 10:14:00,62.9,0.0,30.30,NW,311,0.0,0.0,0,0.00,,---,0.00,VWS V14.00,2013-10-10 14:14:00,
2013-10-10 10:15:00,62.8,0.0,30.30,NW,311,0.0,0.0,0,0.00,,---,0.00,VWS V14.00,2013-10-10 14:15:00,
2013-10-10 10:16:00,63.0,0.0,30.30,NW,311,0.0,0.0,0,0.00,,---,0.00,VWS V14.00,2013-10-10 14:16:00,
2013-10-10 10:17:00,63.2,0.0,30.30,NNE,20,0.0,0.0,0,0.00,,---,0.00,VWS V14.00,2013-10-10 14:17:00,
2013-10-10 10:18:00,62.9,0.0,30.30,NNE,20,0.0,0.0,0,0.00,,---,0.00,VWS V14.00,2013-10-10 14:18:00,
2013-10-10 10:19:00,63.5,0.0,30.30,NNE,20,0.0,0.0,0,0.00,,---,0.00,VWS V14.00,2013-10-10 14:19:00,
2013-10-10 10:20:00,63.2,0.0,30.30,NNE,20,0.0,4.8,0,0.00,,---,0.00,VWS V14.00,2013-10-10 14:20:00,
2013-10-10 10:21:00,62.8,0.0,30.30,NNE,20,0.0,4.8,0,0.00,,---,0.00,VWS V14.00,2013-10-10 14:21:00,
2013-10-10 10:22:00,62.6,0.0,30.30,NNE,20,0.0,4.8,0,0.00,,---,0.00,VWS V14.00,2013-10-10 14:22:00,
2013-10-10 10:23:00,62.1,0.0,30.30,NE,38,4.7,4.8,0,0.00,,---,0.00,VWS V14.00,2013-10-10 14:23:00,
2013-10-10 10:24:00,61.9,0.0,30.30,North,4,0.0,4.8,0,0.00,,---,0.00,VWS V14.00,2013-10-10 14:24:00,
2013-10-10 10:25:00,60.7,0.0,30.30,North,4,0.0,5.3,0,0.00,,---,0.00,VWS V14.00,2013-10-10 14:25:00,
2013-10-10 10:26:00,59.9,0.0,30.30,North,4,0.0,5.3,0,0.00,,---,0.00,VWS V14.00,2013-10-10 14:26:00,
2013-10-10 10:27:00,59.9,0.0,30.29,North,4,0.0,5.3,0,0.00,,---,0.00,VWS V14.00,2013-10-10 14:27:00,
2013-10-10 10:28:00,60.4,0.0,30.30,North,4,0.0,5.3,0,0.00,,---,0.00,VWS V14.00,2013-10-10 14:28:00,
2013-10-10 10:29:00,60.3,0.0,30.30,North,4,0.0,5.3,0,0.00,,---,0.00,VWS V14.00,2013-10-10 14:29:00,
2013-10-10 10:30:00,60.3,0.0,30.29,North,4,0.0,5.3,0,0.00,,---,0.00,VWS V14.00,2013-10-10 14:30:00,
2013-10-10 10:31:00,59.4,0.0,30.30,North,4,0.0,0.0,0,0.00,,---,0.00,VWS V14.00,2013-10-10 14:31:00,
2013-10-10 10:32:00,59.7,0.0,30.30,North,4,0.0,0.0,0,0.00,,---,0.00,VWS V14.00,2013-10-10 14:32:00,
2013-10-10 10:33:00,60.1,0.0,30.29,NE,38,2.6,0.0,0,0.00,,---,0.00,VWS V14.00,2013-10-10 14:33:00,
2013-10-10 10:34:00,60.3,0.0,30.29,ESE,105,0.0,0.0,0,0.00,,---,0.00,VWS V14.00,2013-10-10 14:34:00,
2013-10-10 10:35:00,60.7,0.0,30.29,ESE,105,0.0,0.0,0,0.00,,---,0.00,VWS V14.00,2013-10-10 14:35:00,
2013-10-10 10:36:00,60.8,0.0,30.29,ESE,105,0.0,4.3,0,0.00,,---,0.00,VWS V14.00,2013-10-10 14:36:00,
2013-10-10 10:37:00,60.4,0.0,30.29,ESE,105,0.0,4.3,0,0.00,,---,0.00,VWS V14.00,2013-10-10 14:37:00,
2013-10-10 10:38:00,60.3,0.0,30.29,ESE,105,0.0,4.3,0,0.00,,---,0.00,VWS V14.00,2013-10-10 14:38:00,
2013-10-10 10:39:00,59.9,0.0,30.29,ESE,105,0.0,4.3,0,0.00,,---,0.00,VWS V14.00,2013-10-10 14:39:00,
2013-10-10 10:40:00,60.1,0.0,30.29,ESE,105,0.0,0.0,0,0.00,,---,0.00,VWS V14.00,2013-10-10 14:40:00,
2013-10-10 10:41:00,59.7,0.0,30.29,NE,35,6.3,0.0,0,0.00,,---,0.00,VWS V14.00,2013-10-10 14:41:00,
2013-10-10 10:42:00,59.4,0.0,30.29,NE,48,0.0,0.0,0,0.00,,---,0.00,VWS V14.00,2013-10-10 14:42:00,
2013-10-10 10:43:00,59.0,0.0,30.29,NE,48,0.0,0.0,0,0.00,,---,0.00,VWS V14.00,2013-10-10 14:43:00,
2013-10-10 10:44:00,59.0,0.0,30.29,NE,48,0.0,0.0,0,0.00,,---,0.00,VWS V14.00,2013-10-10 14:44:00,
2013-10-10 10:45:00,59.4,0.0,30.29,NE,48,0.0,6.4,0,0.00,,---,0.00,VWS V14.00,2013-10-10 14:45:00,
2013-10-10 10:46:00,59.6,0.0,30.29,NE,34,6.1,6.4,0,0.00,,---,0.00,VWS V14.00,2013-10-10 14:46:00,
2013-10-10 10:47:00,59.8,0.0,30.29,ENE,63,3.5,6.4,0,0.00,,---,0.00,VWS V14.00,2013-10-10 14:47:00,
2013-10-10 10:48:00,60.1,0.0,30.29,East,90,0.0,6.4,0,0.00,,---,0.00,VWS V14.00,2013-10-10 14:48:00,
2013-10-10 10:49:00,60.3,0.0,30.29,ENE,60,2.5,6.4,0,0.00,,---,0.00,VWS V14.00,2013-10-10 14:49:00,
2013-10-10 10:50:00,60.4,0.0,30.29,SE,128,0.0,6.7,0,0.00,,---,0.00,VWS V14.00,2013-10-10 14:50:00,
2013-10-10 10:51:00,60.7,0.0,30.29,SE,128,0.0,6.7,0,0.00,,---,0.00,VWS V14.00,2013-10-10 14:51:00,
2013-10-10 10:52:00,60.9,0.0,30.29,SE,128,0.0,6.7,0,0.00,,---,0.00,VWS V14.00,2013-10-10 14:52:00,
2013-10-10 10:53:00,60.6,0.0,30.29,NE,48,4.8,6.7,0,0.00,,---,0.00,VWS V14.00,2013-10-10 14:53:00,
2013-10-10 10:54:00,60.3,0.0,30.29,North,359,0.0,6.7,0,0.00,,---,0.00,VWS V14.00,2013-10-10 14:54:00,
2013-10-10 10:55:00,60.4,0.0,30.29,North,359,0.0,5.0,0,0.00,,---,0.00,VWS V14.00,2013-10-10 14:55:00,
2013-10-10 10:56:00,60.3,0.0,30.29,North,359,0.0,5.0,0,0.00,,---,0.00,VWS V14.00,2013-10-10 14:56:00,
2013-10-10 10:57:00,60.4,0.0,30.29,ENE,76,3.3,5.0,0,0.00,,---,0.00,VWS V14.00,2013-10-10 14:57:00,
2013-10-10 10:58:00,60.3,0.0,30.29,NE,45,5.5,5.5,0,0.00,,---,0.00,VWS V14.00,2013-10-10 14:58:00,
2013-10-10 10:59:00,60.0,0.0,30.29,NE,37,4.8,5.0,0,0.00,,---,0.00,VWS V14.00,2013-10-10 14:59:00,
2013-10-10 11:00:00,59.7,0.0,30.29,NE,37,0.0,6.6,0,0.00,,---,0.00,VWS V14.00,2013-10-10 15:00:00,
2013-10-10 11:01:00,59.1,0.0,30.29,NE,37,0.0,6.6,0,0.00,,---,0.00,VWS V14.00,2013-10-10 15:01:00,
2013-10-10 11:02:00,59.1,0.0,30.29,NE,55,4.7,6.6,0,0.00,,---,0.00,VWS V14.00,2013-10-10 15:02:00,
2013-10-10 11:03:00,59.0,0.0,30.29,ENE,69,4.3,6.6,0,0.00,,---,0.00,VWS V14.00,2013-10-10 15:03:00,
2013-10-10 11:04:00,59.0,0.0,30.29,NE,34,6.1,6.6,0,0.00,,---,0.00,VWS V14.00,2013-10-10 15:04:00,
2013-10-10 11:05:00,58.9,0.0,30.29,NE,45,6.4,7.1,0,0.00,,---,0.00,VWS V14.00,2013-10-10 15:05:00,
2013-10-10 11:06:00,59.2,0.0,30.28,ENE,62,5.2,7.1,0,0.00,,---,0.00,VWS V14.00,2013-10-10 15:06:00,
2013-10-10 11:07:00,59.3,0.0,30.28,NE,39,0.0,7.1,0,0.00,,---,0.00,VWS V14.00,2013-10-10 15:07:00,
2013-10-10 11:08:00,59.4,0.0,30.28,NE,42,4.8,7.1,0,0.00,,---,0.00,VWS V14.00,2013-10-10 15:08:00,
2013-10-10 11:09:00,59.5,0.0,30.28,NNE,20,2.3,7.1,0,0.00,,---,0.00,VWS V14.00,2013-10-10 15:09:00,
2013-10-10 11:10:00,59.7,0.0,30.28,NNE,20,0.0,6.8,0,0.00,,---,0.00,VWS V14.00,2013-10-10 15:10:00,
2013-10-10 11:11:00,59.6,0.0,30.28,ENE,65,4.4,6.8,0,0.00,,---,0.00,VWS V14.00,2013-10-10 15:11:00,
2013-10-10 11:12:00,59.5,0.0,30.28,ENE,77,0.0,6.8,0,0.00,,---,0.00,VWS V14.00,2013-10-10 15:12:00,
2013-10-10 11:13:00,59.6,0.0,30.28,NNE,32,6.0,6.8,0,0.00,,---,0.00,VWS V14.00,2013-10-10 15:13:00,
2013-10-10 11:14:00,59.6,0.0,30.28,ENE,62,5.2,6.8,0,0.00,,---,0.00,VWS V14.00,2013-10-10 15:14:00,
2013-10-10 11:15:00,59.6,0.0,30.28,NNE,28,4.1,6.6,0,0.00,,---,0.00,VWS V14.00,2013-10-10 15:15:00,
2013-10-10 11:16:00,59.6,0.0,30.28,NNE,27,0.0,6.6,0,0.00,,---,0.00,VWS V14.00,2013-10-10 15:16:00,
2013-10-10 11:17:00,59.9,0.0,30.28,NNE,27,0.0,6.6,0,0.00,,---,0.00,VWS V14.00,2013-10-10 15:17:00,
2013-10-10 11:18:00,59.9,0.0,30.28,NNE,27,0.0,6.6,0,0.00,,---,0.00,VWS V14.00,2013-10-10 15:18:00,
2013-10-10 11:19:00,59.8,0.0,30.28,NNE,27,0.0,6.6,0,0.00,,---,0.00,VWS V14.00,2013-10-10 15:19:00,
2013-10-10 11:20:00,59.8,0.0,30.28,NNE,27,0.0,4.7,0,0.00,,---,0.00,VWS V14.00,2013-10-10 15:20:00,
2013-10-10 11:21:00,59.7,0.0,30.28,NNE,27,0.0,4.7,0,0.00,,---,0.00,VWS V14.00,2013-10-10 15:21:00,
2013-10-10 11:22:00,59.6,0.0,30.28,NE,45,5.4,5.4,0,0.00,,---,0.00,VWS V14.00,2013-10-10 15:22:00,
2013-10-10 11:23:00,59.5,0.0,30.28,NE,48,2.8,4.7,0,0.00,,---,0.00,VWS V14.00,2013-10-10 15:23:00,
2013-10-10 11:24:00,59.4,0.0,30.28,NNE,18,5.2,5.2,0,0.00,,---,0.00,VWS V14.00,2013-10-10 15:24:00,
2013-10-10 11:25:00,59.5,0.0,30.28,NE,42,5.7,6.6,0,0.00,,---,0.00,VWS V14.00,2013-10-10 15:25:00,
2013-10-10 11:26:00,59.5,0.0,30.28,NE,39,5.2,6.6,0,0.00,,---,0.00,VWS V14.00,2013-10-10 15:26:00,
2013-10-10 11:27:00,59.8,0.0,30.28,ENE,76,5.3,6.6,0,0.00,,---,0.00,VWS V14.00,2013-10-10 15:27:00,
2013-10-10 11:28:00,60.0,0.0,30.28,NE,39,2.9,6.6,0,0.00,,---,0.00,VWS V14.00,2013-10-10 15:28:00,
2013-10-10 11:29:00,60.0,0.0,30.28,NE,42,6.3,6.6,0,0.00,,---,0.00,VWS V14.00,2013-10-10 15:29:00,
2013-10-10 11:30:00,60.0,0.0,30.28,ENE,65,5.7,7.1,0,0.00,,---,0.00,VWS V14.00,2013-10-10 15:30:00,
2013-10-10 11:31:00,59.9,0.0,30.28,NE,38,5.4,7.1,0,0.00,,---,0.00,VWS V14.00,2013-10-10 15:31:00,
2013-10-10 11:32:00,60.1,0.0,30.28,ENE,59,4.5,7.1,0,0.00,,---,0.00,VWS V14.00,2013-10-10 15:32:00,
2013-10-10 11:33:00,60.1,0.0,30.28,NE,52,4.3,7.1,0,0.00,,---,0.00,VWS V14.00,2013-10-10 15:33:00,
2013-10-10 11:34:00,60.2,0.0,30.28,NE,48,6.3,7.1,0,0.00,,---,0.00,VWS V14.00,2013-10-10 15:34:00,
2013-10-10 11:35:00,60.4,0.0,30.28,NE,52,6.4,7.1,0,0.00,,---,0.00,VWS V14.00,2013-10-10 15:35:00,
2013-10-10 11:36:00,60.3,0.0,30.28,NNE,17,3.4,7.6,0,0.00,,---,0.00,VWS V14.00,2013-10-10 15:36:00,
2013-10-10 11:37:00,60.3,0.0,30.28,North,359,4.2,7.6,0,0.00,,---,0.00,VWS V14.00,2013-10-10 15:37:00,
2013-10-10 11:38:00,60.3,0.0,30.28,NNE,31,5.4,7.6,0,0.00,,---,0.00,VWS V14.00,2013-10-10 15:38:00,
2013-10-10 11:39:00,60.4,0.0,30.28,NE,46,6.7,7.6,0,0.00,,---,0.00,VWS V14.00,2013-10-10 15:39:00,
2013-10-10 11:40:00,60.6,0.0,30.28,North,359,2.5,7.6,0,0.00,,---,0.00,VWS V14.00,2013-10-10 15:40:00,
2013-10-10 11:41:00,60.4,0.0,30.28,ENE,65,6.0,7.9,0,0.00,,---,0.00,VWS V14.00,2013-10-10 15:41:00,
2013-10-10 11:42:00,60.4,0.0,30.28,NE,45,4.9,7.9,0,0.00,,---,0.00,VWS V14.00,2013-10-10 15:42:00,
2013-10-10 11:43:00,60.4,0.0,30.27,North,359,2.9,7.9,0,0.00,,---,0.00,VWS V14.00,2013-10-10 15:43:00,
2013-10-10 11:44:00,60.3,0.0,30.27,NE,39,6.5,7.9,0,0.00,,---,0.00,VWS V14.00,2013-10-10 15:44:00,
2013-10-10 11:45:00,60.7,0.0,30.28,NNE,31,6.6,8.2,0,0.00,,---,0.00,VWS V14.00,2013-10-10 15:45:00,
2013-10-10 11:46:00,61.2,0.0,30.28,ENE,65,5.5,8.2,0,0.00,,---,0.00,VWS V14.00,2013-10-10 15:46:00,
2013-10-10 11:47:00,61.6,0.0,30.28,East,80,6.3,8.2,0,0.00,,---,0.00,VWS V14.00,2013-10-10 15:47:00,
2013-10-10 11:48:00,62.1,0.0,30.28,NNE,28,6.9,8.2,0,0.00,,---,0.00,VWS V14.00,2013-10-10 15:48:00,
2013-10-10 11:49:00,62.0,0.0,30.27,North,8,5.6,8.2,0,0.00,,---,0.00,VWS V14.00,2013-10-10 15:49:00,
2013-10-10 11:50:00,61.9,0.0,30.27,NE,56,5.3,8.6,0,0.00,,---,0.00,VWS V14.00,2013-10-10 15:50:00,
2013-10-10 11:51:00,61.6,0.0,30.27,NE,39,6.3,8.6,0,0.00,,---,0.00,VWS V14.00,2013-10-10 15:51:00,
2013-10-10 11:52:00,61.7,0.0,30.27,NE,42,8.3,8.6,0,0.00,,---,0.00,VWS V14.00,2013-10-10 15:52:00,
2013-10-10 11:53:00,62.0,0.0,30.27,NNE,25,3.0,8.6,0,0.00,,---,0.00,VWS V14.00,2013-10-10 15:53:00,
2013-10-10 11:54:00,62.2,0.0,30.27,NE,48,3.5,8.6,0,0.00,,---,0.00,VWS V14.00,2013-10-10 15:54:00,
2013-10-10 11:55:00,62.6,0.0,30.27,East,101,5.9,8.6,0,0.00,,---,0.00,VWS V14.00,2013-10-10 15:55:00,
2013-10-10 11:56:00,62.2,0.0,30.27,NE,39,6.7,8.6,0,0.00,,---,0.00,VWS V14.00,2013-10-10 15:56:00,
2013-10-10 11:57:00,62.1,0.0,30.27,ENE,77,3.2,8.6,0,0.00,,---,0.00,VWS V14.00,2013-10-10 15:57:00,
2013-10-10 11:58:00,61.8,0.0,30.27,East,87,5.5,8.6,0,0.00,,---,0.00,VWS V14.00,2013-10-10 15:58:00,
2013-10-10 11:59:00,61.5,0.0,30.27,ENE,70,3.4,8.6,0,0.00,,---,0.00,VWS V14.00,2013-10-10 15:59:00,
2013-10-10 12:00:00,61.5,0.0,30.27,East,100,5.3,7.6,0,0.00,,---,0.00,VWS V14.00,2013-10-10 16:00:00,
2013-10-10 12:01:00,61.4,0.0,30.27,ENE,66,5.0,7.6,0,0.00,,---,0.00,VWS V14.00,2013-10-10 16:01:00,
2013-10-10 12:02:00,61.4,0.0,30.27,NE,38,6.4,7.6,0,0.00,,---,0.00,VWS V14.00,2013-10-10 16:02:00,
2013-10-10 12:03:00,61.2,0.0,30.26,ENE,72,5.5,7.6,0,0.00,,---,0.00,VWS V14.00,2013-10-10 16:03:00,
2013-10-10 12:04:00,61.4,0.0,30.27,East,86,5.3,7.6,0,0.00,,---,0.00,VWS V14.00,2013-10-10 16:04:00,
2013-10-10 12:05:00,61.4,0.0,30.27,NE,42,5.4,8.6,0,0.00,,---,0.00,VWS V14.00,2013-10-10 16:05:00,
2013-10-10 12:06:00,61.4,0.0,30.27,ENE,69,4.5,8.6,0,0.00,,---,0.00,VWS V14.00,2013-10-10 16:06:00,
2013-10-10 12:07:00,61.6,0.0,30.27,East,93,5.3,8.6,0,0.00,,---,0.00,VWS V14.00,2013-10-10 16:07:00,
2013-10-10 12:08:00,61.5,0.0,30.27,East,80,5.0,8.6,0,0.00,,---,0.00,VWS V14.00,2013-10-10 16:08:00,
2013-10-10 12:09:00,61.5,0.0,30.26,ENE,58,6.0,8.6,0,0.00,,---,0.00,VWS V14.00,2013-10-10 16:09:00,
2013-10-10 12:10:00,61.5,0.0,30.26,ENE,77,6.2,8.1,0,0.00,,---,0.00,VWS V14.00,2013-10-10 16:10:00,
2013-10-10 12:11:00,61.4,0.0,30.26,NE,38,5.2,8.1,0,0.00,,---,0.00,VWS V14.00,2013-10-10 16:11:00,
2013-10-10 12:12:00,61.3,0.0,30.26,NNE,31,5.6,8.1,0,0.00,,---,0.00,VWS V14.00,2013-10-10 16:12:00,
2013-10-10 12:13:00,61.3,0.0,30.26,ENE,59,4.9,8.1,0,0.00,,---,0.00,VWS V14.00,2013-10-10 16:13:00,
2013-10-10 12:14:00,61.5,0.0,30.26,ENE,72,0.0,8.1,0,0.00,,---,0.00,VWS V14.00,2013-10-10 16:14:00,
2013-10-10 12:15:00,61.6,0.0,30.26,SE,139,2.4,6.8,0,0.00,,---,0.00,VWS V14.00,2013-10-10 16:15:00,
2013-10-10 12:16:00,61.9,0.0,30.26,NE,45,4.3,6.8,0,0.00,,---,0.00,VWS V14.00,2013-10-10 16:16:00,
2013-10-10 12:17:00,61.8,0.0,30.26,NE,46,7.2,7.2,0,0.00,,---,0.00,VWS V14.00,2013-10-10 16:17:00,
2013-10-10 12:18:00,61.5,0.0,30.26,East,82,5.1,6.8,0,0.00,,---,0.00,VWS V14.00,2013-10-10 16:18:00,
2013-10-10 12:19:00,61.6,0.0,30.26,NNE,31,0.0,6.8,0,0.00,,---,0.00,VWS V14.00,2013-10-10 16:19:00,
2013-10-10 12:20:00,61.7,0.0,30.26,SE,129,3.2,7.6,0,0.00,,---,0.00,VWS V14.00,2013-10-10 16:20:00,
2013-10-10 12:21:00,61.5,0.0,30.26,NE,46,5.2,7.6,0,0.00,,---,0.00,VWS V14.00,2013-10-10 16:21:00,
2013-10-10 12:22:00,61.4,0.0,30.26,NE,38,6.2,7.6,0,0.00,,---,0.00,VWS V14.00,2013-10-10 16:22:00,
2013-10-10 12:23:00,61.3,0.0,30.26,NNE,24,5.0,7.6,0,0.00,,---,0.00,VWS V14.00,2013-10-10 16:23:00,
2013-10-10 12:24:00,61.2,0.0,30.26,SE,134,2.5,7.6,0,0.00,,---,0.00,VWS V14.00,2013-10-10 16:24:00,
2013-10-10 12:25:00,61.5,0.0,30.26,NE,44,3.5,7.8,0,0.00,,---,0.00,VWS V14.00,2013-10-10 16:25:00,
2013-10-10 12:26:00,61.5,0.0,30.26,SE,124,4.8,7.8,0,0.00,,---,0.00,VWS V14.00,2013-10-10 16:26:00,
2013-10-10 12:27:00,61.0,0.0,30.26,North,3,2.8,7.8,0,0.00,,---,0.00,VWS V14.00,2013-10-10 16:27:00,
2013-10-10 12:28:00,60.9,0.0,30.26,ENE,75,4.5,7.8,0,0.00,,---,0.00,VWS V14.00,2013-10-10 16:28:00,
2013-10-10 12:29:00,60.9,0.0,30.26,NE,53,3.5,7.8,0,0.00,,---,0.00,VWS V14.00,2013-10-10 16:29:00,
2013-10-10 12:30:00,60.9,0.0,30.26,East,87,3.4,7.1,0,0.00,,---,0.00,VWS V14.00,2013-10-10 16:30:00,
2013-10-10 12:31:00,61.1,0.0,30.26,ENE,75,0.0,7.1,0,0.00,,---,0.00,VWS V14.00,2013-10-10 16:31:00,
2013-10-10 12:32:00,61.0,0.0,30.26,East,82,0.0,7.1,0,0.00,,---,0.00,VWS V14.00,2013-10-10 16:32:00,
2013-10-10 12:33:00,61.2,0.0,30.26,ESE,115,5.0,7.1,0,0.00,,---,0.00,VWS V14.00,2013-10-10 16:33:00,
2013-10-10 12:34:00,61.1,0.0,30.26,ESE,107,0.0,7.1,0,0.00,,---,0.00,VWS V14.00,2013-10-10 16:34:00,
2013-10-10 12:35:00,61.2,0.0,30.26,ENE,72,0.0,6.2,0,0.00,,---,0.00,VWS V14.00,2013-10-10 16:35:00,
2013-10-10 12:36:00,61.2,0.0,30.26,NNE,13,5.3,6.2,0,0.00,,---,0.00,VWS V14.00,2013-10-10 16:36:00,
2013-10-10 12:37:00,61.4,0.0,30.26,ENE,75,5.4,6.2,0,0.00,,---,0.00,VWS V14.00,2013-10-10 16:37:00,
2013-10-10 12:38:00,61.1,0.0,30.26,NNE,15,3.4,6.2,0,0.00,,---,0.00,VWS V14.00,2013-10-10 16:38:00,
2013-10-10 12:39:00,61.0,0.0,30.26,NE,48,5.2,6.2,0,0.00,,---,0.00,VWS V14.00,2013-10-10 16:39:00,
2013-10-10 12:40:00,61.0,0.0,30.26,NNE,28,5.2,6.2,0,0.00,,---,0.00,VWS V14.00,2013-10-10 16:40:00,
2013-10-10 12:41:00,61.0,0.0,30.25,East,91,4.8,6.6,0,0.00,,---,0.00,VWS V14.00,2013-10-10 16:41:00,
2013-10-10 12:42:00,61.2,0.0,30.25,NE,45,4.5,6.6,0,0.00,,---,0.00,VWS V14.00,2013-10-10 16:42:00,
2013-10-10 12:43:00,61.1,0.0,30.25,East,82,3.3,6.6,0,0.00,,---,0.00,VWS V14.00,2013-10-10 16:43:00,
2013-10-10 12:44:00,61.2,0.0,30.25,North,353,3.0,6.6,0,0.00,,---,0.00,VWS V14.00,2013-10-10 16:44:00,
2013-10-10 12:45:00,61.2,0.0,30.25,NE,45,6.9,6.9,0,0.00,,---,0.00,VWS V14.00,2013-10-10 16:45:00,
2013-10-10 12:46:00,60.8,0.0,30.25,ENE,72,4.5,6.9,0,0.00,,---,0.00,VWS V14.00,2013-10-10 16:46:00,
2013-10-10 12:47:00,60.7,0.0,30.25,NNE,30,2.1,6.9,0,0.00,,---,0.00,VWS V14.00,2013-10-10 16:47:00,
2013-10-10 12:48:00,60.8,0.0,30.25,ENE,70,4.3,6.9,0,0.00,,---,0.00,VWS V14.00,2013-10-10 16:48:00,
2013-10-10 12:49:00,60.7,0.0,30.25,ENE,62,1.4,6.9,0,0.00,,---,0.00,VWS V14.00,2013-10-10 16:49:00,
2013-10-10 12:50:00,60.7,0.0,30.25,East,89,3.4,6.0,0,0.00,,---,0.00,VWS V14.00,2013-10-10 16:50:00,
2013-10-10 12:51:00,60.8,0.0,30.25,ENE,70,4.2,6.0,0,0.00,,---,0.00,VWS V14.00,2013-10-10 16:51:00,
2013-10-10 12:52:00,61.2,0.0,30.25,NE,38,0.0,6.0,0,0.00,,---,0.00,VWS V14.00,2013-10-10 16:52:00,
2013-10-10 12:53:00,60.9,0.0,30.25,East,91,3.3,6.0,0,0.00,,---,0.00,VWS V14.00,2013-10-10 16:53:00,
2013-10-10 12:54:00,60.8,0.0,30.25,ESE,105,4.7,6.0,0,0.00,,---,0.00,VWS V14.00,2013-10-10 16:54:00,
2013-10-10 12:55:00,60.8,0.0,30.25,East,84,3.5,5.5,0,0.00,,---,0.00,VWS V14.00,2013-10-10 16:55:00,
2013-10-10 12:56:00,60.6,0.0,30.25,ENE,70,0.0,5.5,0,0.00,,---,0.00,VWS V14.00,2013-10-10 16:56:00,
2013-10-10 12:57:00,60.7,0.0,30.25,ENE,70,2.2,5.5,0,0.00,,---,0.00,VWS V14.00,2013-10-10 16:57:00,
2013-10-10 12:58:00,60.5,0.0,30.25,ESE,111,5.4,5.5,0,0.00,,---,0.00,VWS V14.00,2013-10-10 16:58:00,
2013-10-10 12:59:00,60.1,0.0,30.25,ENE,75,4.5,5.5,0,0.00,,---,0.00,VWS V14.00,2013-10-10 16:59:00,
2013-10-10 13:00:00,60.2,0.0,30.25,NE,51,0.0,5.4,0,0.00,,---,0.00,VWS V14.00,2013-10-10 17:00:00,
2013-10-10 13:01:00,60.6,0.0,30.25,NE,48,0.0,5.4,0,0.00,,---,0.00,VWS V14.00,2013-10-10 17:01:00,
2013-10-10 13:02:00,60.8,0.0,30.25,East,86,2.9,5.4,0,0.00,,---,0.00,VWS V14.00,2013-10-10 17:02:00,
2013-10-10 13:03:00,60.7,0.0,30.25,ESE,110,4.3,5.4,0,0.00,,---,0.00,VWS V14.00,2013-10-10 17:03:00,
2013-10-10 13:04:00,60.7,0.0,30.25,ESE,115,0.0,5.4,0,0.00,,---,0.00,VWS V14.00,2013-10-10 17:04:00,
2013-10-10 13:05:00,60.7,0.0,30.25,ESE,111,4.3,6.1,0,0.00,,---,0.00,VWS V14.00,2013-10-10 17:05:00,
2013-10-10 13:06:00,60.6,0.0,30.25,NE,51,0.0,6.1,0,0.00,,---,0.00,VWS V14.00,2013-10-10 17:06:00,
2013-10-10 13:07:00,60.4,0.0,30.25,ENE,68,4.5,6.1,0,0.00,,---,0.00,VWS V14.00,2013-10-10 17:07:00,
2013-10-10 13:08:00,60.3,0.0,30.25,ESE,115,3.3,6.1,0,0.00,,---,0.00,VWS V14.00,2013-10-10 17:08:00,
2013-10-10 13:09:00,60.2,0.0,30.25,ENE,76,0.0,6.1,0,0.00,,---,0.00,VWS V14.00,2013-10-10 17:09:00,
2013-10-10 13:10:00,60.1,0.0,30.25,NE,35,4.3,6.4,0,0.00,,---,0.00,VWS V14.00,2013-10-10 17:10:00,
2013-10-10 13:11:00,60.2,0.0,30.25,East,93,0.0,6.4,0,0.00,,---,0.00,VWS V14.00,2013-10-10 17:11:00,
2013-10-10 13:12:00,60.1,0.0,30.25,East,93,3.4,6.4,0,0.00,,---,0.00,VWS V14.00,2013-10-10 17:12:00,
2013-10-10 13:13:00,60.2,0.0,30.25,East,84,0.0,6.4,0,0.00,,---,0.00,VWS V14.00,2013-10-10 17:13:00,
2013-10-10 13:14:00,60.0,0.0,30.25,ENE,72,2.6,6.4,0,0.00,,---,0.00,VWS V14.00,2013-10-10 17:14:00,
2013-10-10 13:15:00,59.2,0.0,30.25,East,98,3.3,6.1,0,0.00,,---,0.00,VWS V14.00,2013-10-10 17:15:00,
2013-10-10 13:16:00,59.1,0.0,30.25,ESE,121,3.3,6.1,0,0.00,,---,0.00,VWS V14.00,2013-10-10 17:16:00,
2013-10-10 13:17:00,59.4,0.0,30.25,East,93,7.1,7.1,0,0.00,,---,0.00,VWS V14.00,2013-10-10 17:17:00,
2013-10-10 13:18:00,58.8,0.0,30.25,ESE,117,2.4,6.1,0,0.00,,---,0.00,VWS V14.00,2013-10-10 17:18:00,
2013-10-10 13:19:00,58.5,0.0,30.25,ENE,70,4.2,6.1,0,0.00,,---,0.00,VWS V14.00,2013-10-10 17:19:00,
2013-10-10 13:20:00,58.2,0.0,30.25,ENE,60,3.0,7.8,0,0.00,,---,0.00,VWS V14.00,2013-10-10 17:20:00,
2013-10-10 13:21:00,58.2,0.0,30.25,ESE,114,4.7,7.8,0,0.00,,---,0.00,VWS V14.00,2013-10-10 17:21:00,
2013-10-10 13:22:00,58.1,0.0,30.25,SE,134,4.3,7.8,0,0.00,,---,0.00,VWS V14.00,2013-10-10 17:22:00,
2013-10-10 13:23:00,58.1,0.0,30.25,ESE,114,6.1,7.8,0,0.00,,---,0.00,VWS V14.00,2013-10-10 17:23:00,
2013-10-10 13:24:00,58.0,0.0,30.25,East,87,6.6,7.8,0,0.00,,---,0.00,VWS V14.00,2013-10-10 17:24:00,
2013-10-10 13:25:00,58.2,0.0,30.24,ESE,108,4.2,7.6,0,0.00,,---,0.00,VWS V14.00,2013-10-10 17:25:00,
2013-10-10 13:26:00,58.0,0.0,30.24,ENE,66,3.4,7.6,0,0.00,,---,0.00,VWS V14.00,2013-10-10 17:26:00,
2013-10-10 13:27:00,58.0,0.0,30.24,SE,142,2.7,7.6,0,0.00,,---,0.00,VWS V14.00,2013-10-10 17:27:00,
2013-10-10 13:28:00,58.2,0.0,30.24,ESE,104,3.2,7.6,0,0.00,,---,0.00,VWS V14.00,2013-10-10 17:28:00,
2013-10-10 13:29:00,58.7,0.0,30.24,East,82,0.0,7.6,0,0.00,,---,0.00,VWS V14.00,2013-10-10 17:29:00,
2013-10-10 13:30:00,59.0,0.0,30.24,East,79,5.5,6.9,0,0.00,,---,0.00,VWS V14.00,2013-10-10 17:30:00,
2013-10-10 13:31:00,59.0,0.0,30.24,ENE,58,3.5,6.9,0,0.00,,---,0.00,VWS V14.00,2013-10-10 17:31:00,
2013-10-10 13:32:00,59.1,0.0,30.24,ENE,77,4.7,6.9,0,0.00,,---,0.00,VWS V14.00,2013-10-10 17:32:00,
2013-10-10 13:33:00,59.3,0.0,30.24,SE,128,3.4,6.9,0,0.00,,---,0.00,VWS V14.00,2013-10-10 17:33:00,
2013-10-10 13:34:00,59.3,0.0,30.24,ESE,121,4.5,6.9,0,0.00,,---,0.00,VWS V14.00,2013-10-10 17:34:00,
2013-10-10 13:35:00,59.2,0.0,30.24,ENE,62,2.9,7.6,0,0.00,,---,0.00,VWS V14.00,2013-10-10 17:35:00,
2013-10-10 13:36:00,59.2,0.0,30.24,ESE,104,0.0,7.6,0,0.00,,---,0.00,VWS V14.00,2013-10-10 17:36:00,
2013-10-10 13:37:00,59.2,0.0,30.24,ENE,68,3.2,7.6,0,0.00,,---,0.00,VWS V14.00,2013-10-10 17:37:00,
2013-10-10 13:38:00,59.2,0.0,30.24,NNE,30,0.0,7.6,0,0.00,,---,0.00,VWS V14.00,2013-10-10 17:38:00,
2013-10-10 13:39:00,59.3,0.0,30.24,NNE,30,0.0,7.6,0,0.00,,---,0.00,VWS V14.00,2013-10-10 17:39:00,
2013-10-10 13:40:00,59.2,0.0,30.24,East,80,6.8,7.6,0,0.00,,---,0.00,VWS V14.00,2013-10-10 17:40:00,
2013-10-10 13:41:00,59.2,0.0,30.24,SE,125,4.3,8.1,0,0.00,,---,0.00,VWS V14.00,2013-10-10 17:41:00,
2013-10-10 13:42:00,59.3,0.0,30.24,SE,125,2.9,8.1,0,0.00,,---,0.00,VWS V14.00,2013-10-10 17:42:00,
2013-10-10 13:43:00,59.1,0.0,30.24,ENE,76,5.9,8.1,0,0.00,,---,0.00,VWS V14.00,2013-10-10 17:43:00,
2013-10-10 13:44:00,58.7,0.0,30.24,ESE,120,3.4,8.1,0,0.00,,---,0.00,VWS V14.00,2013-10-10 17:44:00,
2013-10-10 13:45:00,58.8,0.0,30.24,NE,41,0.0,8.1,0,0.00,,---,0.00,VWS V14.00,2013-10-10 17:45:00,
2013-10-10 13:46:00,58.8,0.0,30.24,NE,41,0.0,7.5,0,0.00,,---,0.00,VWS V14.00,2013-10-10 17:46:00,
2013-10-10 13:47:00,58.8,0.0,30.24,SE,124,5.7,7.5,0,0.00,,---,0.00,VWS V14.00,2013-10-10 17:47:00,
2013-10-10 13:48:00,58.6,0.0,30.24,East,87,7.0,7.5,0,0.00,,---,0.00,VWS V14.00,2013-10-10 17:48:00,
2013-10-10 13:49:00,58.8,0.0,30.24,East,84,6.1,7.5,0,0.00,,---,0.00,VWS V14.00,2013-10-10 17:49:00,
2013-10-10 13:50:00,58.5,0.0,30.24,East,86,2.7,7.0,0,0.00,,---,0.00,VWS V14.00,2013-10-10 17:50:00,
2013-10-10 13:51:00,58.5,0.0,30.24,East,91,2.8,7.0,0,0.00,,---,0.00,VWS V14.00,2013-10-10 17:51:00,
2013-10-10 13:52:00,58.3,0.0,30.24,East,87,3.4,7.0,0,0.00,,---,0.00,VWS V14.00,2013-10-10 17:52:00,
2013-10-10 13:53:00,58.3,0.0,30.24,East,93,4.8,7.0,0,0.00,,---,0.00,VWS V14.00,2013-10-10 17:53:00,
2013-10-10 13:54:00,58.1,0.0,30.24,East,83,6.6,7.0,0,0.00,,---,0.00,VWS V14.00,2013-10-10 17:54:00,
2013-10-10 13:55:00,58.0,0.0,30.24,East,98,0.0,8.3,0,0.00,,---,0.00,VWS V14.00,2013-10-10 17:55:00,
2013-10-10 13:56:00,58.2,0.0,30.24,ESE,118,4.2,8.3,0,0.00,,---,0.00,VWS V14.00,2013-10-10 17:56:00,
2013-10-10 13:57:00,58.5,0.0,30.25,East,91,3.0,8.3,0,0.00,,---,0.00,VWS V14.00,2013-10-10 17:57:00,
2013-10-10 13:58:00,58.8,0.0,30.25,East,91,0.0,8.3,0,0.00,,---,0.00,VWS V14.00,2013-10-10 17:58:00,
2013-10-10 13:59:00,58.9,0.0,30.25,East,96,3.5,8.3,0,0.00,,---,0.00,VWS V14.00,2013-10-10 17:59:00,
2013-10-10 14:00:00,58.9,0.0,30.25,East,101,4.3,6.8,0,0.00,,---,0.00,VWS V14.00,2013-10-10 18:00:00,
2013-10-10 14:01:00,58.5,0.0,30.25,East,79,4.7,6.8,0,0.00,,---,0.00,VWS V14.00,2013-10-10 18:01:00,
2013-10-10 14:02:00,58.5,0.0,30.25,ESE,107,4.4,6.8,0,0.00,,---,0.00,VWS V14.00,2013-10-10 18:02:00,
2013-10-10 14:03:00,58.7,0.0,30.25,East,96,0.0,6.8,0,0.00,,---,0.00,VWS V14.00,2013-10-10 18:03:00,
2013-10-10 14:04:00,58.7,0.0,30.25,East,94,5.8,6.8,0,0.00,,---,0.00,VWS V14.00,2013-10-10 18:04:00,
2013-10-10 14:05:00,58.8,0.0,30.25,ESE,114,0.0,7.0,0,0.00,,---,0.00,VWS V14.00,2013-10-10 18:05:00,
2013-10-10 14:06:00,58.9,0.0,30.25,East,96,0.0,7.0,0,0.00,,---,0.00,VWS V14.00,2013-10-10 18:06:00,
2013-10-10 14:07:00,58.4,0.0,30.25,East,87,3.2,7.0,0,0.00,,---,0.00,VWS V14.00,2013-10-10 18:07:00,
2013-10-10 14:08:00,58.1,0.0,30.25,ESE,115,4.8,7.0,0,0.00,,---,0.00,VWS V14.00,2013-10-10 18:08:00,
2013-10-10 14:09:00,58.0,0.0,30.25,ENE,68,2.0,7.0,0,0.00,,---,0.00,VWS V14.00,2013-10-10 18:09:00,
2013-10-10 14:10:00,58.1,0.0,30.25,ENE,62,2.7,6.2,0,0.00,,---,0.00,VWS V14.00,2013-10-10 18:10:00,
2013-10-10 14:11:00,58.4,0.0,30.25,East,91,0.0,6.2,0,0.00,,---,0.00,VWS V14.00,2013-10-10 18:11:00,
2013-10-10 14:12:00,58.9,0.0,30.25,ENE,73,2.9,6.2,0,0.00,,---,0.00,VWS V14.00,2013-10-10 18:12:00,
2013-10-10 14:13:00,59.1,0.0,30.25,ENE,63,3.3,6.2,0,0.00,,---,0.00,VWS V14.00,2013-10-10 18:13:00,
2013-10-10 14:14:00,59.3,0.0,30.25,East,84,0.0,6.2,0,0.00,,---,0.00,VWS V14.00,2013-10-10 18:14:00,
2013-10-10 14:15:00,59.3,0.0,30.25,East,84,0.0,4.5,0,0.00,,---,0.00,VWS V14.00,2013-10-10 18:15:00,
2013-10-10 14:16:00,59.4,0.0,30.25,ESE,104,2.5,4.5,0,0.00,,---,0.00,VWS V14.00,2013-10-10 18:16:00,
2013-10-10 14:17:00,59.4,0.0,30.25,ESE,104,0.0,4.5,0,0.00,,---,0.00,VWS V14.00,2013-10-10 18:17:00,
2013-10-10 14:18:00,59.3,0.0,30.24,East,89,0.0,4.5,0,0.00,,---,0.00,VWS V14.00,2013-10-10 18:18:00,
2013-10-10 14:19:00,59.1,0.0,30.24,East,89,0.0,4.5,0,0.00,,---,0.00,VWS V14.00,2013-10-10 18:19:00,
2013-10-10 14:20:00,59.2,0.0,30.24,East,89,0.0,5.0,0,0.00,,---,0.00,VWS V14.00,2013-10-10 18:20:00,
2013-10-10 14:21:00,59.2,0.0,30.24,East,89,0.0,5.0,0,0.00,,---,0.00,VWS V14.00,2013-10-10 18:21:00,
2013-10-10 14:22:00,59.2,0.0,30.24,East,89,0.0,5.0,0,0.00,,---,0.00,VWS V14.00,2013-10-10 18:22:00,
2013-10-10 14:23:00,59.3,0.0,30.24,East,89,0.0,5.0,0,0.00,,---,0.00,VWS V14.00,2013-10-10 18:23:00,
2013-10-10 14:24:00,59.3,0.0,30.24,East,89,0.0,5.0,0,0.00,,---,0.00,VWS V14.00,2013-10-10 18:24:00,
2013-10-10 14:25:00,59.3,0.0,30.24,East,89,0.0,0.0,0,0.00,,---,0.00,VWS V14.00,2013-10-10 18:25:00,
2013-10-10 14:26:00,59.2,0.0,30.24,East,91,3.1,0.0,0,0.00,,---,0.00,VWS V14.00,2013-10-10 18:26:00,
2013-10-10 14:27:00,59.2,0.0,30.23,NNE,15,4.3,0.0,0,0.00,,---,0.00,VWS V14.00,2013-10-10 18:27:00,
2013-10-10 14:28:00,59.3,0.0,30.23,ENE,58,2.7,0.0,0,0.00,,---,0.00,VWS V14.00,2013-10-10 18:28:00,
2013-10-10 14:29:00,59.3,0.0,30.23,ENE,58,0.0,0.0,0,0.00,,---,0.00,VWS V14.00,2013-10-10 18:29:00,
2013-10-10 14:30:00,59.2,0.0,30.23,ESE,118,2.4,6.1,0,0.00,,---,0.00,VWS V14.00,2013-10-10 18:30:00,
2013-10-10 14:31:00,59.1,0.0,30.23,East,96,0.0,6.1,0,0.00,,---,0.00,VWS V14.00,2013-10-10 18:31:00,
2013-10-10 14:32:00,59.1,0.0,30.23,East,96,0.0,6.1,0,0.00,,---,0.00,VWS V14.00,2013-10-10 18:32:00,
2013-10-10 14:33:00,59.1,0.0,30.23,ENE,62,3.4,6.1,0,0.00,,---,0.00,VWS V14.00,2013-10-10 18:33:00,
2013-10-10 14:34:00,59.0,0.0,30.23,NE,46,5.4,6.1,0,0.00,,---,0.00,VWS V14.00,2013-10-10 18:34:00,
2013-10-10 14:35:00,58.7,0.0,30.23,NE,56,4.3,6.1,0,0.00,,---,0.00,VWS V14.00,2013-10-10 18:35:00,
2013-10-10 14:36:00,58.5,0.0,30.23,ENE,66,3.4,6.1,0,0.00,,---,0.00,VWS V14.00,2013-10-10 18:36:00,
2013-10-10 14:37:00,58.7,0.0,30.23,ENE,77,0.0,6.1,0,0.00,,---,0.00,VWS V14.00,2013-10-10 18:37:00,
2013-10-10 14:38:00,58.7,0.0,30.23,NE,49,6.4,6.4,0,0.00,,---,0.00,VWS V14.00,2013-10-10 18:38:00,
2013-10-10 14:39:00,58.6,0.0,30.23,NNE,24,5.5,6.1,0,0.00,,---,0.00,VWS V14.00,2013-10-10 18:39:00,
2013-10-10 14:40:00,58.6,0.0,30.23,NE,49,3.3,7.1,0,0.00,,---,0.00,VWS V14.00,2013-10-10 18:40:00,
2013-10-10 14:41:00,58.7,0.0,30.23,ENE,58,5.7,7.1,0,0.00,,---,0.00,VWS V14.00,2013-10-10 18:41:00,
2013-10-10 14:42:00,58.6,0.0,30.23,ENE,70,3.1,7.1,0,0.00,,---,0.00,VWS V14.00,2013-10-10 18:42:00,
2013-10-10 14:43:00,58.7,0.0,30.23,ENE,70,0.0,7.1,0,0.00,,---,0.00,VWS V14.00,2013-10-10 18:43:00,
2013-10-10 14:44:00,58.8,0.0,30.23,ENE,69,0.0,7.1,0,0.00,,---,0.00,VWS V14.00,2013-10-10 18:44:00,
2013-10-10 14:45:00,59.0,0.0,30.23,NNE,18,3.1,7.1,0,0.00,,---,0.00,VWS V14.00,2013-10-10 18:45:00,
2013-10-10 14:46:00,58.9,0.0,30.23,East,82,2.7,6.8,0,0.00,,---,0.00,VWS V14.00,2013-10-10 18:46:00,
2013-10-10 14:47:00,58.8,0.0,30.23,East,97,6.2,6.8,0,0.00,,---,0.00,VWS V14.00,2013-10-10 18:47:00,
2013-10-10 14:48:00,58.7,0.0,30.23,ENE,72,3.5,6.8,0,0.00,,---,0.00,VWS V14.00,2013-10-10 18:48:00,
2013-10-10 14:49:00,58.7,0.0,30.23,NE,46,3.4,6.8,0,0.00,,---,0.00,VWS V14.00,2013-10-10 18:49:00,
2013-10-10 14:50:00,58.7,0.0,30.23,East,100,0.0,6.8,0,0.00,,---,0.00,VWS V14.00,2013-10-10 18:50:00,
2013-10-10 14:51:00,58.7,0.0,30.23,NNE,32,5.3,6.2,0,0.00,,---,0.00,VWS V14.00,2013-10-10 18:51:00,
2013-10-10 14:52:00,58.7,0.0,30.23,ENE,77,2.9,6.2,0,0.00,,---,0.00,VWS V14.00,2013-10-10 18:52:00,
2013-10-10 14:53:00,58.6,0.0,30.23,ESE,103,3.0,6.2,0,0.00,,---,0.00,VWS V14.00,2013-10-10 18:53:00,
2013-10-10 14:54:00,58.6,0.0,30.23,ESE,103,0.0,6.2,0,0.00,,---,0.00,VWS V14.00,2013-10-10 18:54:00,
2013-10-10 14:55:00,58.7,0.0,30.23,ESE,103,0.0,5.6,0,0.00,,---,0.00,VWS V14.00,2013-10-10 18:55:00,
2013-10-10 14:56:00,58.7,0.0,30.23,ENE,77,5.3,5.6,0,0.00,,---,0.00,VWS V14.00,2013-10-10 18:56:00,
2013-10-10 14:57:00,58.7,0.0,30.23,ESE,111,4.3,5.6,0,0.00,,---,0.00,VWS V14.00,2013-10-10 18:57:00,
2013-10-10 14:58:00,58.5,0.0,30.22,ENE,69,0.0,5.6,0,0.00,,---,0.00,VWS V14.00,2013-10-10 18:58:00,
2013-10-10 14:59:00,58.6,0.0,30.23,NNE,24,0.0,5.6,0,0.00,,---,0.00,VWS V14.00,2013-10-10 18:59:00,
2013-10-10 15:00:00,58.7,0.0,30.23,NE,35,4.4,6.6,0,0.00,,---,0.00,VWS V14.00,2013-10-10 19:00:00,
2013-10-10 15:01:00,58.7,0.0,30.23,ENE,65,3.2,6.6,0,0.00,,---,0.00,VWS V14.00,2013-10-10 19:01:00,
2013-10-10 15:02:00,58.7,0.0,30.23,East,87,3.4,6.6,0,0.00,,---,0.00,VWS V14.00,2013-10-10 19:02:00,
2013-10-10 15:03:00,58.6,0.0,30.23,NE,49,5.7,6.6,0,0.00,,---,0.00,VWS V14.00,2013-10-10 19:03:00,
2013-10-10 15:04:00,58.6,0.0,30.23,NE,55,3.0,6.6,0,0.00,,---,0.00,VWS V14.00,2013-10-10 19:04:00,
2013-10-10 15:05:00,58.6,0.0,30.23,North,359,5.8,7.8,0,0.00,,---,0.00,VWS V14.00,2013-10-10 19:05:00,
2013-10-10 15:06:00,58.4,0.0,30.23,NE,48,5.3,7.8,0,0.00,,---,0.00,VWS V14.00,2013-10-10 19:06:00,
2013-10-10 15:07:00,58.3,0.0,30.22,ENE,58,7.4,7.8,0,0.00,,---,0.00,VWS V14.00,2013-10-10 19:07:00,
2013-10-10 15:08:00,58.4,0.0,30.22,ENE,63,4.8,7.8,0,0.00,,---,0.00,VWS V14.00,2013-10-10 19:08:00,
2013-10-10 15:09:00,58.5,0.0,30.22,NE,35,4.3,7.8,0,0.00,,---,0.00,VWS V14.00,2013-10-10 19:09:00,
2013-10-10 15:10:00,58.4,0.0,30.22,NNE,32,3.5,8.5,0,0.00,,---,0.00,VWS V14.00,2013-10-10 19:10:00,
2013-10-10 15:11:00,58.4,0.0,30.22,NE,38,4.9,8.5,0,0.00,,---,0.00,VWS V14.00,2013-10-10 19:11:00,
2013-10-10 15:12:00,58.3,0.0,30.23,ESE,117,5.0,8.5,0,0.00,,---,0.00,VWS V14.00,2013-10-10 19:12:00,
2013-10-10 15:13:00,58.3,0.0,30.22,NE,52,4.8,8.5,0,0.00,,---,0.00,VWS V14.00,2013-10-10 19:13:00,
2013-10-10 15:14:00,58.3,0.0,30.22,NE,55,3.3,8.5,0,0.00,,---,0.00,VWS V14.00,2013-10-10 19:14:00,
2013-10-10 15:15:00,58.2,0.0,30.22,ENE,59,3.4,7.3,0,0.00,,---,0.00,VWS V14.00,2013-10-10 19:15:00,
2013-10-10 15:16:00,58.2,0.0,30.22,ESE,110,4.4,7.3,0,0.00,,---,0.00,VWS V14.00,2013-10-10 19:16:00,
2013-10-10 15:17:00,58.2,0.0,30.22,NE,51,4.2,7.3,0,0.00,,---,0.00,VWS V14.00,2013-10-10 19:17:00,
2013-10-10 15:18:00,58.1,0.0,30.22,East,79,5.3,7.3,0,0.00,,---,0.00,VWS V14.00,2013-10-10 19:18:00,
2013-10-10 15:19:00,58.2,0.0,30.22,NNE,31,5.5,7.3,0,0.00,,---,0.00,VWS V14.00,2013-10-10 19:19:00,
2013-10-10 15:20:00,58.2,0.0,30.22,ENE,69,6.2,7.3,0,0.00,,---,0.00,VWS V14.00,2013-10-10 19:20:00,
2013-10-10 15:21:00,58.2,0.0,30.22,East,100,3.2,7.3,0,0.00,,---,0.00,VWS V14.00,2013-10-10 19:21:00,
2013-10-10 15:22:00,58.1,0.0,30.22,NE,52,0.0,7.3,0,0.00,,---,0.00,VWS V14.00,2013-10-10 19:22:00,
2013-10-10 15:23:00,58.1,0.0,30.22,NE,52,0.0,7.3,0,0.00,,---,0.00,VWS V14.00,2013-10-10 19:23:00,
2013-10-10 15:24:00,58.1,0.0,30.22,ENE,58,3.2,7.3,0,0.00,,---,0.00,VWS V14.00,2013-10-10 19:24:00,
2013-10-10 15:25:00,58.1,0.0,30.22,East,94,4.6,6.5,0,0.00,,---,0.00,VWS V14.00,2013-10-10 19:25:00,
2013-10-10 15:26:00,58.1,0.0,30.22,NE,52,2.9,6.5,0,0.00,,---,0.00,VWS V14.00,2013-10-10 19:26:00,
2013-10-10 15:27:00,58.1,0.0,30.22,NE,52,0.0,6.5,0,0.00,,---,0.00,VWS V14.00,2013-10-10 19:27:00,
2013-10-10 15:28:00,58.2,0.0,30.22,NE,52,0.0,6.5,0,0.00,,---,0.00,VWS V14.00,2013-10-10 19:28:00,
2013-10-10 15:29:00,58.3,0.0,30.22,NE,52,0.0,6.5,0,0.00,,---,0.00,VWS V14.00,2013-10-10 19:29:00,
2013-10-10 15:30:00,58.2,0.0,30.22,NE,52,0.0,5.2,0,0.00,,---,0.00,VWS V14.00,2013-10-10 19:30:00,
2013-10-10 15:31:00,58.1,0.0,30.22,NE,52,0.0,5.2,0,0.00,,---,0.00,VWS V14.00,2013-10-10 19:31:00,
2013-10-10 15:32:00,58.2,0.0,30.22,NE,52,0.0,5.2,0,0.00,,---,0.00,VWS V14.00,2013-10-10 19:32:00,
2013-10-10 15:33:00,58.2,0.0,30.22,NE,52,0.0,5.2,0,0.00,,---,0.00,VWS V14.00,2013-10-10 19:33:00,
2013-10-10 15:34:00,58.1,0.0,30.22,East,94,3.3,5.2,0,0.00,,---,0.00,VWS V14.00,2013-10-10 19:34:00,
2013-10-10 15:35:00,57.9,0.0,30.21,NE,52,3.5,5.2,0,0.00,,---,0.00,VWS V14.00,2013-10-10 19:35:00,
2013-10-10 15:36:00,57.9,0.0,30.22,NE,35,5.1,5.2,0,0.00,,---,0.00,VWS V14.00,2013-10-10 19:36:00,
2013-10-10 15:37:00,57.9,0.0,30.22,SE,143,3.4,5.2,0,0.00,,---,0.00,VWS V14.00,2013-10-10 19:37:00,
2013-10-10 15:38:00,57.9,0.0,30.22,ENE,66,0.0,5.2,0,0.00,,---,0.00,VWS V14.00,2013-10-10 19:38:00,
2013-10-10 15:39:00,57.9,0.0,30.22,NE,49,4.3,5.2,0,0.00,,---,0.00,VWS V14.00,2013-10-10 19:39:00,
2013-10-10 15:40:00,57.8,0.0,30.22,ENE,66,0.0,6.5,0,0.00,,---,0.00,VWS V14.00,2013-10-10 19:40:00,
2013-10-10 15:41:00,57.8,0.0,30.21,ENE,66,0.0,6.5,0,0.00,,---,0.00,VWS V14.00,2013-10-10 19:41:00,
2013-10-10 15:42:00,57.8,0.0,30.22,ENE,66,0.0,6.5,0,0.00,,---,0.00,VWS V14.00,2013-10-10 19:42:00,
2013-10-10 15:43:00,57.8,0.0,30.22,ENE,66,0.0,6.5,0,0.00,,---,0.00,VWS V14.00,2013-10-10 19:43:00,
2013-10-10 15:44:00,57.8,0.0,30.22,ENE,66,0.0,6.5,0,0.00,,---,0.00,VWS V14.00,2013-10-10 19:44:00,
2013-10-10 15:45:00,57.9,0.0,30.22,NE,51,0.0,4.3,0,0.00,,---,0.00,VWS V14.00,2013-10-10 19:45:00,
2013-10-10 15:46:00,57.8,0.0,30.22,NE,51,0.0,4.3,0,0.00,,---,0.00,VWS V14.00,2013-10-10 19:46:00,
2013-10-10 15:47:00,57.8,0.0,30.22,ENE,75,0.0,4.3,0,0.00,,---,0.00,VWS V14.00,2013-10-10 19:47:00,
2013-10-10 15:48:00,57.7,0.0,30.22,NNE,17,3.3,4.3,0,0.00,,---,0.00,VWS V14.00,2013-10-10 19:48:00,
2013-10-10 15:49:00,57.7,0.0,30.21,East,79,2.9,4.3,0,0.00,,---,0.00,VWS V14.00,2013-10-10 19:49:00,
2013-10-10 15:50:00,57.7,0.0,30.21,East,79,0.0,4.3,0,0.00,,---,0.00,VWS V14.00,2013-10-10 19:50:00,
2013-10-10 15:51:00,57.7,0.0,30.21,NE,53,0.0,4.5,0,0.00,,---,0.00,VWS V14.00,2013-10-10 19:51:00,
2013-10-10 15:52:00,57.7,0.0,30.21,East,79,0.0,4.5,0,0.00,,---,0.00,VWS V14.00,2013-10-10 19:52:00,
2013-10-10 15:53:00,57.6,0.0,30.21,East,79,0.0,4.5,0,0.00,,---,0.00,VWS V14.00,2013-10-10 19:53:00,
2013-10-10 15:54:00,57.5,0.0,30.22,East,79,0.0,4.5,0,0.00,,---,0.00,VWS V14.00,2013-10-10 19:54:00,
2013-10-10 15:55:00,57.4,0.0,30.22,SE,131,0.0,5.9,0,0.00,,---,0.00,VWS V14.00,2013-10-10 19:55:00,
2013-10-10 15:56:00,57.2,0.0,30.22,SE,132,0.0,5.9,0,0.00,,---,0.00,VWS V14.00,2013-10-10 19:56:00,
2013-10-10 15:57:00,57.0,0.0,30.22,ENE,75,4.3,5.9,0,0.00,,---,0.00,VWS V14.00,2013-10-10 19:57:00,
2013-10-10 15:58:00,57.0,0.0,30.22,NE,35,0.0,5.9,0,0.00,,---,0.00,VWS V14.00,2013-10-10 19:58:00,
2013-10-10 15:59:00,57.0,0.0,30.22,East,89,3.2,5.9,0,0.00,,---,0.00,VWS V14.00,2013-10-10 19:59:00,
2013-10-10 16:00:00,57.0,0.0,30.21,ESE,120,4.5,6.1,0,0.00,,---,0.00,VWS V14.00,2013-10-10 20:00:00,
2013-10-10 16:01:00,56.9,0.0,30.21,ENE,66,2.4,6.1,0,0.00,,---,0.00,VWS V14.00,2013-10-10 20:01:00,
2013-10-10 16:02:00,56.8,0.0,30.21,East,91,5.2,6.1,0,0.00,,---,0.00,VWS V14.00,2013-10-10 20:02:00,
2013-10-10 16:03:00,56.6,0.0,30.21,East,96,5.7,6.1,0,0.00,,---,0.00,VWS V14.00,2013-10-10 20:03:00,
2013-10-10 16:04:00,56.7,0.0,30.21,East,97,0.0,6.1,0,0.00,,---,0.00,VWS V14.00,2013-10-10 20:04:00,
2013-10-10 16:05:00,56.8,0.0,30.21,East,97,3.0,6.2,0,0.00,,---,0.00,VWS V14.00,2013-10-10 20:05:00,
2013-10-10 16:06:00,56.9,0.0,30.21,NE,38,0.0,6.2,0,0.00,,---,0.00,VWS V14.00,2013-10-10 20:06:00,
2013-10-10 16:07:00,57.0,0.0,30.21,NE,38,0.0,6.2,0,0.00,,---,0.00,VWS V14.00,2013-10-10 20:07:00,
2013-10-10 16:08:00,57.0,0.0,30.21,NE,38,0.0,6.2,0,0.00,,---,0.00,VWS V14.00,2013-10-10 20:08:00,
2013-10-10 16:09:00,57.0,0.0,30.21,ENE,73,0.0,6.2,0,0.00,,---,0.00,VWS V14.00,2013-10-10 20:09:00,
2013-10-10 16:10:00,57.1,0.0,30.21,ENE,69,3.5,5.2,0,0.00,,---,0.00,VWS V14.00,2013-10-10 20:10:00,
2013-10-10 16:11:00,57.1,0.0,30.21,ENE,76,0.0,5.2,0,0.00,,---,0.00,VWS V14.00,2013-10-10 20:11:00,
2013-10-10 16:12:00,57.1,0.0,30.21,East,87,0.0,5.2,0,0.00,,---,0.00,VWS V14.00,2013-10-10 20:12:00,
2013-10-10 16:13:00,57.2,0.0,30.21,ESE,121,3.4,5.2,0,0.00,,---,0.00,VWS V14.00,2013-10-10 20:13:00,
2013-10-10 16:14:00,57.1,0.0,30.21,NE,48,3.3,5.2,0,0.00,,---,0.00,VWS V14.00,2013-10-10 20:14:00,
2013-10-10 16:15:00,56.9,0.0,30.21,East,90,0.0,5.5,0,0.00,,---,0.00,VWS V14.00,2013-10-10 20:15:00,
2013-10-10 16:16:00,57.0,0.0,30.21,East,90,0.0,5.5,0,0.00,,---,0.00,VWS V14.00,2013-10-10 20:16:00,
2013-10-10 16:17:00,57.0,0.0,30.21,ESE,104,0.0,5.5,0,0.00,,---,0.00,VWS V14.00,2013-10-10 20:17:00,
2013-10-10 16:18:00,57.0,0.0,30.21,ESE,104,0.0,5.5,0,0.00,,---,0.00,VWS V14.00,2013-10-10 20:18:00,
2013-10-10 16:19:00,57.1,0.0,30.21,East,90,3.4,5.5,0,0.00,,---,0.00,VWS V14.00,2013-10-10 20:19:00,
2013-10-10 16:20:00,57.0,0.0,30.21,East,80,0.0,5.0,0,0.00,,---,0.00,VWS V14.00,2013-10-10 20:20:00,
2013-10-10 16:21:00,56.9,0.0,30.21,East,80,0.0,5.0,0,0.00,,---,0.00,VWS V14.00,2013-10-10 20:21:00,
2013-10-10 16:22:00,56.8,0.0,30.21,NE,53,0.0,5.0,0,0.00,,---,0.00,VWS V14.00,2013-10-10 20:22:00,
2013-10-10 16:23:00,56.8,0.0,30.21,East,101,4.3,5.0,0,0.00,,---,0.00,VWS V14.00,2013-10-10 20:23:00,
2013-10-10 16:24:00,56.7,0.0,30.21,East,89,3.0,5.0,0,0.00,,---,0.00,VWS V14.00,2013-10-10 20:24:00,
2013-10-10 16:25:00,56.8,0.0,30.21,East,87,5.7,6.4,0,0.00,,---,0.00,VWS V14.00,2013-10-10 20:25:00,
2013-10-10 16:26:00,56.7,0.0,30.21,East,80,0.0,6.4,0,0.00,,---,0.00,VWS V14.00,2013-10-10 20:26:00,
2013-10-10 16:27:00,56.6,0.0,30.22,ESE,104,0.0,6.4,0,0.00,,---,0.00,VWS V14.00,2013-10-10 20:27:00,
2013-10-10 16:28:00,56.5,0.0,30.22,ESE,104,0.0,6.4,0,0.00,,---,0.00,VWS V14.00,2013-10-10 20:28:00,
2013-10-10 16:29:00,56.6,0.0,30.22,ESE,104,0.0,6.4,0,0.00,,---,0.00,VWS V14.00,2013-10-10 20:29:00,
2013-10-10 16:30:00,56.5,0.0,30.22,ESE,104,0.0,5.7,0,0.00,,---,0.00,VWS V14.00,2013-10-10 20:30:00,
2013-10-10 16:31:00,56.5,0.0,30.22,ESE,104,0.0,5.7,0,0.00,,---,0.00,VWS V14.00,2013-10-10 20:31:00,
2013-10-10 16:32:00,56.5,0.0,30.22,ESE,104,0.0,5.7,0,0.00,,---,0.00,VWS V14.00,2013-10-10 20:32:00,
2013-10-10 16:33:00,56.6,0.0,30.22,ESE,104,0.0,5.7,0,0.00,,---,0.00,VWS V14.00,2013-10-10 20:33:00,
2013-10-10 16:34:00,56.4,0.0,30.22,ENE,77,3.2,5.7,0,0.00,,---,0.00,VWS V14.00,2013-10-10 20:34:00,
2013-10-10 16:35:00,56.4,0.0,30.22,NE,56,0.0,5.2,0,0.00,,---,0.00,VWS V14.00,2013-10-10 20:35:00,
2013-10-10 16:36:00,56.5,0.0,30.21,NE,56,0.0,5.2,0,0.00,,---,0.00,VWS V14.00,2013-10-10 20:36:00,
2013-10-10 16:37:00,56.5,0.0,30.22,NE,56,0.0,5.2,0,0.00,,---,0.00,VWS V14.00,2013-10-10 20:37:00,
2013-10-10 16:38:00,56.6,0.0,30.21,NE,56,0.0,5.2,0,0.00,,---,0.00,VWS V14.00,2013-10-10 20:38:00,
2013-10-10 16:39:00,56.6,0.0,30.21,NE,56,0.0,5.2,0,0.00,,---,0.00,VWS V14.00,2013-10-10 20:39:00,
2013-10-10 16:40:00,56.6,0.0,30.21,NE,56,0.0,0.0,0,0.00,,---,0.00,VWS V14.00,2013-10-10 20:40:00,
2013-10-10 16:41:00,56.6,0.0,30.21,NE,56,0.0,0.0,0,0.00,,---,0.00,VWS V14.00,2013-10-10 20:41:00,
2013-10-10 16:42:00,56.6,0.0,30.21,ENE,70,4.5,0.0,0,0.00,,---,0.00,VWS V14.00,2013-10-10 20:42:00,
2013-10-10 16:43:00,56.6,0.0,30.21,East,87,3.1,0.0,0,0.00,,---,0.00,VWS V14.00,2013-10-10 20:43:00,
2013-10-10 16:44:00,56.5,0.0,30.21,ESE,112,0.0,0.0,0,0.00,,---,0.00,VWS V14.00,2013-10-10 20:44:00,
2013-10-10 16:45:00,56.5,0.0,30.21,ESE,112,0.0,5.7,0,0.00,,---,0.00,VWS V14.00,2013-10-10 20:45:00,
2013-10-10 16:46:00,56.5,0.0,30.21,ESE,112,0.0,5.7,0,0.00,,---,0.00,VWS V14.00,2013-10-10 20:46:00,
2013-10-10 16:47:00,56.5,0.0,30.21,ESE,112,0.0,5.7,0,0.00,,---,0.00,VWS V14.00,2013-10-10 20:47:00,
2013-10-10 16:48:00,56.6,0.0,30.21,ESE,112,0.0,5.7,0,0.00,,---,0.00,VWS V14.00,2013-10-10 20:48:00,
2013-10-10 16:49:00,56.6,0.0,30.21,ESE,112,0.0,5.7,0,0.00,,---,0.00,VWS V14.00,2013-10-10 20:49:00,
2013-10-10 16:50:00,56.6,0.0,30.21,ESE,112,0.0,0.0,0,0.00,,---,0.00,VWS V14.00,2013-10-10 20:50:00,
2013-10-10 16:51:00,56.6,0.0,30.21,ESE,112,0.0,0.0,0,0.00,,---,0.00,VWS V14.00,2013-10-10 20:51:00,
2013-10-10 16:52:00,56.5,0.0,30.21,ESE,112,0.0,0.0,0,0.00,,---,0.00,VWS V14.00,2013-10-10 20:52:00,
2013-10-10 16:53:00,56.5,0.0,30.21,ENE,68,3.1,0.0,0,0.00,,---,0.00,VWS V14.00,2013-10-10 20:53:00,
2013-10-10 16:54:00,56.4,0.0,30.21,East,91,0.0,0.0,0,0.00,,---,0.00,VWS V14.00,2013-10-10 20:54:00,
2013-10-10 16:55:00,56.3,0.0,30.21,East,91,0.0,0.0,0,0.00,,---,0.00,VWS V14.00,2013-10-10 20:55:00,
2013-10-10 16:56:00,56.2,0.0,30.21,East,91,0.0,4.7,0,0.00,,---,0.00,VWS V14.00,2013-10-10 20:56:00,
2013-10-10 16:57:00,56.2,0.0,30.21,East,91,0.0,4.7,0,0.00,,---,0.00,VWS V14.00,2013-10-10 20:57:00,
2013-10-10 16:58:00,56.3,0.0,30.21,NE,56,3.5,4.7,0,0.00,,---,0.00,VWS V14.00,2013-10-10 20:58:00,
2013-10-10 16:59:00,56.3,0.0,30.21,ESE,105,0.0,4.7,0,0.00,,---,0.00,VWS V14.00,2013-10-10 20:59:00,
2013-10-10 17:00:00,56.3,0.0,30.21,ESE,105,0.0,4.8,0,0.00,,---,0.00,VWS V14.00,2013-10-10 21:00:00,
2013-10-10 17:01:00,56.2,0.0,30.21,ESE,105,0.0,4.8,0,0.00,,---,0.00,VWS V14.00,2013-10-10 21:01:00,
2013-10-10 17:02:00,56.2,0.0,30.21,ESE,105,0.0,4.8,0,0.00,,---,0.00,VWS V14.00,2013-10-10 21:02:00,
2013-10-10 17:03:00,56.2,0.0,30.21,ESE,105,0.0,4.8,0,0.00,,---,0.00,VWS V14.00,2013-10-10 21:03:00,
2013-10-10 17:04:00,56.3,0.0,30.21,ESE,105,0.0,4.8,0,0.00,,---,0.00,VWS V14.00,2013-10-10 21:04:00,
2013-10-10 17:05:00,56.3,0.0,30.21,ESE,105,0.0,0.0,0,0.00,,---,0.00,VWS V14.00,2013-10-10 21:05:00,
2013-10-10 17:06:00,56.3,0.0,30.21,ESE,105,0.0,0.0,0,0.00,,---,0.00,VWS V14.00,2013-10-10 21:06:00,
2013-10-10 17:07:00,56.3,0.0,30.21,ESE,105,0.0,0.0,0,0.00,,---,0.00,VWS V14.00,2013-10-10 21:07:00,
2013-10-10 17:08:00,56.2,0.0,30.21,ESE,105,0.0,0.0,0,0.00,,---,0.00,VWS V14.00,2013-10-10 21:08:00,
2013-10-10 17:09:00,56.2,0.0,30.21,ESE,105,0.0,0.0,0,0.00,,---,0.00,VWS V14.00,2013-10-10 21:09:00,
2013-10-10 17:10:00,56.2,0.0,30.21,ESE,105,0.0,0.0,0,0.00,,---,0.00,VWS V14.00,2013-10-10 21:10:00,
2013-10-10 17:11:00,56.2,0.0,30.21,ESE,105,0.0,0.0,0,0.00,,---,0.00,VWS V14.00,2013-10-10 21:11:00,
2013-10-10 17:12:00,56.2,0.0,30.21,ESE,105,0.0,0.0,0,0.00,,---,0.00,VWS V14.00,2013-10-10 21:12:00,
2013-10-10 17:13:00,56.2,0.0,30.21,ESE,105,0.0,0.0,0,0.00,,---,0.00,VWS V14.00,2013-10-10 21:13:00,
2013-10-10 17:14:00,56.2,0.0,30.21,ENE,69,0.0,0.0,0,0.00,,---,0.00,VWS V14.00,2013-10-10 21:14:00,
2013-10-10 17:15:00,56.2,0.0,30.21,ENE,69,0.0,1.8,0,0.00,,---,0.00,VWS V14.00,2013-10-10 21:15:00,
2013-10-10 17:16:00,56.3,0.0,30.21,ENE,69,0.0,1.8,0,0.00,,---,0.00,VWS V14.00,2013-10-10 21:16:00,
2013-10-10 17:17:00,56.2,0.0,30.21,ENE,69,0.0,1.8,0,0.00,,---,0.00,VWS V14.00,2013-10-10 21:17:00,
2013-10-10 17:18:00,56.3,0.0,30.21,ENE,69,0.0,1.8,0,0.00,,---,0.00,VWS V14.00,2013-10-10 21:18:00,
2013-10-10 17:19:00,56.2,0.0,30.21,ENE,69,0.0,1.8,0,0.00,,---,0.00,VWS V14.00,2013-10-10 21:19:00,
2013-10-10 17:20:00,56.2,0.0,30.21,ENE,69,0.0,0.0,0,0.00,,---,0.00,VWS V14.00,2013-10-10 21:20:00,
2013-10-10 17:21:00,56.2,0.0,30.21,ENE,69,0.0,0.0,0,0.00,,---,0.00,VWS V14.00,2013-10-10 21:21:00,
2013-10-10 17:22:00,56.1,0.0,30.21,ENE,69,0.0,0.0,0,0.00,,---,0.00,VWS V14.00,2013-10-10 21:22:00,
2013-10-10 17:23:00,56.2,0.0,30.21,ENE,69,0.0,0.0,0,0.00,,---,0.00,VWS V14.00,2013-10-10 21:23:00,
2013-10-10 17:24:00,56.2,0.0,30.21,ENE,69,0.0,0.0,0,0.00,,---,0.00,VWS V14.00,2013-10-10 21:24:00,
2013-10-10 17:25:00,56.1,0.0,30.21,ENE,69,0.0,0.0,0,0.00,,---,0.00,VWS V14.00,2013-10-10 21:25:00,
2013-10-10 17:26:00,56.1,0.0,30.21,ENE,69,0.0,0.0,0,0.00,,---,0.00,VWS V14.00,2013-10-10 21:26:00,
2013-10-10 17:27:00,56.1,0.0,30.21,East,89,0.0,0.0,0,0.00,,---,0.00,VWS V14.00,2013-10-10 21:27:00,
2013-10-10 17:28:00,56.1,0.0,30.21,East,89,0.0,0.0,0,0.00,,---,0.00,VWS V14.00,2013-10-10 21:28:00,
2013-10-10 17:29:00,56.1,0.0,30.21,East,89,0.0,0.0,0,0.00,,---,0.00,VWS V14.00,2013-10-10 21:29:00,
2013-10-10 17:30:00,56.1,0.0,30.21,East,89,0.0,4.7,0,0.00,,---,0.00,VWS V14.00,2013-10-10 21:30:00,
2013-10-10 17:31:00,56.1,0.0,30.22,East,89,0.0,4.7,0,0.00,,---,0.00,VWS V14.00,2013-10-10 21:31:00,
2013-10-10 17:32:00,56.1,0.0,30.21,East,89,0.0,4.7,0,0.00,,---,0.00,VWS V14.00,2013-10-10 21:32:00,
2013-10-10 17:33:00,56.1,0.0,30.21,East,89,0.0,4.7,0,0.00,,---,0.00,VWS V14.00,2013-10-10 21:33:00,
2013-10-10 17:34:00,56.1,0.0,30.21,East,89,0.0,4.7,0,0.00,,---,0.00,VWS V14.00,2013-10-10 21:34:00,
2013-10-10 17:35:00,56.0,0.0,30.21,East,89,0.0,0.0,0,0.00,,---,0.00,VWS V14.00,2013-10-10 21:35:00,
2013-10-10 17:36:00,56.0,0.0,30.21,East,89,0.0,0.0,0,0.00,,---,0.00,VWS V14.00,2013-10-10 21:36:00,
2013-10-10 17:37:00,56.0,0.0,30.21,East,89,0.0,0.0,0,0.00,,---,0.00,VWS V14.00,2013-10-10 21:37:00,
2013-10-10 17:38:00,55.9,0.0,30.21,East,89,0.0,0.0,0,0.00,,---,0.00,VWS V14.00,2013-10-10 21:38:00,
2013-10-10 17:39:00,56.0,0.0,30.21,East,89,0.0,0.0,0,0.00,,---,0.00,VWS V14.00,2013-10-10 21:39:00,
2013-10-10 17:40:00,55.9,0.0,30.21,East,89,0.0,0.0,0,0.00,,---,0.00,VWS V14.00,2013-10-10 21:40:00,
2013-10-10 17:41:00,55.9,0.0,30.21,East,89,0.0,0.0,0,0.00,,---,0.00,VWS V14.00,2013-10-10 21:41:00,
2013-10-10 17:42:00,56.0,0.0,30.21,East,89,0.0,0.0,0,0.00,,---,0.00,VWS V14.00,2013-10-10 21:42:00,
2013-10-10 17:43:00,56.0,0.0,30.21,East,89,0.0,0.0,0,0.00,,---,0.00,VWS V14.00,2013-10-10 21:43:00,
2013-10-10 17:44:00,56.0,0.0,30.21,East,89,0.0,0.0,0,0.00,,---,0.00,VWS V14.00,2013-10-10 21:44:00,
2013-10-10 17:45:00,56.0,0.0,30.21,East,89,0.0,0.0,0,0.00,,---,0.00,VWS V14.00,2013-10-10 21:45:00,
2013-10-10 17:46:00,55.9,0.0,30.21,East,89,0.0,0.0,0,0.00,,---,0.00,VWS V14.00,2013-10-10 21:46:00,
2013-10-10 17:47:00,55.9,0.0,30.21,East,89,0.0,0.0,0,0.00,,---,0.00,VWS V14.00,2013-10-10 21:47:00,
2013-10-10 17:48:00,55.9,0.0,30.21,East,89,0.0,0.0,0,0.00,,---,0.00,VWS V14.00,2013-10-10 21:48:00,
2013-10-10 17:49:00,55.9,0.0,30.21,East,89,0.0,0.0,0,0.00,,---,0.00,VWS V14.00,2013-10-10 21:49:00,
2013-10-10 17:50:00,55.9,0.0,30.21,East,89,0.0,0.0,0,0.00,,---,0.00,VWS V14.00,2013-10-10 21:50:00,
2013-10-10 17:51:00,55.9,0.0,30.21,East,89,0.0,0.0,0,0.00,,---,0.00,VWS V14.00,2013-10-10 21:51:00,
2013-10-10 17:52:00,55.9,0.0,30.20,East,89,3.2,0.0,0,0.00,,---,0.00,VWS V14.00,2013-10-10 21:52:00,
2013-10-10 17:53:00,55.9,0.0,30.20,East,89,0.0,0.0,0,0.00,,---,0.00,VWS V14.00,2013-10-10 21:53:00,
2013-10-10 17:54:00,56.0,0.0,30.20,East,89,0.0,0.0,0,0.00,,---,0.00,VWS V14.00,2013-10-10 21:54:00,
2013-10-10 17:55:00,56.0,0.0,30.20,East,89,0.0,0.0,0,0.00,,---,0.00,VWS V14.00,2013-10-10 21:55:00,
2013-10-10 17:56:00,56.0,0.0,30.20,East,89,0.0,3.2,0,0.00,,---,0.00,VWS V14.00,2013-10-10 21:56:00,
2013-10-10 17:57:00,56.0,0.0,30.20,East,89,0.0,3.2,0,0.00,,---,0.00,VWS V14.00,2013-10-10 21:57:00,
2013-10-10 17:58:00,56.1,0.0,30.20,East,89,0.0,3.2,0,0.00,,---,0.00,VWS V14.00,2013-10-10 21:58:00,
2013-10-10 17:59:00,56.0,0.0,30.20,East,89,0.0,3.2,0,0.00,,---,0.00,VWS V14.00,2013-10-10 21:59:00,
2013-10-10 18:00:00,55.9,0.0,30.20,East,89,0.0,3.2,0,0.00,,---,0.00,VWS V14.00,2013-10-10 22:00:00,
2013-10-10 18:01:00,55.9,0.0,30.20,East,89,0.0,0.0,0,0.00,,---,0.00,VWS V14.00,2013-10-10 22:01:00,
2013-10-10 18:02:00,55.9,0.0,30.20,East,89,0.0,0.0,0,0.00,,---,0.00,VWS V14.00,2013-10-10 22:02:00,
2013-10-10 18:03:00,55.9,0.0,30.20,East,89,0.0,0.0,0,0.00,,---,0.00,VWS V14.00,2013-10-10 22:03:00,
2013-10-10 18:04:00,55.8,0.0,30.20,East,89,0.0,0.0,0,0.00,,---,0.00,VWS V14.00,2013-10-10 22:04:00,
2013-10-10 18:05:00,55.9,0.0,30.20,East,89,0.0,0.0,0,0.00,,---,0.00,VWS V14.00,2013-10-10 22:05:00,
2013-10-10 18:06:00,56.0,0.0,30.20,East,89,0.0,0.0,0,0.00,,---,0.00,VWS V14.00,2013-10-10 22:06:00,
2013-10-10 18:07:00,55.9,0.0,30.20,East,89,0.0,0.0,0,0.00,,---,0.00,VWS V14.00,2013-10-10 22:07:00,
2013-10-10 18:08:00,55.9,0.0,30.20,East,89,0.0,0.0,0,0.00,,---,0.00,VWS V14.00,2013-10-10 22:08:00,
2013-10-10 18:09:00,55.9,0.0,30.20,East,89,0.0,0.0,0,0.00,,---,0.00,VWS V14.00,2013-10-10 22:09:00,
2013-10-10 18:10:00,55.9,0.0,30.20,East,89,0.0,0.0,0,0.00,,---,0.00,VWS V14.00,2013-10-10 22:10:00,
2013-10-10 18:11:00,55.9,0.0,30.20,East,89,0.0,0.0,0,0.00,,---,0.00,VWS V14.00,2013-10-10 22:11:00,
2013-10-10 18:12:00,55.9,0.0,30.20,East,89,0.0,0.0,0,0.00,,---,0.00,VWS V14.00,2013-10-10 22:12:00,
2013-10-10 18:13:00,55.9,0.0,30.20,East,89,0.0,0.0,0,0.00,,---,0.00,VWS V14.00,2013-10-10 22:13:00,
2013-10-10 18:14:00,55.8,0.0,30.20,East,89,0.0,0.0,0,0.00,,---,0.00,VWS V14.00,2013-10-10 22:14:00,
2013-10-10 18:15:00,55.8,0.0,30.20,East,89,0.0,0.0,0,0.00,,---,0.00,VWS V14.00,2013-10-10 22:15:00,
2013-10-10 18:16:00,55.8,0.0,30.20,East,89,0.0,0.0,0,0.00,,---,0.00,VWS V14.00,2013-10-10 22:16:00,
2013-10-10 18:17:00,55.8,0.0,30.20,East,89,0.0,0.0,0,0.00,,---,0.00,VWS V14.00,2013-10-10 22:17:00,
2013-10-10 18:18:00,55.8,0.0,30.20,East,89,0.0,0.0,0,0.00,,---,0.00,VWS V14.00,2013-10-10 22:18:00,
2013-10-10 18:19:00,55.8,0.0,30.20,East,89,0.0,0.0,0,0.00,,---,0.00,VWS V14.00,2013-10-10 22:19:00,
2013-10-10 18:20:00,55.8,0.0,30.20,East,89,0.0,0.0,0,0.00,,---,0.00,VWS V14.00,2013-10-10 22:20:00,
2013-10-10 18:21:00,55.8,0.0,30.20,East,89,0.0,0.0,0,0.00,,---,0.00,VWS V14.00,2013-10-10 22:21:00,
2013-10-10 18:22:00,55.8,0.0,30.20,East,89,0.0,0.0,0,0.00,,---,0.00,VWS V14.00,2013-10-10 22:22:00,
2013-10-10 18:23:00,55.8,0.0,30.20,East,89,0.0,0.0,0,0.00,,---,0.00,VWS V14.00,2013-10-10 22:23:00,
2013-10-10 18:24:00,55.8,0.0,30.20,East,89,0.0,0.0,0,0.00,,---,0.00,VWS V14.00,2013-10-10 22:24:00,
2013-10-10 18:25:00,55.8,0.0,30.20,East,89,0.0,0.0,0,0.00,,---,0.00,VWS V14.00,2013-10-10 22:25:00,
2013-10-10 18:26:00,55.8,0.0,30.20,East,89,0.0,0.0,0,0.00,,---,0.00,VWS V14.00,2013-10-10 22:26:00,
2013-10-10 18:27:00,55.8,0.0,30.20,East,89,0.0,0.0,0,0.00,,---,0.00,VWS V14.00,2013-10-10 22:27:00,
2013-10-10 18:28:00,55.8,0.0,30.20,East,89,0.0,0.0,0,0.00,,---,0.00,VWS V14.00,2013-10-10 22:28:00,
2013-10-10 18:29:00,55.7,0.0,30.20,East,89,0.0,0.0,0,0.00,,---,0.00,VWS V14.00,2013-10-10 22:29:00,
2013-10-10 18:30:00,55.7,0.0,30.20,East,89,0.0,0.0,0,0.00,,---,0.00,VWS V14.00,2013-10-10 22:30:00,
2013-10-10 18:31:00,55.7,0.0,30.20,East,89,0.0,0.0,0,0.00,,---,0.00,VWS V14.00,2013-10-10 22:31:00,
2013-10-10 18:32:00,55.7,0.0,30.20,East,89,0.0,0.0,0,0.00,,---,0.00,VWS V14.00,2013-10-10 22:32:00,
2013-10-10 18:33:00,55.7,0.0,30.20,East,89,0.0,0.0,0,0.00,,---,0.00,VWS V14.00,2013-10-10 22:33:00,
2013-10-10 18:34:00,55.7,0.0,30.20,East,89,0.0,0.0,0,0.00,,---,0.00,VWS V14.00,2013-10-10 22:34:00,
2013-10-10 18:35:00,55.7,0.0,30.20,East,89,0.0,0.0,0,0.00,,---,0.00,VWS V14.00,2013-10-10 22:35:00,
2013-10-10 18:36:00,55.7,0.0,30.20,East,89,0.0,0.0,0,0.00,,---,0.00,VWS V14.00,2013-10-10 22:36:00,
2013-10-10 18:37:00,55.7,0.0,30.20,East,89,0.0,0.0,0,0.00,,---,0.00,VWS V14.00,2013-10-10 22:37:00,
2013-10-10 18:38:00,55.7,0.0,30.20,East,89,0.0,0.0,0,0.00,,---,0.00,VWS V14.00,2013-10-10 22:38:00,
2013-10-10 18:39:00,55.7,0.0,30.20,East,89,0.0,0.0,0,0.00,,---,0.00,VWS V14.00,2013-10-10 22:39:00,
2013-10-10 18:40:00,55.6,0.0,30.20,East,89,0.0,0.0,0,0.00,,---,0.00,VWS V14.00,2013-10-10 22:40:00,
2013-10-10 18:41:00,55.7,0.0,30.20,East,89,0.0,0.0,0,0.00,,---,0.00,VWS V14.00,2013-10-10 22:41:00,
2013-10-10 18:42:00,55.7,0.0,30.20,East,89,0.0,0.0,0,0.00,,---,0.00,VWS V14.00,2013-10-10 22:42:00,
2013-10-10 18:43:00,55.7,0.0,30.20,East,89,0.0,0.0,0,0.00,,---,0.00,VWS V14.00,2013-10-10 22:43:00,
2013-10-10 18:44:00,55.7,0.0,30.20,East,89,0.0,0.0,0,0.00,,---,0.00,VWS V14.00,2013-10-10 22:44:00,
2013-10-10 18:45:00,55.7,0.0,30.20,East,89,0.0,0.0,0,0.00,,---,0.00,VWS V14.00,2013-10-10 22:45:00,
2013-10-10 18:46:00,55.7,0.0,30.20,East,89,0.0,0.0,0,0.00,,---,0.00,VWS V14.00,2013-10-10 22:46:00,
2013-10-10 18:47:00,55.6,0.0,30.20,East,89,0.0,0.0,0,0.00,,---,0.00,VWS V14.00,2013-10-10 22:47:00,
2013-10-10 18:48:00,55.7,0.0,30.20,East,89,0.0,0.0,0,0.00,,---,0.00,VWS V14.00,2013-10-10 22:48:00,
2013-10-10 18:49:00,55.7,0.0,30.20,East,89,0.0,0.0,0,0.00,,---,0.00,VWS V14.00,2013-10-10 22:49:00,
2013-10-10 18:50:00,55.7,0.0,30.20,East,89,0.0,0.0,0,0.00,,---,0.00,VWS V14.00,2013-10-10 22:50:00,
2013-10-10 18:51:00,55.7,0.0,30.20,East,89,0.0,0.0,0,0.00,,---,0.00,VWS V14.00,2013-10-10 22:51:00,
2013-10-10 18:52:00,55.7,0.0,30.20,East,101,3.2,0.0,0,0.00,,---,0.00,VWS V14.00,2013-10-10 22:52:00,
2013-10-10 18:53:00,55.7,0.0,30.20,ENE,73,0.0,0.0,0,0.00,,---,0.00,VWS V14.00,2013-10-10 22:53:00,
2013-10-10 18:54:00,55.7,0.0,30.20,ENE,65,0.0,0.0,0,0.00,,---,0.00,VWS V14.00,2013-10-10 22:54:00,
2013-10-10 18:55:00,55.7,0.0,30.20,ENE,63,3.2,4.9,0,0.00,,---,0.00,VWS V14.00,2013-10-10 22:55:00,
2013-10-10 18:56:00,55.7,0.0,30.20,East,97,4.7,4.9,0,0.00,,---,0.00,VWS V14.00,2013-10-10 22:56:00,
2013-10-10 18:57:00,55.7,0.0,30.20,East,91,1.2,4.9,0,0.00,,---,0.00,VWS V14.00,2013-10-10 22:57:00,
2013-10-10 18:58:00,55.7,0.0,30.20,East,91,2.6,4.9,0,0.00,,---,0.00,VWS V14.00,2013-10-10 22:58:00,
2013-10-10 18:59:00,55.7,0.0,30.20,East,93,0.0,4.9,0,0.00,,---,0.00,VWS V14.00,2013-10-10 22:59:00,
2013-10-10 19:00:00,55.8,0.0,30.20,East,93,0.0,4.9,0,0.00,,---,0.00,VWS V14.00,2013-10-10 23:00:00,
2013-10-10 19:01:00,55.7,0.0,30.20,East,93,0.0,5.5,0,0.00,,---,0.00,VWS V14.00,2013-10-10 23:01:00,
2013-10-10 19:02:00,55.7,0.0,30.20,East,93,0.0,5.5,0,0.00,,---,0.00,VWS V14.00,2013-10-10 23:02:00,
2013-10-10 19:03:00,55.7,0.0,30.20,East,93,0.0,5.5,0,0.00,,---,0.00,VWS V14.00,2013-10-10 23:03:00,
2013-10-10 19:04:00,55.7,0.0,30.20,East,100,3.4,5.5,0,0.00,,---,0.00,VWS V14.00,2013-10-10 23:04:00,
2013-10-10 19:05:00,55.8,0.0,30.20,ENE,75,3.3,5.5,0,0.00,,---,0.00,VWS V14.00,2013-10-10 23:05:00,
2013-10-10 19:06:00,55.8,0.0,30.20,ESE,115,4.4,4.7,0,0.00,,---,0.00,VWS V14.00,2013-10-10 23:06:00,
2013-10-10 19:07:00,55.8,0.0,30.20,East,84,2.9,4.7,0,0.00,,---,0.00,VWS V14.00,2013-10-10 23:07:00,
2013-10-10 19:08:00,55.8,0.0,30.20,East,93,2.5,4.7,0,0.00,,---,0.00,VWS V14.00,2013-10-10 23:08:00,
2013-10-10 19:09:00,55.8,0.0,30.20,East,94,0.0,4.7,0,0.00,,---,0.00,VWS V14.00,2013-10-10 23:09:00,
2013-10-10 19:10:00,55.8,0.0,30.20,East,94,0.0,5.0,0,0.00,,---,0.00,VWS V14.00,2013-10-10 23:10:00,
2013-10-10 19:11:00,55.8,0.0,30.20,East,94,0.0,5.0,0,0.00,,---,0.00,VWS V14.00,2013-10-10 23:11:00,
2013-10-10 19:12:00,55.8,0.0,30.20,East,94,0.0,5.0,0,0.00,,---,0.00,VWS V14.00,2013-10-10 23:12:00,
2013-10-10 19:13:00,55.8,0.0,30.20,East,94,0.0,5.0,0,0.00,,---,0.00,VWS V14.00,2013-10-10 23:13:00,
2013-10-10 19:14:00,55.9,0.0,30.20,East,94,0.0,5.0,0,0.00,,---,0.00,VWS V14.00,2013-10-10 23:14:00,
2013-10-10 19:15:00,55.9,0.0,30.20,East,94,0.0,0.0,0,0.00,,---,0.00,VWS V14.00,2013-10-10 23:15:00,
2013-10-10 19:16:00,55.9,0.0,30.20,East,94,0.0,0.0,0,0.00,,---,0.00,VWS V14.00,2013-10-10 23:16:00,
2013-10-10 19:17:00,55.8,0.0,30.20,East,94,0.0,0.0,0,0.00,,---,0.00,VWS V14.00,2013-10-10 23:17:00,
2013-10-10 19:18:00,55.9,0.0,30.20,East,94,0.0,0.0,0,0.00,,---,0.00,VWS V14.00,2013-10-10 23:18:00,
2013-10-10 19:19:00,55.8,0.0,30.20,East,94,0.0,0.0,0,0.00,,---,0.00,VWS V14.00,2013-10-10 23:19:00,
2013-10-10 19:20:00,55.8,0.0,30.20,East,94,0.0,0.0,0,0.00,,---,0.00,VWS V14.00,2013-10-10 23:20:00,
2013-10-10 19:21:00,55.9,0.0,30.20,East,94,0.0,0.0,0,0.00,,---,0.00,VWS V14.00,2013-10-10 23:21:00,
2013-10-10 19:22:00,55.8,0.0,30.20,East,94,0.0,0.0,0,0.00,,---,0.00,VWS V14.00,2013-10-10 23:22:00,
2013-10-10 19:23:00,55.8,0.0,30.20,East,94,0.0,0.0,0,0.00,,---,0.00,VWS V14.00,2013-10-10 23:23:00,
2013-10-10 19:24:00,55.9,0.0,30.20,East,94,0.0,0.0,0,0.00,,---,0.00,VWS V14.00,2013-10-10 23:24:00,
2013-10-10 19:25:00,55.8,0.0,30.20,East,94,0.0,0.0,0,0.00,,---,0.00,VWS V14.00,2013-10-10 23:25:00,
2013-10-10 19:26:00,55.8,0.0,30.20,East,94,0.0,0.0,0,0.00,,---,0.00,VWS V14.00,2013-10-10 23:26:00,
2013-10-10 19:27:00,55.8,0.0,30.20,East,94,0.0,0.0,0,0.00,,---,0.00,VWS V14.00,2013-10-10 23:27:00,
2013-10-10 19:28:00,55.8,0.0,30.20,East,94,0.0,0.0,0,0.00,,---,0.00,VWS V14.00,2013-10-10 23:28:00,
2013-10-10 19:29:00,55.8,0.0,30.20,East,94,0.0,0.0,0,0.00,,---,0.00,VWS V14.00,2013-10-10 23:29:00,
2013-10-10 19:30:00,55.8,0.0,30.20,East,94,0.0,0.0,0,0.00,,---,0.00,VWS V14.00,2013-10-10 23:30:00,
2013-10-10 19:31:00,55.8,0.0,30.20,East,94,0.0,0.0,0,0.00,,---,0.00,VWS V14.00,2013-10-10 23:31:00,
2013-10-10 19:32:00,55.8,0.0,30.20,East,94,0.0,0.0,0,0.00,,---,0.00,VWS V14.00,2013-10-10 23:32:00,
2013-10-10 19:33:00,55.8,0.0,30.20,East,94,0.0,0.0,0,0.00,,---,0.00,VWS V14.00,2013-10-10 23:33:00,
2013-10-10 19:34:00,55.8,0.0,30.20,East,94,0.0,0.0,0,0.00,,---,0.00,VWS V14.00,2013-10-10 23:34:00,
2013-10-10 19:35:00,55.8,0.0,30.20,East,94,0.0,0.0,0,0.00,,---,0.00,VWS V14.00,2013-10-10 23:35:00,
2013-10-10 19:36:00,55.7,0.0,30.20,East,94,0.0,0.0,0,0.00,,---,0.00,VWS V14.00,2013-10-10 23:36:00,
2013-10-10 19:37:00,55.8,0.0,30.20,East,94,0.0,0.0,0,0.00,,---,0.00,VWS V14.00,2013-10-10 23:37:00,
2013-10-10 19:38:00,55.8,0.0,30.20,East,94,0.0,0.0,0,0.00,,---,0.00,VWS V14.00,2013-10-10 23:38:00,
2013-10-10 19:39:00,55.8,0.0,30.20,East,94,0.0,0.0,0,0.00,,---,0.00,VWS V14.00,2013-10-10 23:39:00,
2013-10-10 19:40:00,55.9,0.0,30.20,East,94,0.0,0.0,0,0.00,,---,0.00,VWS V14.00,2013-10-10 23:40:00,
2013-10-10 19:41:00,55.8,0.0,30.20,East,94,0.0,0.0,0,0.00,,---,0.00,VWS V14.00,2013-10-10 23:41:00,
2013-10-10 19:42:00,55.8,0.0,30.20,East,94,0.0,0.0,0,0.00,,---,0.00,VWS V14.00,2013-10-10 23:42:00,
2013-10-10 19:43:00,55.8,0.0,30.20,East,94,0.0,0.0,0,0.00,,---,0.00,VWS V14.00,2013-10-10 23:43:00,
2013-10-10 19:44:00,55.8,0.0,30.20,East,94,0.0,0.0,0,0.00,,---,0.00,VWS V14.00,2013-10-10 23:44:00,
2013-10-10 19:45:00,55.8,0.0,30.20,East,94,0.0,0.0,0,0.00,,---,0.00,VWS V14.00,2013-10-10 23:45:00,
2013-10-10 19:46:00,55.8,0.0,30.20,East,94,0.0,0.0,0,0.00,,---,0.00,VWS V14.00,2013-10-10 23:46:00,
2013-10-10 19:47:00,55.8,0.0,30.20,East,94,0.0,0.0,0,0.00,,---,0.00,VWS V14.00,2013-10-10 23:47:00,
2013-10-10 19:48:00,55.8,0.0,30.20,East,94,0.0,0.0,0,0.00,,---,0.00,VWS V14.00,2013-10-10 23:48:00,
2013-10-10 19:49:00,55.8,0.0,30.20,East,94,0.0,0.0,0,0.00,,---,0.00,VWS V14.00,2013-10-10 23:49:00,
2013-10-10 19:50:00,55.8,0.0,30.20,East,94,0.0,0.0,0,0.00,,---,0.00,VWS V14.00,2013-10-10 23:50:00,
2013-10-10 19:51:00,55.8,0.0,30.20,East,94,0.0,0.0,0,0.00,,---,0.00,VWS V14.00,2013-10-10 23:51:00,
2013-10-10 19:52:00,55.8,0.0,30.20,East,94,0.0,0.0,0,0.00,,---,0.00,VWS V14.00,2013-10-10 23:52:00,
2013-10-10 19:53:00,55.8,0.0,30.20,East,94,0.0,0.0,0,0.00,,---,0.00,VWS V14.00,2013-10-10 23:53:00,
2013-10-10 19:54:00,55.8,0.0,30.20,East,94,0.0,0.0,0,0.00,,---,0.00,VWS V14.00,2013-10-10 23:54:00,
2013-10-10 19:55:00,55.8,0.0,30.20,East,94,0.0,0.0,0,0.00,,---,0.00,VWS V14.00,2013-10-10 23:55:00,
2013-10-10 19:56:00,55.8,0.0,30.20,East,94,0.0,0.0,0,0.00,,---,0.00,VWS V14.00,2013-10-10 23:56:00,
2013-10-10 19:57:00,55.8,0.0,30.20,East,94,0.0,0.0,0,0.00,,---,0.00,VWS V14.00,2013-10-10 23:57:00,
2013-10-10 19:58:00,55.7,0.0,30.20,East,94,0.0,0.0,0,0.00,,---,0.00,VWS V14.00,2013-10-10 23:58:00,
2013-10-10 19:59:00,55.8,0.0,30.20,East,94,0.0,0.0,0,0.00,,---,0.00,VWS V14.00,2013-10-10 23:59:00,
2013-10-10 20:00:00,55.8,0.0,30.20,East,94,0.0,0.0,0,0.00,,---,0.00,VWS V14.00,2013-10-11 00:00:00,
2013-10-10 20:01:00,55.8,0.0,30.20,East,94,0.0,0.0,0,0.00,,---,0.00,VWS V14.00,2013-10-11 00:01:00,
2013-10-10 20:02:00,55.8,0.0,30.20,East,94,0.0,0.0,0,0.00,,---,0.00,VWS V14.00,2013-10-11 00:02:00,
2013-10-10 20:03:00,55.8,0.0,30.20,East,94,0.0,0.0,0,0.00,,---,0.00,VWS V14.00,2013-10-11 00:03:00,
2013-10-10 20:04:00,55.7,0.0,30.20,East,94,0.0,0.0,0,0.00,,---,0.00,VWS V14.00,2013-10-11 00:04:00,
2013-10-10 20:05:00,55.6,0.0,30.20,East,94,0.0,0.0,0,0.00,,---,0.00,VWS V14.00,2013-10-11 00:05:00,
2013-10-10 20:06:00,55.6,0.0,30.20,East,94,0.0,0.0,0,0.00,,---,0.00,VWS V14.00,2013-10-11 00:06:00,
2013-10-10 20:07:00,55.7,0.0,30.20,East,94,0.0,0.0,0,0.00,,---,0.00,VWS V14.00,2013-10-11 00:07:00,
2013-10-10 20:08:00,55.6,0.0,30.20,East,94,0.0,0.0,0,0.00,,---,0.00,VWS V14.00,2013-10-11 00:08:00,
2013-10-10 20:09:00,55.6,0.0,30.20,East,94,0.0,0.0,0,0.00,,---,0.00,VWS V14.00,2013-10-11 00:09:00,
2013-10-10 20:10:00,55.6,0.0,30.20,East,94,0.0,0.0,0,0.00,,---,0.00,VWS V14.00,2013-10-11 00:10:00,
2013-10-10 20:11:00,55.3,0.0,30.20,East,94,0.0,0.0,0,0.00,,---,0.00,VWS V14.00,2013-10-11 00:11:00,
2013-10-10 20:12:00,55.1,0.0,30.20,East,94,0.0,0.0,0,0.00,,---,0.00,VWS V14.00,2013-10-11 00:12:00,
2013-10-10 20:13:00,54.9,0.0,30.20,East,94,0.0,0.0,0,0.00,,---,0.00,VWS V14.00,2013-10-11 00:13:00,
2013-10-10 20:14:00,54.8,0.0,30.20,East,94,0.0,0.0,0,0.00,,---,0.00,VWS V14.00,2013-10-11 00:14:00,
2013-10-10 20:15:00,54.7,0.0,30.20,East,94,0.0,0.0,0,0.00,,---,0.00,VWS V14.00,2013-10-11 00:15:00,
2013-10-10 20:16:00,54.6,0.0,30.19,NW,322,4.3,0.0,0,0.00,,---,0.00,VWS V14.00,2013-10-11 00:16:00,
2013-10-10 20:17:00,54.5,0.0,30.19,NNW,342,0.0,0.0,0,0.00,,---,0.00,VWS V14.00,2013-10-11 00:17:00,
2013-10-10 20:18:00,54.3,0.0,30.19,NNW,342,0.0,0.0,0,0.00,,---,0.00,VWS V14.00,2013-10-11 00:18:00,
2013-10-10 20:19:00,54.3,0.0,30.19,NNW,342,0.0,0.0,0,0.00,,---,0.00,VWS V14.00,2013-10-11 00:19:00,
2013-10-10 20:20:00,54.2,0.0,30.19,NNW,342,0.0,4.3,0,0.00,,---,0.00,VWS V14.00,2013-10-11 00:20:00,
2013-10-10 20:21:00,54.1,0.0,30.19,NNW,342,0.0,4.3,0,0.00,,---,0.00,VWS V14.00,2013-10-11 00:21:00,
2013-10-10 20:22:00,54.1,0.0,30.19,NNW,342,0.0,4.3,0,0.00,,---,0.00,VWS V14.00,2013-10-11 00:22:00,
2013-10-10 20:23:00,54.1,0.0,30.19,NNW,342,0.0,4.3,0,0.00,,---,0.00,VWS V14.00,2013-10-11 00:23:00,
2013-10-10 20:24:00,54.0,0.0,30.19,NNW,342,0.0,4.3,0,0.00,,---,0.00,VWS V14.00,2013-10-11 00:24:00,
2013-10-10 20:25:00,53.9,0.0,30.19,NNW,342,0.0,0.0,0,0.00,,---,0.00,VWS V14.00,2013-10-11 00:25:00,
2013-10-10 20:26:00,53.8,0.0,30.19,NNW,342,0.0,0.0,0,0.00,,---,0.00,VWS V14.00,2013-10-11 00:26:00,
2013-10-10 20:27:00,53.7,0.0,30.19,NNW,342,0.0,0.0,0,0.00,,---,0.00,VWS V14.00,2013-10-11 00:27:00,
2013-10-10 20:28:00,53.7,0.0,30.19,NNW,342,0.0,0.0,0,0.00,,---,0.00,VWS V14.00,2013-10-11 00:28:00,
2013-10-10 20:29:00,53.7,0.0,30.19,NNW,342,0.0,0.0,0,0.00,,---,0.00,VWS V14.00,2013-10-11 00:29:00,
2013-10-10 20:30:00,53.7,0.0,30.19,NNW,342,0.0,0.0,0,0.00,,---,0.00,VWS V14.00,2013-10-11 00:30:00,
2013-10-10 20:31:00,53.7,0.0,30.19,NNW,342,0.0,0.0,0,0.00,,---,0.00,VWS V14.00,2013-10-11 00:31:00,
2013-10-10 20:32:00,53.9,0.0,30.19,NNW,342,0.0,0.0,0,0.00,,---,0.00,VWS V14.00,2013-10-11 00:32:00,
2013-10-10 20:33:00,54.0,0.0,30.19,NNW,342,0.0,0.0,0,0.00,,---,0.00,VWS V14.00,2013-10-11 00:33:00,
2013-10-10 20:34:00,54.1,0.0,30.19,NNW,342,0.0,0.0,0,0.00,,---,0.00,VWS V14.00,2013-10-11 00:34:00,
2013-10-10 20:35:00,54.1,0.0,30.19,NNW,342,0.0,0.0,0,0.00,,---,0.00,VWS V14.00,2013-10-11 00:35:00,
2013-10-10 20:36:00,54.1,0.0,30.19,NNW,342,0.0,0.0,0,0.00,,---,0.00,VWS V14.00,2013-10-11 00:36:00,
2013-10-10 20:37:00,54.1,0.0,30.19,NNW,342,0.0,0.0,0,0.00,,---,0.00,VWS V14.00,2013-10-11 00:37:00,
2013-10-10 20:38:00,54.2,0.0,30.19,NNW,342,0.0,0.0,0,0.00,,---,0.00,VWS V14.00,2013-10-11 00:38:00,
2013-10-10 20:39:00,54.2,0.0,30.19,NNW,342,0.0,0.0,0,0.00,,---,0.00,VWS V14.00,2013-10-11 00:39:00,
2013-10-10 20:40:00,54.2,0.0,30.19,NNW,342,0.0,0.0,0,0.00,,---,0.00,VWS V14.00,2013-10-11 00:40:00,
2013-10-10 20:41:00,54.1,0.0,30.19,NNW,342,0.0,0.0,0,0.00,,---,0.00,VWS V14.00,2013-10-11 00:41:00,
2013-10-10 20:42:00,54.1,0.0,30.19,NNW,342,0.0,0.0,0,0.00,,---,0.00,VWS V14.00,2013-10-11 00:42:00,
2013-10-10 20:43:00,54.0,0.0,30.19,NNW,342,0.0,0.0,0,0.00,,---,0.00,VWS V14.00,2013-10-11 00:43:00,
2013-10-10 20:44:00,54.0,0.0,30.19,NNW,342,0.0,0.0,0,0.00,,---,0.00,VWS V14.00,2013-10-11 00:44:00,
2013-10-10 20:45:00,53.9,0.0,30.19,NNW,342,0.0,0.0,0,0.00,,---,0.00,VWS V14.00,2013-10-11 00:45:00,
2013-10-10 20:46:00,53.9,0.0,30.19,NNW,342,0.0,0.0,0,0.00,,---,0.00,VWS V14.00,2013-10-11 00:46:00,
2013-10-10 20:47:00,53.9,0.0,30.19,NNW,342,0.0,0.0,0,0.00,,---,0.00,VWS V14.00,2013-10-11 00:47:00,
2013-10-10 20:48:00,53.9,0.0,30.19,NNW,342,0.0,0.0,0,0.00,,---,0.00,VWS V14.00,2013-10-11 00:48:00,
2013-10-10 20:49:00,53.7,0.0,30.19,NNW,342,0.0,0.0,0,0.00,,---,0.00,VWS V14.00,2013-10-11 00:49:00,
2013-10-10 20:50:00,53.6,0.0,30.19,NNW,342,0.0,0.0,0,0.00,,---,0.00,VWS V14.00,2013-10-11 00:50:00,
2013-10-10 20:51:00,53.5,0.0,30.19,NNW,342,0.0,0.0,0,0.00,,---,0.00,VWS V14.00,2013-10-11 00:51:00,
2013-10-10 20:52:00,53.5,0.0,30.18,NNW,342,0.0,0.0,0,0.00,,---,0.00,VWS V14.00,2013-10-11 00:52:00,
2013-10-10 20:53:00,53.3,0.0,30.19,NNW,342,0.0,0.0,0,0.00,,---,0.00,VWS V14.00,2013-10-11 00:53:00,
2013-10-10 20:54:00,53.3,0.0,30.19,NNW,342,0.0,0.0,0,0.00,,---,0.00,VWS V14.00,2013-10-11 00:54:00,
2013-10-10 20:55:00,53.4,0.0,30.18,NNW,342,0.0,1.7,0,0.00,,---,0.00,VWS V14.00,2013-10-11 00:55:00,
2013-10-10 20:56:00,53.3,0.0,30.18,NNW,342,0.0,1.7,0,0.00,,---,0.00,VWS V14.00,2013-10-11 00:56:00,
2013-10-10 20:57:00,53.3,0.0,30.18,NNW,342,0.0,1.7,0,0.00,,---,0.00,VWS V14.00,2013-10-11 00:57:00,
2013-10-10 20:58:00,53.3,0.0,30.19,NNW,342,0.0,1.7,0,0.00,,---,0.00,VWS V14.00,2013-10-11 00:58:00,
2013-10-10 20:59:00,53.3,0.0,30.18,NNW,342,0.0,1.7,0,0.00,,---,0.00,VWS V14.00,2013-10-11 00:59:00,
2013-10-10 21:00:00,53.3,0.0,30.19,NNW,342,0.0,0.0,0,0.00,,---,0.00,VWS V14.00,2013-10-11 01:00:00,
2013-10-10 21:01:00,53.4,0.0,30.19,NNW,342,0.0,0.0,0,0.00,,---,0.00,VWS V14.00,2013-10-11 01:01:00,
2013-10-10 21:02:00,53.4,0.0,30.18,NNW,342,0.0,0.0,0,0.00,,---,0.00,VWS V14.00,2013-10-11 01:02:00,
2013-10-10 21:03:00,53.5,0.0,30.19,NNW,342,0.0,0.0,0,0.00,,---,0.00,VWS V14.00,2013-10-11 01:03:00,
2013-10-10 21:04:00,53.5,0.0,30.19,NNW,342,0.0,0.0,0,0.00,,---,0.00,VWS V14.00,2013-10-11 01:04:00,
2013-10-10 21:05:00,53.6,0.0,30.19,NNW,342,0.0,0.0,0,0.00,,---,0.00,VWS V14.00,2013-10-11 01:05:00,
2013-10-10 21:06:00,53.7,0.0,30.19,NNW,342,0.0,0.0,0,0.00,,---,0.00,VWS V14.00,2013-10-11 01:06:00,
2013-10-10 21:07:00,53.6,0.0,30.19,NNW,342,0.0,0.0,0,0.00,,---,0.00,VWS V14.00,2013-10-11 01:07:00,
2013-10-10 21:08:00,53.6,0.0,30.19,NNW,342,0.0,0.0,0,0.00,,---,0.00,VWS V14.00,2013-10-11 01:08:00,
2013-10-10 21:09:00,53.5,0.0,30.19,NNW,342,0.0,0.0,0,0.00,,---,0.00,VWS V14.00,2013-10-11 01:09:00,
2013-10-10 21:10:00,53.5,0.0,30.19,NNW,342,0.0,0.0,0,0.00,,---,0.00,VWS V14.00,2013-10-11 01:10:00,
2013-10-10 21:11:00,53.5,0.0,30.19,NNW,342,0.0,0.0,0,0.00,,---,0.00,VWS V14.00,2013-10-11 01:11:00,
2013-10-10 21:12:00,53.5,0.0,30.19,NNW,342,0.0,0.0,0,0.00,,---,0.00,VWS V14.00,2013-10-11 01:12:00,
2013-10-10 21:13:00,53.5,0.0,30.19,NNW,342,0.0,0.0,0,0.00,,---,0.00,VWS V14.00,2013-10-11 01:13:00,
2013-10-10 21:14:00,53.4,0.0,30.19,NNW,342,0.0,0.0,0,0.00,,---,0.00,VWS V14.00,2013-10-11 01:14:00,
2013-10-10 21:15:00,53.3,0.0,30.18,NNW,342,0.0,0.0,0,0.00,,---,0.00,VWS V14.00,2013-10-11 01:15:00,
2013-10-10 21:16:00,53.2,0.0,30.18,NNW,342,0.0,0.0,0,0.00,,---,0.00,VWS V14.00,2013-10-11 01:16:00,
2013-10-10 21:17:00,53.2,0.0,30.18,NNW,342,0.0,0.0,0,0.00,,---,0.00,VWS V14.00,2013-10-11 01:17:00,
2013-10-10 21:18:00,53.1,0.0,30.18,NNW,342,0.0,0.0,0,0.00,,---,0.00,VWS V14.00,2013-10-11 01:18:00,
2013-10-10 21:19:00,53.1,0.0,30.18,NNW,342,0.0,0.0,0,0.00,,---,0.00,VWS V14.00,2013-10-11 01:19:00,
2013-10-10 21:20:00,53.0,0.0,30.18,NNW,342,0.0,0.0,0,0.00,,---,0.00,VWS V14.00,2013-10-11 01:20:00,
2013-10-10 21:21:00,52.9,0.0,30.18,NNW,342,0.0,0.0,0,0.00,,---,0.00,VWS V14.00,2013-10-11 01:21:00,
2013-10-10 21:22:00,52.8,0.0,30.18,NNW,342,0.0,0.0,0,0.00,,---,0.00,VWS V14.00,2013-10-11 01:22:00,
2013-10-10 21:23:00,52.8,0.0,30.18,NNW,342,0.0,0.0,0,0.00,,---,0.00,VWS V14.00,2013-10-11 01:23:00,
2013-10-10 21:24:00,52.8,0.0,30.18,NNW,342,0.0,0.0,0,0.00,,---,0.00,VWS V14.00,2013-10-11 01:24:00,
2013-10-10 21:25:00,52.7,0.0,30.18,NNW,342,0.0,0.0,0,0.00,,---,0.00,VWS V14.00,2013-10-11 01:25:00,
2013-10-10 21:26:00,52.8,0.0,30.18,NNW,342,0.0,0.0,0,0.00,,---,0.00,VWS V14.00,2013-10-11 01:26:00,
2013-10-10 21:27:00,52.8,0.0,30.18,NNW,342,0.0,0.0,0,0.00,,---,0.00,VWS V14.00,2013-10-11 01:27:00,
2013-10-10 21:28:00,52.7,0.0,30.18,NNW,342,0.0,0.0,0,0.00,,---,0.00,VWS V14.00,2013-10-11 01:28:00,
2013-10-10 21:29:00,52.5,0.0,30.18,NNW,342,0.0,0.0,0,0.00,,---,0.00,VWS V14.00,2013-10-11 01:29:00,
2013-10-10 21:30:00,52.4,0.0,30.18,NNW,342,0.0,1.5,0,0.00,,---,0.00,VWS V14.00,2013-10-11 01:30:00,
2013-10-10 21:31:00,52.5,0.0,30.18,NNW,342,0.0,1.5,0,0.00,,---,0.00,VWS V14.00,2013-10-11 01:31:00,
2013-10-10 21:32:00,52.5,0.0,30.18,NNW,342,0.0,1.5,0,0.00,,---,0.00,VWS V14.00,2013-10-11 01:32:00,
2013-10-10 21:33:00,52.4,0.0,30.18,NW,312,4.1,4.1,0,0.00,,---,0.00,VWS V14.00,2013-10-11 01:33:00,
2013-10-10 21:34:00,52.4,0.0,30.18,NW,323,0.0,1.5,0,0.00,,---,0.00,VWS V14.00,2013-10-11 01:34:00,
2013-10-10 21:35:00,52.3,0.0,30.18,NW,316,3.2,6.2,0,0.00,,---,0.00,VWS V14.00,2013-10-11 01:35:00,
2013-10-10 21:36:00,52.2,0.0,30.18,NW,305,3.5,6.2,0,0.00,,---,0.00,VWS V14.00,2013-10-11 01:36:00,
2013-10-10 21:37:00,52.2,0.0,30.18,NW,311,3.1,6.2,0,0.00,,---,0.00,VWS V14.00,2013-10-11 01:37:00,
2013-10-10 21:38:00,52.2,0.0,30.18,NW,305,4.7,6.2,0,0.00,,---,0.00,VWS V14.00,2013-10-11 01:38:00,
2013-10-10 21:39:00,52.2,0.0,30.18,WNW,302,0.0,6.2,0,0.00,,---,0.00,VWS V14.00,2013-10-11 01:39:00,
2013-10-10 21:40:00,52.1,0.0,30.18,WNW,302,0.0,5.7,0,0.00,,---,0.00,VWS V14.00,2013-10-11 01:40:00,
2013-10-10 21:41:00,52.1,0.0,30.18,WNW,302,0.0,5.7,0,0.00,,---,0.00,VWS V14.00,2013-10-11 01:41:00,
2013-10-10 21:42:00,52.1,0.0,30.18,NNW,329,4.3,5.7,0,0.00,,---,0.00,VWS V14.00,2013-10-11 01:42:00,
2013-10-10 21:43:00,51.9,0.0,30.18,West,259,3.3,5.7,0,0.00,,---,0.00,VWS V14.00,2013-10-11 01:43:00,
2013-10-10 21:44:00,52.0,0.0,30.18,West,262,0.0,5.7,0,0.00,,---,0.00,VWS V14.00,2013-10-11 01:44:00,
2013-10-10 21:45:00,52.0,0.0,30.18,West,262,0.0,5.8,0,0.00,,---,0.00,VWS V14.00,2013-10-11 01:45:00,
2013-10-10 21:46:00,52.0,0.0,30.18,West,262,0.0,5.8,0,0.00,,---,0.00,VWS V14.00,2013-10-11 01:46:00,
2013-10-10 21:47:00,52.0,0.0,30.18,WNW,302,5.3,5.8,0,0.00,,---,0.00,VWS V14.00,2013-10-11 01:47:00,
2013-10-10 21:48:00,52.0,0.0,30.18,West,276,6.3,6.3,0,0.00,,---,0.00,VWS V14.00,2013-10-11 01:48:00,
2013-10-10 21:49:00,51.9,0.0,30.18,WNW,290,4.3,5.8,0,0.00,,---,0.00,VWS V14.00,2013-10-11 01:49:00,
2013-10-10 21:50:00,51.9,0.0,30.18,WNW,285,0.0,7.6,0,0.00,,---,0.00,VWS V14.00,2013-10-11 01:50:00,
2013-10-10 21:51:00,51.9,0.0,30.18,WNW,285,0.0,7.6,0,0.00,,---,0.00,VWS V14.00,2013-10-11 01:51:00,
2013-10-10 21:52:00,52.0,0.0,30.18,WNW,285,0.0,7.6,0,0.00,,---,0.00,VWS V14.00,2013-10-11 01:52:00,
2013-10-10 21:53:00,52.0,0.0,30.18,WNW,285,0.0,7.6,0,0.00,,---,0.00,VWS V14.00,2013-10-11 01:53:00,
2013-10-10 21:54:00,52.1,0.0,30.18,WNW,285,0.0,7.6,0,0.00,,---,0.00,VWS V14.00,2013-10-11 01:54:00,
2013-10-10 21:55:00,52.0,0.0,30.18,WNW,285,0.0,2.9,0,0.00,,---,0.00,VWS V14.00,2013-10-11 01:55:00,
2013-10-10 21:56:00,52.0,0.0,30.18,NW,309,5.4,5.4,0,0.00,,---,0.00,VWS V14.00,2013-10-11 01:56:00,
2013-10-10 21:57:00,52.0,0.0,30.18,NW,305,4.3,4.3,0,0.00,,---,0.00,VWS V14.00,2013-10-11 01:57:00,
2013-10-10 21:58:00,52.0,0.0,30.18,NW,312,3.2,3.2,0,0.00,,---,0.00,VWS V14.00,2013-10-11 01:58:00,
2013-10-10 21:59:00,52.0,0.0,30.18,West,281,0.0,2.9,0,0.00,,---,0.00,VWS V14.00,2013-10-11 01:59:00,
2013-10-10 22:00:00,52.0,0.0,30.18,West,281,0.0,6.0,0,0.00,,---,0.00,VWS V14.00,2013-10-11 02:00:00,
2013-10-10 22:01:00,52.0,0.0,30.18,West,281,0.0,6.0,0,0.00,,---,0.00,VWS V14.00,2013-10-11 02:01:00,
2013-10-10 22:02:00,52.0,0.0,30.18,West,281,0.0,6.0,0,0.00,,---,0.00,VWS V14.00,2013-10-11 02:02:00,
2013-10-10 22:03:00,52.0,0.0,30.18,West,281,0.0,6.0,0,0.00,,---,0.00,VWS V14.00,2013-10-11 02:03:00,
2013-10-10 22:04:00,52.0,0.0,30.18,West,281,0.0,6.0,0,0.00,,---,0.00,VWS V14.00,2013-10-11 02:04:00,
2013-10-10 22:05:00,52.0,0.0,30.18,West,281,0.0,0.0,0,0.00,,---,0.00,VWS V14.00,2013-10-11 02:05:00,
2013-10-10 22:06:00,52.0,0.0,30.18,West,281,0.0,0.0,0,0.00,,---,0.00,VWS V14.00,2013-10-11 02:06:00,
2013-10-10 22:07:00,52.0,0.0,30.18,West,281,0.0,0.0,0,0.00,,---,0.00,VWS V14.00,2013-10-11 02:07:00,
2013-10-10 22:08:00,52.0,0.0,30.18,West,281,0.0,0.0,0,0.00,,---,0.00,VWS V14.00,2013-10-11 02:08:00,
2013-10-10 22:09:00,52.0,0.0,30.18,West,281,0.0,0.0,0,0.00,,---,0.00,VWS V14.00,2013-10-11 02:09:00,
2013-10-10 22:10:00,52.1,0.0,30.18,West,281,0.0,0.0,0,0.00,,---,0.00,VWS V14.00,2013-10-11 02:10:00,
2013-10-10 22:11:00,52.0,0.0,30.18,West,281,0.0,0.0,0,0.00,,---,0.00,VWS V14.00,2013-10-11 02:11:00,
2013-10-10 22:12:00,52.0,0.0,30.18,West,281,0.0,0.0,0,0.00,,---,0.00,VWS V14.00,2013-10-11 02:12:00,
2013-10-10 22:13:00,52.0,0.0,30.18,NW,326,0.0,0.0,0,0.00,,---,0.00,VWS V14.00,2013-10-11 02:13:00,
2013-10-10 22:14:00,52.0,0.0,30.18,NW,326,0.0,0.0,0,0.00,,---,0.00,VWS V14.00,2013-10-11 02:14:00,
2013-10-10 22:15:00,51.9,0.0,30.18,NW,326,0.0,0.0,0,0.00,,---,0.00,VWS V14.00,2013-10-11 02:15:00,
2013-10-10 22:16:00,51.9,0.0,30.18,NW,326,0.0,3.4,0,0.00,,---,0.00,VWS V14.00,2013-10-11 02:16:00,
2013-10-10 22:17:00,51.8,0.0,30.18,NW,326,0.0,3.4,0,0.00,,---,0.00,VWS V14.00,2013-10-11 02:17:00,
2013-10-10 22:18:00,51.8,0.0,30.18,NW,326,0.0,3.4,0,0.00,,---,0.00,VWS V14.00,2013-10-11 02:18:00,
2013-10-10 22:19:00,51.8,0.0,30.18,NW,326,0.0,3.4,0,0.00,,---,0.00,VWS V14.00,2013-10-11 02:19:00,
2013-10-10 22:20:00,51.8,0.0,30.18,NW,326,0.0,0.0,0,0.00,,---,0.00,VWS V14.00,2013-10-11 02:20:00,
2013-10-10 22:21:00,51.8,0.0,30.18,NW,326,0.0,0.0,0,0.00,,---,0.00,VWS V14.00,2013-10-11 02:21:00,
2013-10-10 22:22:00,51.8,0.0,30.18,NW,326,0.0,0.0,0,0.00,,---,0.00,VWS V14.00,2013-10-11 02:22:00,
2013-10-10 22:23:00,51.7,0.0,30.18,NW,326,0.0,0.0,0,0.00,,---,0.00,VWS V14.00,2013-10-11 02:23:00,
2013-10-10 22:24:00,51.7,0.0,30.18,NW,326,0.0,0.0,0,0.00,,---,0.00,VWS V14.00,2013-10-11 02:24:00,
2013-10-10 22:25:00,51.7,0.0,30.18,NW,326,0.0,0.0,0,0.00,,---,0.00,VWS V14.00,2013-10-11 02:25:00,
2013-10-10 22:26:00,51.7,0.0,30.18,NW,326,0.0,0.0,0,0.00,,---,0.00,VWS V14.00,2013-10-11 02:26:00,
2013-10-10 22:27:00,51.6,0.0,30.18,NW,326,0.0,0.0,0,0.00,,---,0.00,VWS V14.00,2013-10-11 02:27:00,
2013-10-10 22:28:00,51.6,0.0,30.18,NW,326,0.0,0.0,0,0.00,,---,0.00,VWS V14.00,2013-10-11 02:28:00,
2013-10-10 22:29:00,51.5,0.0,30.18,NW,326,0.0,0.0,0,0.00,,---,0.00,VWS V14.00,2013-10-11 02:29:00,
2013-10-10 22:30:00,51.4,0.0,30.18,NW,326,0.0,0.0,0,0.00,,---,0.00,VWS V14.00,2013-10-11 02:30:00,
2013-10-10 22:31:00,51.4,0.0,30.18,NW,326,0.0,0.0,0,0.00,,---,0.00,VWS V14.00,2013-10-11 02:31:00,
2013-10-10 22:32:00,51.4,0.0,30.17,NW,326,0.0,0.0,0,0.00,,---,0.00,VWS V14.00,2013-10-11 02:32:00,
2013-10-10 22:33:00,51.4,0.0,30.17,NW,326,0.0,0.0,0,0.00,,---,0.00,VWS V14.00,2013-10-11 02:33:00,
2013-10-10 22:34:00,51.4,0.0,30.17,NW,326,0.0,0.0,0,0.00,,---,0.00,VWS V14.00,2013-10-11 02:34:00,
2013-10-10 22:35:00,51.4,0.0,30.17,NW,326,0.0,0.0,0,0.00,,---,0.00,VWS V14.00,2013-10-11 02:35:00,
2013-10-10 22:36:00,51.4,0.0,30.18,NW,326,0.0,0.0,0,0.00,,---,0.00,VWS V14.00,2013-10-11 02:36:00,
2013-10-10 22:37:00,51.4,0.0,30.17,NW,326,0.0,0.0,0,0.00,,---,0.00,VWS V14.00,2013-10-11 02:37:00,
2013-10-10 22:38:00,51.4,0.0,30.17,NW,326,0.0,0.0,0,0.00,,---,0.00,VWS V14.00,2013-10-11 02:38:00,
2013-10-10 22:39:00,51.4,0.0,30.17,NW,326,0.0,0.0,0,0.00,,---,0.00,VWS V14.00,2013-10-11 02:39:00,
2013-10-10 22:40:00,51.4,0.0,30.17,NW,326,0.0,0.0,0,0.00,,---,0.00,VWS V14.00,2013-10-11 02:40:00,
2013-10-10 22:41:00,51.3,0.0,30.17,NW,326,0.0,0.0,0,0.00,,---,0.00,VWS V14.00,2013-10-11 02:41:00,
2013-10-10 22:42:00,51.4,0.0,30.17,NW,326,0.0,0.0,0,0.00,,---,0.00,VWS V14.00,2013-10-11 02:42:00,
2013-10-10 22:43:00,51.4,0.0,30.17,NW,326,0.0,0.0,0,0.00,,---,0.00,VWS V14.00,2013-10-11 02:43:00,
2013-10-10 22:44:00,51.4,0.0,30.18,NW,326,0.0,0.0,0,0.00,,---,0.00,VWS V14.00,2013-10-11 02:44:00,
2013-10-10 22:45:00,51.3,0.0,30.18,NW,326,0.0,0.0,0,0.00,,---,0.00,VWS V14.00,2013-10-11 02:45:00,
2013-10-10 22:46:00,51.3,0.0,30.18,NW,326,0.0,0.0,0,0.00,,---,0.00,VWS V14.00,2013-10-11 02:46:00,
2013-10-10 22:47:00,51.3,0.0,30.18,NW,326,0.0,0.0,0,0.00,,---,0.00,VWS V14.00,2013-10-11 02:47:00,
2013-10-10 22:48:00,51.4,0.0,30.18,NW,326,0.0,0.0,0,0.00,,---,0.00,VWS V14.00,2013-10-11 02:48:00,
2013-10-10 22:49:00,51.3,0.0,30.18,NW,326,0.0,0.0,0,0.00,,---,0.00,VWS V14.00,2013-10-11 02:49:00,
2013-10-10 22:50:00,51.3,0.0,30.18,NW,326,0.0,0.0,0,0.00,,---,0.00,VWS V14.00,2013-10-11 02:50:00,
2013-10-10 22:51:00,51.3,0.0,30.18,NW,326,0.0,0.0,0,0.00,,---,0.00,VWS V14.00,2013-10-11 02:51:00,
2013-10-10 22:52:00,51.3,0.0,30.18,NW,326,0.0,0.0,0,0.00,,---,0.00,VWS V14.00,2013-10-11 02:52:00,
2013-10-10 22:53:00,51.4,0.0,30.18,NW,326,0.0,0.0,0,0.00,,---,0.00,VWS V14.00,2013-10-11 02:53:00,
2013-10-10 22:54:00,51.4,0.0,30.18,NW,326,0.0,0.0,0,0.00,,---,0.00,VWS V14.00,2013-10-11 02:54:00,
2013-10-10 22:55:00,51.4,0.0,30.18,NW,326,0.0,0.0,0,0.00,,---,0.00,VWS V14.00,2013-10-11 02:55:00,
2013-10-10 22:56:00,51.3,0.0,30.17,NW,326,0.0,0.0,0,0.00,,---,0.00,VWS V14.00,2013-10-11 02:56:00,
2013-10-10 22:57:00,51.4,0.0,30.17,NW,326,0.0,0.0,0,0.00,,---,0.00,VWS V14.00,2013-10-11 02:57:00,
2013-10-10 22:58:00,51.3,0.0,30.18,NW,326,0.0,0.0,0,0.00,,---,0.00,VWS V14.00,2013-10-11 02:58:00,
2013-10-10 22:59:00,51.3,0.0,30.17,NW,326,0.0,0.0,0,0.00,,---,0.00,VWS V14.00,2013-10-11 02:59:00,
2013-10-10 23:00:00,51.3,0.0,30.17,NW,326,0.0,0.0,0,0.00,,---,0.00,VWS V14.00,2013-10-11 03:00:00,
2013-10-10 23:01:00,51.3,0.0,30.17,NW,326,0.0,0.0,0,0.00,,---,0.00,VWS V14.00,2013-10-11 03:01:00,
2013-10-10 23:02:00,51.3,0.0,30.17,NW,326,0.0,0.0,0,0.00,,---,0.00,VWS V14.00,2013-10-11 03:02:00,
2013-10-10 23:03:00,51.2,0.0,30.17,NW,326,0.0,0.0,0,0.00,,---,0.00,VWS V14.00,2013-10-11 03:03:00,
2013-10-10 23:04:00,51.2,0.0,30.17,NW,326,0.0,0.0,0,0.00,,---,0.00,VWS V14.00,2013-10-11 03:04:00,
2013-10-10 23:05:00,51.1,0.0,30.17,NW,326,0.0,0.0,0,0.00,,---,0.00,VWS V14.00,2013-10-11 03:05:00,
2013-10-10 23:06:00,51.1,0.0,30.17,NW,326,0.0,0.0,0,0.00,,---,0.00,VWS V14.00,2013-10-11 03:06:00,
2013-10-10 23:07:00,51.1,0.0,30.17,NW,326,0.0,0.0,0,0.00,,---,0.00,VWS V14.00,2013-10-11 03:07:00,
2013-10-10 23:08:00,51.0,0.0,30.17,NW,326,0.0,0.0,0,0.00,,---,0.00,VWS V14.00,2013-10-11 03:08:00,
2013-10-10 23:09:00,51.0,0.0,30.17,NW,326,0.0,0.0,0,0.00,,---,0.00,VWS V14.00,2013-10-11 03:09:00,
2013-10-10 23:10:00,51.0,0.0,30.17,NW,326,0.0,0.0,0,0.00,,---,0.00,VWS V14.00,2013-10-11 03:10:00,
2013-10-10 23:11:00,50.9,0.0,30.17,NW,326,0.0,0.0,0,0.00,,---,0.00,VWS V14.00,2013-10-11 03:11:00,
2013-10-10 23:12:00,50.9,0.0,30.17,NW,326,0.0,0.0,0,0.00,,---,0.00,VWS V14.00,2013-10-11 03:12:00,
2013-10-10 23:13:00,50.8,0.0,30.17,NW,326,0.0,0.0,0,0.00,,---,0.00,VWS V14.00,2013-10-11 03:13:00,